GFSSW_850_temp_000.txt.gz
Temp
19 20 20 20 21 21 22 21 22 22 23 23 23 24 25 25 25 26 26 29 28 29 29 29 29 30 29 28 29 28 21 22 24 25 27 28 26 25 25 22 23 23 21 21 20
19 20 20 20 20 21 21 22 22 22 23 23 23 23 24 24 25 25 29 28 28 29 29 29 30 30 29 30 29 28 23 25 26 26 27 28 27 26 24 24 23 22 22 20 19
19 19 20 20 20 21 21 21 22 22 22 23 23 23 23 24 24 28 28 29 29 29 29 29 30 28 28 29 30 29 28 28 28 29 29 28 27 26 24 23 23 22 21 20 20
19 19 20 20 20 21 21 21 22 22 22 23 23 23 23 23 23 28 28 29 29 29 29 30 29 28 27 28 31 29 31 29 27 29 29 28 27 26 25 23 24 23 22 21 20
18 19 20 20 20 21 21 22 22 22 22 23 23 22 23 22 25 28 28 28 28 29 29 29 28 29 27 29 31 30 30 29 29 30 30 28 26 25 24 23 23 23 22 21 21
18 19 19 20 20 21 21 21 22 22 22 23 23 22 22 19 28 28 28 28 28 29 29 29 29 30 30 29 30 31 30 29 29 29 28 26 26 26 24 23 23 23 23 22 22
17 18 19 19 20 21 21 22 22 22 22 22 23 22 22 26 27 27 28 28 29 29 29 30 30 29 30 28 33 31 29 29 28 28 27 28 26 25 24 23 23 23 23 23 23
17 18 18 19 20 21 21 22 22 22 23 23 22 21 23 27 26 27 27 27 28 29 29 30 30 29 30 31 31 29 28 26 27 28 28 26 23 25 24 23 23 23 23 23 23
17 18 18 19 19 20 22 22 23 23 23 23 20 20 22 26 27 28 27 28 28 29 29 30 29 29 30 28 25 26 26 27 27 28 26 25 23 25 25 24 24 23 23 23 23
17 17 18 19 19 20 22 22 23 23 22 21 20 19 25 27 27 28 28 28 28 29 29 29 29 26 23 24 24 27 26 28 27 27 27 25 24 25 25 25 25 25 24 24 23
16 17 18 19 19 20 22 22 23 22 21 22 23 23 24 25 27 28 28 28 28 29 25 28 25 24 25 25 27 28 27 28 28 28 25 25 24 25 25 25 25 25 25 25 24
15 16 18 19 19 20 21 21 21 20 18 23 23 24 25 25 24 27 28 28 27 25 25 25 24 26 27 28 28 28 28 28 29 29 26 24 25 26 26 25 25 25 25 25 25
15 16 17 19 20 21 20 20 21 21 18 22 24 24 26 26 25 26 28 28 26 25 25 23 26 28 29 28 28 27 27 27 29 29 26 25 24 24 25 26 26 25 25 25 25
14 15 16 18 20 20 20 20 21 22 17 20 23 25 25 26 25 28 28 28 27 26 25 25 28 28 28 28 28 25 28 31 29 29 25 26 22 22 25 25 25 26 25 25 25
14 15 16 16 18 19 20 21 22 23 17 25 25 28 29 26 28 28 29 29 26 27 25 25 27 27 27 29 28 28 29 29 29 28 25 26 22 25 22 22 22 25 25 26 25
14 15 15 16 18 19 20 21 22 18 18 24 27 25 26 26 28 29 30 30 30 27 27 26 30 28 29 30 29 31 31 26 24 22 23 25 24 22 22 25 26 25 26 26 25
14 15 15 16 20 19 19 20 16 16 22 25 25 25 26 25 26 26 27 26 26 23 24 26 28 29 30 28 29 30 24 23 25 22 23 22 24 26 24 27 26 25 26 26 26
14 16 18 18 19 19 18 16 17 20 21 24 24 25 25 26 25 27 25 26 24 25 22 24 25 28 29 28 28 26 24 21 25 23 24 24 25 28 25 27 27 28 27 27 25
14 17 19 21 20 18 17 14 16 18 23 24 23 23 24 26 26 26 24 26 27 24 25 22 23 28 29 30 28 28 25 24 23 24 23 24 26 27 26 26 27 27 26 26 25
13 16 20 20 19 17 14 15 17 21 23 23 22 23 22 23 24 25 24 26 27 26 24 24 24 26 30 30 28 29 26 26 20 24 25 24 26 24 25 24 25 25 25 26 26
13 13 19 18 17 16 12 13 19 23 23 23 22 22 23 23 25 24 26 28 29 28 24 25 24 27 28 27 27 27 26 24 22 21 22 23 22 23 25 24 24 24 27 26 26
10 8 16 16 15 13 13 18 22 21 23 22 23 23 23 24 25 26 26 28 30 30 26 24 22 25 27 27 28 26 26 23 22 24 21 21 23 25 24 24 26 26 27 28 27
7 9 17 16 12 13 14 18 20 21 21 22 23 25 25 24 24 26 26 29 30 29 28 27 22 24 24 25 27 28 26 24 21 19 22 22 23 25 25 24 27 27 29 30 28
5 6 14 17 17 16 13 16 18 21 21 23 23 25 24 24 25 25 26 29 30 30 30 28 21 24 26 24 26 27 27 25 23 21 21 22 26 26 25 24 24 27 30 31 31
6 7 11 9 11 10 12 15 18 19 22 22 21 22 21 21 23 25 25 25 28 30 28 26 23 23 24 28 27 30 29 25 26 24 26 25 24 23 22 23 25 30 31 30 29
7 8 9 9 10 11 13 16 17 19 20 21 21 21 21 22 23 24 24 23 25 24 26 21 24 24 27 27 29 30 30 28 28 26 27 25 24 23 25 27 26 29 30 30 30
5 7 7 9 8 10 12 13 15 17 19 20 19 20 21 22 23 24 24 23 24 24 24 22 21 21 24 26 27 27 29 29 29 27 28 24 25 23 24 23 26 28 29 29 29

GFSSW_850_temp_003.txt.gz
Temp
19 19 20 20 20 20 21 21 21 21 22 22 23 23 24 25 25 26 27 29 28 28 28 28 28 28 27 27 28 27 22 23 23 23 24 25 23 23 23 21 22 22 21 20 19
18 19 19 20 20 20 21 21 21 21 22 22 22 23 23 24 25 26 29 28 28 28 28 28 28 28 28 28 28 25 21 24 25 25 25 24 24 24 22 22 21 21 21 19 18
18 19 19 20 20 20 21 21 21 21 21 22 22 22 23 23 24 27 27 28 29 28 28 28 27 28 27 28 28 26 24 26 27 28 27 25 25 24 22 22 21 20 20 19 19
18 18 19 19 20 20 20 21 21 21 22 22 22 22 22 22 22 27 27 27 29 29 28 27 27 27 26 26 29 27 28 28 27 27 27 26 25 23 23 22 23 22 21 19 18
18 18 19 19 19 20 20 21 21 22 22 22 22 22 22 21 25 27 27 27 27 29 28 27 28 28 27 27 28 27 28 29 29 28 27 27 25 24 24 23 22 21 20 19 18
18 18 19 19 19 20 21 21 21 22 22 22 23 22 21 19 27 27 28 28 28 29 27 27 29 29 29 28 28 29 28 28 28 27 27 24 24 25 22 22 21 20 19 19 19
17 18 18 19 19 20 20 21 21 22 22 23 23 22 21 25 26 27 27 28 28 28 28 28 29 28 28 27 30 30 26 27 26 26 25 26 24 22 22 22 21 20 20 20 20
17 17 18 19 19 20 21 21 22 22 23 23 23 21 21 26 26 27 27 27 27 27 27 28 28 28 29 30 29 26 26 25 27 26 26 25 22 22 22 22 22 21 20 20 20
17 17 18 19 19 20 21 21 22 23 23 22 21 20 22 25 26 27 27 27 27 27 27 28 28 29 28 25 23 25 25 24 26 26 26 24 21 22 22 22 22 22 21 21 21
16 17 18 18 19 19 21 21 22 22 20 20 19 19 25 25 25 25 27 27 27 28 27 27 28 24 21 22 23 26 24 25 25 27 25 23 22 22 22 22 22 22 22 21 21
16 17 17 18 19 19 21 21 21 21 20 21 21 21 23 26 25 26 27 27 27 27 24 27 24 22 24 25 25 26 26 25 26 26 24 23 22 22 22 22 22 21 21 21 22
15 16 17 18 18 19 20 20 18 17 15 21 23 23 24 24 23 26 26 27 25 23 24 24 22 24 26 25 26 27 27 26 27 26 24 23 23 24 23 23 23 22 22 22 22
15 16 16 18 19 19 19 19 19 18 15 20 23 23 24 24 23 25 25 26 25 23 23 22 24 25 27 27 26 25 25 26 26 25 24 23 22 22 23 24 24 23 23 23 23
14 15 16 17 18 19 19 19 19 20 15 18 21 24 23 25 23 27 27 27 25 23 23 24 25 27 26 27 26 26 25 27 26 26 23 24 21 21 23 23 23 24 23 23 24
14 13 15 14 16 18 19 19 20 20 16 22 23 25 24 25 26 26 27 27 24 25 23 24 26 25 26 27 27 27 26 26 26 26 23 23 22 21 22 21 23 24 24 23 24
13 14 14 15 16 19 19 19 21 17 17 21 25 24 23 24 26 27 27 27 28 25 25 25 28 26 26 28 28 28 28 23 20 20 22 22 22 21 22 23 24 24 24 24 24
13 15 14 14 17 18 19 19 16 16 20 23 23 23 24 24 25 26 25 25 24 22 22 26 26 27 28 27 27 26 23 21 22 21 21 21 22 23 23 26 25 24 24 24 23
13 15 17 17 18 17 18 14 16 19 19 20 23 23 24 25 24 25 24 24 23 23 22 21 24 25 27 26 25 24 22 20 23 20 23 21 22 26 26 26 27 26 25 24 24
13 15 17 19 19 18 17 13 15 17 21 22 22 22 22 23 24 24 23 25 25 22 23 19 21 26 27 28 26 26 23 23 22 21 20 20 23 26 24 24 26 26 25 24 24
12 14 17 16 17 16 12 13 16 19 22 21 21 22 22 22 21 22 23 24 26 23 23 22 23 24 28 27 26 27 24 24 19 23 23 22 25 24 25 22 23 24 25 25 25
12 13 15 16 15 15 11 12 17 21 22 21 21 21 21 21 21 22 22 24 25 26 24 20 22 24 26 24 25 25 24 21 20 19 21 22 21 21 25 22 22 23 25 25 25
9 6 14 13 12 10 11 13 20 20 22 20 21 20 20 21 21 21 22 24 27 27 23 21 21 24 24 25 26 25 24 24 25 22 18 20 22 24 23 21 23 24 25 26 27
3 6 13 12 11 11 12 16 18 19 19 19 20 21 22 21 21 22 23 26 27 26 26 21 19 21 22 24 25 26 23 21 19 18 19 22 22 23 22 22 23 24 25 27 28
3 4 12 13 12 12 11 13 16 19 19 20 19 21 21 21 21 21 23 26 27 26 28 25 18 25 25 25 24 26 24 22 22 20 20 21 25 26 24 23 21 24 25 27 28
4 5 8 7 10 8 10 12 15 17 18 20 18 20 20 19 21 22 23 23 23 26 24 25 23 20 26 26 25 26 26 23 24 24 25 24 23 24 23 23 23 28 27 26 27
4 5 6 6 8 9 10 12 13 15 16 17 18 20 19 19 21 21 21 22 21 21 22 21 23 22 23 24 26 26 26 25 27 22 25 23 23 23 26 24 24 27 28 28 28
3 4 4 6 7 8 10 11 13 14 15 17 18 18 20 21 21 22 21 21 20 19 20 20 23 19 25 24 25 25 26 25 26 25 25 24 24 22 23 22 24 27 28 29 30

GFSSW_850_temp_006.txt.gz
Temp
18 18 19 19 19 20 20 20 20 21 21 22 22 22 23 23 24 25 26 27 27 27 27 27 26 26 24 24 25 25 23 22 22 22 23 23 22 22 22 20 21 21 20 20 19
18 18 19 19 19 19 20 20 20 20 21 21 22 22 23 23 24 25 28 27 27 27 27 27 27 26 25 26 26 24 22 24 23 23 23 23 23 22 21 21 21 20 20 20 19
18 18 18 19 19 19 20 20 20 21 21 21 22 22 23 23 23 26 26 27 27 26 26 26 26 26 26 27 27 24 24 24 25 26 25 23 23 23 21 20 21 20 20 19 18
17 18 18 19 19 20 20 20 20 21 21 21 22 22 22 22 21 26 26 26 26 26 25 25 26 27 25 25 28 26 26 26 27 26 24 23 24 22 22 23 23 22 22 19 19
17 17 17 18 19 19 20 20 21 21 21 22 22 22 22 21 24 25 25 27 27 26 26 26 26 27 25 25 27 26 26 27 28 28 25 25 23 22 23 23 22 21 20 19 19
17 17 18 18 18 19 20 20 21 21 22 22 22 22 21 18 25 25 26 27 27 27 26 26 27 29 28 27 27 28 27 25 25 25 25 23 22 23 22 22 20 20 20 20 20
17 17 17 18 18 19 20 20 21 21 22 22 22 22 21 24 25 25 25 26 26 26 26 26 27 28 28 27 28 27 24 25 24 25 23 25 23 22 22 22 20 19 19 19 20
17 17 17 18 18 19 20 20 21 21 22 23 23 21 21 25 25 26 26 25 26 25 26 27 27 27 28 28 27 26 24 24 25 24 24 25 22 21 21 21 19 19 19 19 20
16 16 17 18 18 18 20 20 21 22 22 22 21 21 21 24 25 25 26 26 26 26 26 26 27 27 27 24 23 24 23 24 25 25 24 24 22 21 21 20 20 19 19 19 19
15 16 17 18 18 19 20 21 21 22 20 19 19 19 24 25 25 25 26 25 26 26 25 26 26 21 20 21 21 23 24 24 23 24 23 22 21 21 21 20 20 20 20 19 20
14 15 17 17 18 19 20 21 20 20 19 21 21 22 24 25 25 26 25 26 25 25 22 24 22 21 22 23 24 24 24 26 25 25 23 21 21 21 21 21 21 20 20 20 20
14 15 16 17 18 19 19 18 17 16 15 21 22 21 23 23 22 25 25 25 24 22 23 22 21 22 23 24 24 24 24 24 25 24 24 22 22 21 21 21 21 21 20 20 21
13 14 16 17 18 18 18 18 17 17 14 20 21 20 22 21 21 24 24 25 23 21 22 20 24 23 24 24 24 24 24 23 26 23 23 22 22 20 21 21 21 21 21 21 21
13 13 15 17 18 18 18 18 18 18 14 17 20 22 22 22 20 25 24 26 23 21 21 22 24 24 23 24 23 23 24 25 24 24 22 23 21 19 21 21 21 21 21 22 22
12 13 13 14 15 17 17 17 18 18 16 21 22 24 23 23 24 24 25 25 22 23 22 22 24 24 24 25 25 26 24 24 23 22 22 22 21 21 21 20 21 22 22 22 23
12 13 13 14 15 17 17 17 18 16 16 20 23 23 22 23 24 24 25 26 26 24 23 23 26 24 25 26 26 25 24 21 18 19 20 21 22 21 19 22 23 23 23 23 23
13 13 14 13 16 17 17 17 15 14 19 22 22 22 22 22 22 25 23 22 21 20 20 24 24 26 26 26 26 23 21 20 21 19 20 19 21 25 22 23 25 24 23 23 24
13 13 15 16 17 17 16 13 14 17 18 19 21 21 23 21 22 23 22 21 21 21 18 20 22 24 25 24 23 23 21 19 22 20 22 19 20 24 26 26 26 26 24 24 23
12 14 16 16 16 15 15 11 14 15 19 21 21 21 21 22 23 23 22 21 22 20 21 18 20 23 25 25 25 23 22 22 19 19 20 19 21 24 25 24 23 25 25 24 24
11 13 15 14 14 14 10 12 14 17 20 20 20 21 21 20 20 21 21 22 23 22 21 21 22 22 25 26 25 24 21 23 17 21 21 20 22 22 25 24 22 22 23 24 24
10 12 13 13 12 12 10 11 15 19 19 20 19 20 20 20 21 20 21 23 24 25 20 20 20 22 23 23 25 23 22 19 18 18 19 20 20 20 23 23 23 21 24 24 25
8 6 12 11 10 7 9 11 17 18 20 20 20 19 18 20 19 19 20 22 24 23 22 19 20 21 21 23 24 24 22 21 23 20 17 19 21 24 22 23 22 23 24 25 25
4 5 10 10 8 9 9 13 16 18 18 19 18 18 19 19 19 18 20 22 24 22 21 20 18 21 21 22 23 24 21 19 17 17 17 21 22 22 20 21 22 22 25 25 26
3 2 9 10 9 10 9 11 14 17 17 18 18 18 18 18 17 18 20 23 24 24 24 23 17 22 23 23 23 23 23 20 21 18 19 19 24 25 23 21 20 23 25 26 27
2 3 4 5 7 6 8 10 13 14 16 18 17 16 16 15 17 17 20 21 22 22 20 19 21 21 25 22 22 23 23 21 21 22 23 25 21 24 23 21 22 28 25 25 25
3 3 3 4 6 6 8 10 12 13 13 15 15 17 16 16 18 19 19 19 22 19 20 17 20 19 24 24 23 25 24 22 22 23 22 24 22 22 24 23 23 26 26 25 27
1 2 2 5 4 7 8 9 10 11 13 15 15 14 15 16 17 19 20 20 17 19 16 17 19 17 22 21 21 21 25 23 23 22 23 22 24 21 22 21 23 25 27 29 30

GFSSW_850_temp_009.txt.gz
Temp
18 18 18 18 19 19 20 20 20 20 21 21 22 22 23 23 24 24 25 26 26 26 27 26 25 26 25 24 24 24 28 27 27 26 27 25 25 22 22 21 21 20 21 20 17
18 18 18 18 19 19 19 20 20 21 21 21 21 22 22 23 24 25 26 27 26 26 26 26 26 25 25 25 25 27 27 29 29 28 27 25 25 23 23 22 22 20 19 20 17
17 18 18 18 19 19 19 20 20 21 21 21 21 22 22 22 23 25 25 26 25 25 26 26 26 26 25 26 26 27 29 29 28 27 27 26 25 24 23 23 23 21 19 18 17
17 17 18 18 19 19 19 19 20 20 21 21 22 22 22 22 24 25 25 25 24 24 24 25 25 25 27 28 28 28 28 29 28 26 26 26 25 24 23 25 23 21 20 18 18
16 17 17 18 18 19 19 20 20 20 21 21 22 22 22 21 23 25 25 25 25 25 24 25 25 26 28 28 28 28 29 28 28 26 27 25 25 25 23 23 22 21 19 19 18
16 16 17 18 18 19 19 20 20 20 21 21 22 22 21 21 25 25 25 25 25 26 25 24 26 27 28 28 29 28 28 28 27 26 25 26 25 25 24 22 21 20 19 19 19
15 16 16 17 18 18 19 20 20 21 21 21 22 22 20 23 24 24 24 24 25 26 25 24 27 27 28 29 28 27 28 27 27 26 26 25 24 25 24 21 20 20 20 19 19
15 15 16 17 18 18 19 20 21 21 22 22 22 21 20 24 24 24 24 24 25 24 24 25 26 27 27 27 28 29 29 28 27 27 25 27 28 26 22 22 21 20 20 19 19
14 15 16 17 18 18 19 20 21 21 22 21 20 19 20 24 24 24 24 25 25 24 24 25 25 26 27 29 29 28 29 28 26 28 26 27 28 26 23 23 22 21 21 20 20
14 14 16 16 17 18 19 21 21 21 20 19 18 17 22 24 24 24 24 24 25 24 24 24 25 28 27 29 29 29 28 28 28 27 27 27 27 24 23 23 23 22 21 21 20
14 15 16 16 16 18 19 20 20 19 19 21 21 22 23 24 24 24 24 24 25 24 25 25 27 27 28 29 31 31 30 30 28 27 27 27 27 25 23 23 23 22 21 21 21
13 14 16 17 17 18 17 17 16 15 16 21 22 20 20 21 22 23 24 24 25 26 24 25 26 27 29 29 29 29 30 30 28 27 28 26 27 26 24 23 23 23 22 21 21
12 13 14 16 17 17 17 17 15 15 16 19 20 20 22 19 21 23 23 24 25 25 25 26 27 26 27 28 28 29 29 29 30 27 26 27 28 25 25 24 23 23 23 22 22
12 12 14 16 16 17 16 16 17 16 19 22 21 22 21 21 21 22 23 25 25 25 25 26 27 26 27 28 29 29 29 30 29 28 28 28 28 27 27 24 24 23 23 22 22
11 12 12 13 14 16 16 16 17 16 20 23 23 23 22 22 23 22 23 24 25 25 25 26 25 26 27 28 28 30 29 29 29 29 27 26 27 30 25 25 25 25 24 23 23
11 12 11 13 15 16 16 16 17 19 19 23 23 24 23 23 24 22 23 25 25 26 24 27 25 28 28 29 28 27 27 26 26 28 26 29 27 30 26 27 28 27 25 24 24
11 12 12 13 15 15 16 16 19 19 21 23 24 24 24 24 24 25 24 24 25 24 24 25 26 27 28 28 28 28 29 27 26 26 27 27 26 29 30 29 29 29 26 25 24
11 12 13 15 15 15 15 17 17 20 22 22 22 23 24 23 24 25 24 25 26 26 25 24 24 26 28 29 28 27 30 28 26 26 28 23 26 29 30 30 28 28 27 26 25
11 13 14 14 14 14 13 17 19 19 21 22 23 23 24 23 23 24 25 26 26 26 25 24 24 26 27 28 29 27 27 31 29 24 28 28 27 28 29 29 28 28 27 26 25
9 12 12 12 12 11 14 17 18 19 21 22 22 22 23 22 24 24 24 25 26 26 27 25 24 27 28 28 27 28 29 27 27 27 26 27 27 30 30 31 30 28 28 27 26
8 9 11 12 10 10 15 16 18 19 19 21 21 22 22 22 23 23 24 25 25 25 26 27 26 26 26 27 28 27 27 26 29 28 28 27 29 29 31 31 31 29 28 27 26
6 9 10 10 11 11 13 14 16 19 20 20 21 21 22 22 22 22 23 24 24 25 25 26 26 25 27 28 27 29 28 28 28 26 26 28 30 30 29 31 31 31 29 27 25
2 3 9 8 12 13 13 14 16 18 19 20 21 21 22 21 20 22 23 24 24 25 25 23 24 24 25 27 27 26 28 29 29 29 27 28 29 30 28 27 27 27 27 25 24
1 6 8 8 8 10 10 13 15 16 18 19 20 21 20 20 20 21 22 24 23 25 24 24 25 25 25 26 28 26 27 27 28 28 28 27 29 30 30 28 29 27 26 24 23
2 5 3 8 9 8 9 11 13 14 17 17 18 20 20 19 20 20 21 22 24 24 23 24 23 24 26 28 28 28 27 27 26 28 28 29 28 31 30 30 30 30 26 23 23
2 3 3 4 5 7 9 11 12 13 13 17 17 19 20 18 19 20 22 23 22 22 24 22 23 23 24 26 27 27 28 28 28 28 27 30 29 31 31 29 27 27 24 24 24
1 1 1 5 6 7 9 10 11 11 13 13 15 14 16 17 17 17 19 20 21 21 21 22 22 23 24 26 26 25 27 28 28 29 28 28 30 31 29 27 28 28 26 25 28

GFSSW_850_temp_012.txt.gz
Temp
18 18 18 19 19 19 19 20 20 20 21 21 22 22 22 23 23 24 24 24 26 26 27 24 23 24 25 27 27 28 32 32 32 31 31 29 29 27 26 25 25 25 25 23 21
17 18 18 18 19 19 19 20 20 20 21 21 22 22 22 23 23 24 24 26 26 26 25 24 25 25 27 29 29 31 32 32 33 33 32 30 30 28 27 26 26 24 24 22 20
17 17 17 18 18 19 19 20 20 20 21 21 21 22 22 22 23 26 25 26 25 25 25 25 27 27 29 30 31 32 32 33 32 32 32 30 29 28 29 28 27 25 23 22 21
17 17 17 17 18 18 19 19 20 20 21 21 21 21 22 22 26 25 25 25 25 25 24 26 27 28 30 32 32 32 33 32 33 31 31 31 30 29 28 29 27 26 23 22 21
16 16 17 17 18 18 18 19 20 20 21 21 21 21 21 21 24 25 25 25 25 24 24 26 27 29 31 33 32 32 33 33 32 31 31 31 30 30 28 27 27 25 23 23 22
15 16 16 17 18 18 18 19 20 20 21 21 21 21 21 23 25 25 25 25 23 23 25 26 28 29 31 32 33 33 33 33 32 31 31 31 30 29 28 27 26 24 24 23 23
15 15 16 17 18 18 19 19 20 20 21 21 22 21 20 23 24 24 24 23 23 24 26 26 28 29 30 32 32 32 32 31 32 31 31 31 29 29 29 26 26 25 24 24 23
14 15 16 16 17 18 19 19 20 21 21 21 21 21 21 23 24 24 23 23 24 23 25 26 27 28 30 32 32 32 33 32 32 31 30 31 31 30 28 27 26 25 24 24 23
14 15 16 16 17 18 19 20 21 21 21 21 20 19 24 23 23 24 24 25 24 24 24 26 26 28 30 31 32 33 32 33 31 31 30 31 32 31 28 28 27 26 25 24 23
13 14 15 16 16 18 19 20 21 20 19 18 17 18 23 26 24 24 24 25 25 25 25 26 27 30 31 32 31 32 32 33 33 31 31 31 32 31 28 29 28 26 25 25 24
13 13 15 16 16 17 19 19 18 18 16 23 25 25 25 25 24 25 24 25 26 26 28 28 29 29 31 33 33 34 33 33 34 33 32 32 32 31 29 28 29 27 26 26 25
13 13 14 15 16 17 17 17 17 17 19 22 22 23 23 24 24 26 25 26 27 28 29 29 28 31 32 33 33 33 33 33 34 32 32 33 32 32 31 29 29 28 27 26 26
13 13 14 15 16 17 17 15 16 16 19 24 23 23 23 23 24 25 25 26 28 28 29 29 30 31 31 32 32 33 33 33 33 32 32 33 31 32 32 30 29 28 28 27 26
12 12 12 15 15 16 15 15 16 16 22 27 25 24 22 24 25 24 26 26 28 29 29 29 32 30 30 30 32 32 34 34 33 32 31 32 31 33 33 32 30 28 28 28 27
11 12 12 12 13 14 14 16 16 15 23 27 26 24 24 25 27 26 26 27 28 29 29 29 29 29 29 30 32 32 34 33 33 33 32 32 31 33 33 32 32 31 29 28 28
10 11 12 12 13 15 15 16 15 21 23 27 26 26 26 26 27 25 25 26 28 29 29 30 30 30 30 32 32 33 33 33 33 33 31 32 32 32 33 32 34 33 31 29 28
10 11 11 12 12 14 15 15 21 23 25 26 27 27 28 28 27 27 26 27 27 26 27 28 29 30 31 31 32 32 32 30 29 30 30 33 32 32 34 35 35 35 33 30 29
10 11 12 13 14 14 13 19 20 25 25 26 27 27 27 28 28 28 27 27 28 28 29 27 27 29 30 31 31 31 32 31 28 30 31 32 30 33 34 34 34 34 34 31 29
9 11 11 12 12 13 14 19 22 24 26 26 27 26 27 28 27 28 28 28 29 29 28 28 28 31 31 31 32 31 31 33 32 33 32 33 32 33 34 34 34 34 33 32 30
7 7 9 9 11 10 16 18 23 24 25 25 25 27 27 28 27 27 28 29 29 30 30 29 27 30 30 31 32 32 32 31 32 30 29 31 32 32 33 34 35 34 33 33 31
6 8 10 11 8 12 17 20 22 23 23 24 25 26 26 27 27 28 28 29 29 30 29 30 28 29 30 29 30 31 30 31 32 32 30 30 32 34 33 34 35 36 34 34 32
5 12 8 8 13 16 18 20 19 22 22 23 24 25 26 26 26 26 27 28 28 29 28 29 29 27 29 31 32 32 31 31 30 29 31 32 32 36 35 35 35 35 36 35 33
6 9 9 8 13 17 18 18 19 20 22 23 23 24 25 25 24 26 27 27 27 28 28 30 28 27 28 30 30 30 31 31 32 32 31 30 31 35 35 34 34 33 34 33 31
5 11 12 10 12 13 15 15 16 18 20 22 23 24 24 24 25 24 25 27 26 27 26 26 29 27 28 28 30 29 29 31 31 32 30 31 32 33 34 34 34 35 34 33 30
5 11 8 12 13 12 12 13 14 16 18 20 21 22 23 23 23 24 25 26 26 25 26 27 26 28 29 30 30 30 30 30 30 30 30 31 32 33 33 34 34 34 34 33 29
4 7 6 7 8 10 11 12 14 15 17 17 19 21 22 22 23 23 24 24 25 27 27 27 25 27 27 29 29 29 30 30 30 30 30 31 31 34 34 33 33 34 34 33 30
3 3 3 7 9 10 12 13 12 13 14 16 17 17 18 21 21 22 23 24 25 25 25 25 26 26 25 29 29 28 29 30 31 31 31 30 31 33 34 33 34 34 33 33 31

GFSSW_850_temp_015.txt.gz
Temp
17 18 18 18 19 19 19 20 20 21 21 21 21 22 22 22 23 24 24 26 26 27 27 25 26 27 28 30 31 32 29 33 34 32 33 32 32 31 30 29 29 29 27 25 23
17 17 18 18 18 18 19 19 20 20 21 21 21 22 22 22 23 23 26 26 26 26 26 27 27 28 29 31 32 33 20 30 36 35 34 33 33 31 30 29 29 28 27 24 23
17 17 17 18 18 18 19 19 19 20 20 21 21 22 22 22 22 27 25 26 26 26 26 28 29 29 31 32 33 34 28 31 35 34 34 33 33 31 31 30 29 28 26 24 24
16 16 17 17 18 18 19 19 20 20 20 21 21 21 22 22 27 26 26 25 25 25 25 28 29 30 32 33 33 34 35 35 35 34 34 34 33 32 32 32 30 28 26 25 24
15 15 16 17 18 18 18 19 19 20 20 20 21 21 21 22 25 26 26 25 25 24 25 28 29 31 32 34 34 35 35 35 35 34 34 34 33 33 32 31 29 28 26 25 25
15 16 16 17 17 18 18 19 20 20 21 21 21 21 21 24 26 25 25 24 24 24 26 28 30 31 32 34 35 35 35 35 35 35 34 34 33 32 31 30 29 28 27 26 26
15 16 16 16 17 18 18 19 20 21 21 21 21 20 20 24 26 26 25 25 26 26 27 28 29 31 32 34 34 34 34 35 35 35 34 34 33 32 32 30 29 28 27 27 26
14 15 16 16 17 17 18 19 20 21 21 22 21 20 22 26 26 26 25 26 26 27 27 29 29 30 32 33 34 35 35 34 35 35 34 33 32 33 32 30 30 29 28 27 27
13 14 15 16 17 18 18 19 20 21 21 21 20 19 24 26 25 26 26 26 27 27 27 28 29 30 31 33 33 34 33 34 34 35 34 33 23 34 32 31 31 30 29 28 27
12 13 14 16 16 17 19 20 21 21 19 19 17 21 24 27 27 27 27 27 28 27 27 27 29 31 32 33 32 33 34 35 34 35 34 33 32 34 32 32 31 30 29 28 27
11 13 14 15 16 17 19 19 19 18 17 24 26 27 28 28 27 27 27 27 28 28 29 29 30 30 32 33 34 35 35 35 36 36 34 34 34 34 33 32 32 31 30 29 28
11 12 14 15 16 17 17 19 19 17 21 23 25 26 27 28 28 28 27 28 29 29 30 31 30 33 33 34 34 35 35 35 36 35 35 34 34 35 34 33 32 32 30 30 29
11 11 13 15 16 16 16 18 17 18 22 25 26 27 27 27 28 28 28 28 30 30 31 31 32 33 33 34 34 34 35 35 36 35 35 35 34 35 35 33 32 32 31 30 30
10 10 11 14 15 16 18 17 17 17 23 29 28 28 27 28 28 27 28 29 30 30 31 32 34 33 33 33 34 33 35 36 36 33 32 35 33 34 35 35 34 32 32 31 30
10 11 10 11 13 14 17 16 16 18 24 31 29 28 28 28 30 29 28 29 30 31 31 31 32 33 32 33 34 34 36 35 36 35 33 34 34 35 36 35 35 35 33 32 31
9 10 10 11 10 13 14 15 17 22 24 30 29 28 29 29 30 29 28 28 29 31 32 32 33 33 34 34 34 35 35 35 35 35 33 34 34 34 33 36 36 36 34 33 32
9 10 11 10 13 14 14 16 22 23 29 30 30 30 30 30 30 30 29 29 29 28 29 31 32 33 34 33 34 33 33 32 32 33 32 35 34 33 37 37 36 37 36 34 32
9 10 12 10 11 12 13 19 21 26 27 31 31 31 30 32 31 31 30 29 30 31 31 30 30 32 33 32 32 33 34 32 30 32 33 35 34 35 37 37 37 36 36 36 33
9 9 11 13 11 11 15 19 22 25 29 30 30 30 30 31 32 31 30 30 31 31 30 31 30 33 33 33 33 33 33 35 34 34 34 35 35 37 37 37 37 36 36 36 34
6 8 13 13 11 11 16 18 23 26 29 29 28 30 30 30 30 30 31 31 31 32 32 31 30 33 33 33 33 33 35 33 35 31 31 34 34 34 35 35 36 36 36 36 35
7 12 13 12 11 12 16 19 21 22 25 27 27 28 30 30 31 30 30 32 32 32 32 32 31 31 33 32 31 32 33 34 34 34 32 32 34 37 36 35 35 36 36 36 35
7 13 13 11 14 16 17 19 20 23 24 25 26 27 28 30 30 31 30 31 33 33 31 32 31 30 31 33 33 33 32 33 34 31 33 34 34 38 37 36 36 36 36 36 36
8 11 13 13 14 17 18 19 21 22 23 24 25 26 27 28 28 29 30 32 30 31 31 32 30 29 30 32 33 32 32 33 34 34 33 33 33 37 37 37 36 36 35 36 35
6 12 14 13 14 16 17 18 19 20 22 22 23 25 25 25 27 27 29 30 30 30 26 29 31 29 30 30 32 31 31 32 33 33 32 33 33 35 36 36 36 35 35 35 35
6 11 12 13 15 14 12 14 14 13 17 20 21 23 24 24 25 26 27 29 29 29 28 29 28 30 31 31 32 32 32 32 32 32 32 33 33 34 35 36 36 35 35 35 35
4 8 8 10 11 12 12 13 14 15 15 14 16 21 23 23 24 25 27 27 28 29 28 29 27 29 29 31 31 31 32 32 32 32 32 33 33 36 36 36 35 35 35 34 34
4 4 5 8 11 12 12 11 13 15 14 13 13 12 16 20 19 20 23 27 28 28 28 28 28 27 27 29 30 29 31 32 32 33 32 31 32 34 34 35 35 35 35 34 34

GFSSW_850_temp_021.txt.gz
Temp
17 17 17 18 18 18 19 19 19 20 20 21 21 21 21 21 22 22 23 25 25 26 26 26 26 26 25 24 23 22 20 22 26 27 30 31 29 29 28 25 24 25 22 22 21
17 17 17 18 18 18 19 19 19 20 20 20 21 21 21 21 22 23 27 26 25 25 25 26 26 26 26 27 24 22 22 27 29 27 30 31 29 28 29 26 24 24 23 22 21
16 16 17 17 18 18 18 19 19 19 20 20 21 21 21 21 21 25 27 27 26 26 25 26 27 28 28 29 28 27 25 28 28 31 31 32 31 31 29 26 26 25 23 22 22
16 16 16 17 17 17 18 19 19 19 20 20 20 21 20 21 21 26 26 27 26 26 25 26 26 27 28 28 31 28 30 31 33 31 32 31 32 30 30 28 26 25 25 23 22
15 15 16 16 17 18 18 18 19 19 20 20 20 21 20 20 23 25 25 26 26 26 26 25 26 27 27 29 31 30 31 32 33 32 32 32 31 30 30 28 26 26 25 24 23
15 15 15 16 17 17 18 19 19 20 20 20 20 20 19 17 27 25 26 25 26 26 26 25 27 28 30 30 30 32 33 34 34 32 31 30 31 31 29 27 26 25 25 26 25
14 15 15 15 16 17 18 19 19 20 20 20 20 20 18 23 27 26 26 26 26 26 26 26 27 28 30 29 31 32 31 32 34 35 31 30 26 30 30 28 26 25 25 25 26
13 14 15 16 16 17 18 19 20 20 20 20 20 19 19 26 27 26 25 26 26 26 26 27 28 28 29 30 31 30 29 28 32 33 32 27 23 29 30 28 27 26 25 25 25
12 13 14 15 16 17 19 20 20 21 20 20 19 19 19 25 25 27 26 27 27 27 27 28 28 29 29 27 25 27 26 28 30 33 32 28 25 31 31 29 28 27 26 26 26
12 12 13 14 16 17 19 20 21 20 19 18 17 16 23 26 27 27 27 27 28 28 28 28 29 25 26 25 24 25 27 29 30 32 29 27 27 30 31 29 28 27 27 26 26
10 11 12 14 15 16 19 20 20 20 17 19 20 22 25 26 28 28 28 27 28 28 25 28 24 25 25 27 28 29 29 29 32 33 27 27 28 28 30 28 28 28 28 27 27
10 10 12 14 15 17 16 17 19 19 19 20 21 21 23 25 25 28 28 28 27 25 26 25 25 26 29 29 29 29 29 29 31 33 28 26 27 27 27 28 27 29 28 28 27
10 10 11 13 15 16 17 19 19 19 19 20 22 22 23 25 24 28 29 28 27 26 27 25 27 29 29 29 29 29 28 29 30 32 30 26 26 24 27 30 29 30 29 28 28
10 10 11 12 15 16 18 17 19 18 16 21 25 25 24 24 26 27 29 29 28 27 27 27 29 29 28 28 29 27 30 31 31 31 28 29 26 24 27 29 29 30 30 29 28
9 10 10 10 11 15 16 17 18 18 17 28 28 29 27 25 28 27 29 29 27 27 27 27 28 28 28 29 30 29 31 31 31 30 29 30 28 26 27 28 29 30 30 30 29
10 10 10 12 11 14 15 17 17 17 18 26 31 28 26 26 27 30 28 29 30 28 28 28 31 29 29 31 31 31 30 30 30 30 28 28 29 26 28 29 30 31 31 31 30
9 10 11 10 14 13 14 16 16 17 25 28 29 29 28 27 27 27 28 27 26 25 25 28 28 30 31 29 30 30 27 27 26 27 26 27 28 26 30 31 31 32 32 32 31
7 10 12 13 13 13 14 14 14 21 22 26 27 28 28 29 28 28 28 27 27 26 25 25 25 29 30 30 28 29 28 27 23 26 27 27 28 29 32 33 33 33 33 33 33
6 9 12 15 13 12 11 12 17 20 22 22 22 24 27 29 29 28 28 27 28 28 25 25 25 30 31 31 30 28 28 29 26 26 25 28 29 31 31 33 32 32 33 32 33
5 7 13 14 13 12 12 12 16 19 19 18 17 21 21 21 22 28 27 29 28 29 28 26 24 28 31 31 31 30 30 27 28 25 26 28 27 28 29 31 29 29 30 32 33
5 7 14 14 14 14 12 13 15 17 18 18 18 19 19 20 22 22 24 30 30 30 29 28 26 27 29 29 29 28 28 27 27 27 26 25 28 29 29 30 30 31 32 34 33
4 7 14 11 11 14 13 15 15 16 18 18 19 18 18 19 19 21 23 25 30 31 29 28 26 25 27 29 31 30 28 26 26 23 24 26 27 30 31 31 32 32 33 35 34
3 5 11 10 10 12 14 15 17 17 17 17 18 19 20 19 18 20 22 25 27 27 29 29 27 24 26 27 29 30 30 28 28 24 23 23 27 31 32 31 34 32 33 35 35
3 6 9 10 12 12 12 11 10 12 13 15 15 15 15 17 19 18 19 23 26 27 27 25 29 27 26 26 27 27 29 29 28 26 27 27 27 28 31 29 31 34 35 35 34
3 5 7 6 8 8 10 7 10 11 12 11 12 11 10 11 13 15 15 14 16 19 24 24 25 28 28 28 29 29 29 30 28 28 26 27 27 27 28 27 27 34 35 34 35
2 4 4 4 6 8 9 11 12 11 11 10 9 10 9 9 10 9 11 11 12 15 14 17 21 25 27 29 29 29 30 30 30 30 29 28 28 28 28 32 29 31 32 35 35
3 3 2 3 6 7 8 9 9 9 9 9 11 10 9 11 11 10 11 12 12 13 14 16 18 22 23 26 27 27 29 29 29 30 29 28 29 28 28 29 30 31 32 34 34

GFSSW_850_temp_027.txt.gz
Temp
15 15 15 16 16 17 17 17 18 18 18 19 19 20 20 21 21 21 22 25 24 23 22 22 20 20 19 18 19 20 19 20 22 23 24 24 23 23 23 21 22 21 21 20 19
14 15 15 15 16 16 17 17 18 18 18 19 19 19 20 20 21 23 26 25 24 24 23 22 20 19 18 20 20 19 18 22 25 26 24 24 24 23 22 22 21 21 21 20 18
14 15 15 15 15 16 16 17 18 18 18 18 19 19 20 20 21 25 25 25 25 24 23 23 21 19 20 20 21 21 21 24 26 28 26 25 24 24 22 21 21 20 20 19 18
13 14 14 15 15 15 16 16 17 18 18 18 19 19 19 19 20 25 25 26 25 24 23 23 21 21 21 21 22 21 22 24 26 27 28 25 25 24 23 23 23 24 22 20 18
12 12 13 14 14 15 16 16 17 17 18 18 19 19 19 19 22 25 25 25 25 23 23 23 22 21 22 22 23 22 24 26 26 26 28 26 25 24 23 24 23 22 20 19 19
12 12 13 14 14 15 16 16 17 18 18 18 19 19 18 15 25 25 25 24 24 24 23 23 23 23 24 24 23 25 25 26 27 27 28 26 25 25 23 24 21 21 20 20 20
11 12 12 13 14 15 17 18 18 18 19 19 19 18 18 22 25 25 25 24 24 24 24 24 25 25 25 23 26 27 25 25 26 28 26 27 25 24 25 23 21 20 20 20 20
10 11 12 13 13 14 17 19 18 20 20 20 19 17 17 23 24 24 24 24 24 23 24 25 25 25 24 25 25 26 25 25 27 27 27 27 24 25 24 22 21 21 20 20 21
11 11 12 13 13 14 17 18 19 19 19 19 18 17 18 21 23 25 25 26 26 24 24 24 23 23 24 22 21 21 23 24 26 27 26 26 23 24 24 23 22 21 21 21 20
10 11 12 12 13 14 17 18 17 17 17 16 15 15 21 23 23 24 25 25 25 25 22 22 23 19 18 19 20 22 23 24 25 27 27 24 23 24 24 23 22 22 21 21 21
10 11 11 13 13 14 16 17 16 16 14 17 18 18 21 22 23 24 25 25 24 23 20 22 20 18 20 20 22 24 24 24 25 27 26 24 23 24 24 24 23 22 22 21 21
10 11 11 13 13 14 14 13 11 10 9 17 20 18 22 21 20 24 24 24 22 20 21 20 21 21 22 21 22 23 23 23 24 26 25 24 24 25 24 24 24 23 23 22 22
10 10 11 13 14 14 14 13 13 12 10 16 19 19 19 20 18 23 23 24 21 20 20 21 21 22 23 23 22 22 22 24 24 26 26 24 24 23 24 25 24 24 24 24 23
9 10 10 12 13 14 13 13 14 14 11 16 18 19 19 20 17 22 24 25 22 22 21 20 22 23 22 23 22 20 23 25 26 25 23 24 21 22 24 24 24 24 24 24 24
8 10 10 10 10 12 12 14 15 15 15 22 21 21 20 21 23 20 24 24 22 22 21 21 22 23 22 24 22 24 25 24 25 24 24 24 23 22 23 23 23 24 24 24 24
7 9 9 10 10 12 12 14 15 14 14 20 22 20 20 21 22 22 22 25 25 23 22 23 24 24 23 24 25 25 25 24 23 20 20 24 23 24 22 24 25 25 25 25 24
7 8 9 9 10 10 11 12 12 12 18 20 17 17 19 21 22 23 22 21 21 21 21 22 23 24 24 23 23 23 20 19 20 20 22 23 21 26 24 26 27 26 26 26 25
6 8 10 8 9 10 11 9 11 16 16 16 16 16 20 17 21 20 23 22 23 22 21 20 20 23 23 23 23 21 21 16 19 19 22 21 21 24 27 28 27 28 28 27 26
5 8 9 7 7 8 8 7 10 13 15 14 15 16 15 15 16 16 16 23 23 21 22 19 21 24 25 25 25 22 21 22 20 20 19 20 22 24 26 25 25 27 28 27 27
4 8 8 8 7 8 5 6 9 14 14 14 13 14 12 14 15 14 15 19 20 22 22 20 21 21 24 25 24 24 21 23 15 21 21 20 21 23 24 26 24 25 27 28 27
4 5 8 7 7 7 4 5 10 13 14 13 12 12 13 13 14 14 15 17 16 17 18 19 19 22 23 22 23 22 22 21 19 18 22 20 23 24 24 24 24 24 27 29 28
3 0 7 7 5 3 3 6 11 11 12 12 13 12 12 12 12 14 15 15 14 14 14 15 15 21 23 22 25 24 24 20 20 20 20 24 23 27 25 25 23 25 29 31 29
2 2 6 6 2 3 5 8 9 9 9 10 11 10 10 11 12 12 12 13 12 13 12 12 12 17 20 22 22 22 23 24 22 19 23 22 22 23 24 25 27 27 31 30 29
2 0 4 5 4 4 3 5 6 7 9 9 10 9 8 8 9 10 11 12 12 13 13 11 10 14 17 20 21 21 23 23 23 23 24 24 24 25 24 23 24 27 30 30 30
2 2 1 1 2 1 3 4 5 5 6 7 8 8 8 7 7 9 10 9 11 11 10 9 9 12 15 16 18 20 22 25 22 24 24 25 21 23 22 22 23 30 30 29 30
2 1 1 1 3 1 2 5 4 6 5 6 5 7 7 7 8 7 8 8 8 9 9 7 10 10 13 18 19 21 23 24 25 25 24 24 22 22 25 26 25 29 32 29 31
2 2 1 2 2 2 3 4 4 5 6 4 5 6 6 7 7 7 7 8 8 8 7 8 9 9 11 14 16 19 22 24 25 25 25 24 24 22 23 22 23 28 29 30 32

GFSSW_850_temp_030.txt.gz
Temp
14 14 15 15 15 16 17 17 17 17 18 19 19 19 20 20 21 21 22 24 24 23 22 22 20 19 18 18 19 19 17 18 21 22 24 23 22 22 22 20 21 21 20 19 18
12 13 14 14 15 15 16 16 17 17 18 18 18 19 19 20 21 22 25 24 23 23 22 21 19 18 18 18 19 18 17 20 23 24 23 23 23 22 21 21 21 20 20 19 18
12 12 12 13 14 15 15 16 16 17 17 18 18 18 19 19 20 25 24 24 24 23 23 21 19 18 18 19 19 19 19 21 25 25 24 23 23 23 21 20 21 19 20 18 18
11 11 11 12 13 14 14 15 16 17 17 17 18 18 18 18 20 24 25 25 25 23 22 21 18 19 18 19 20 19 21 23 24 27 24 23 24 23 22 23 23 21 21 19 18
10 11 11 11 12 13 13 14 16 17 17 18 18 18 18 17 21 24 24 24 24 22 22 21 18 19 19 20 21 20 23 24 25 25 26 25 24 24 22 24 23 21 20 19 18
11 11 12 12 13 13 13 14 15 16 17 18 18 17 17 14 23 23 24 24 24 21 21 22 20 20 22 22 21 23 23 24 25 25 26 24 24 24 24 23 22 20 19 19 19
10 11 12 12 13 13 14 15 15 17 18 18 18 17 16 21 23 23 23 24 23 23 22 22 23 22 23 22 24 24 23 24 24 25 24 26 23 23 24 23 20 19 19 18 19
11 11 11 12 13 13 15 16 17 18 19 19 19 17 17 22 22 22 22 23 22 23 23 24 23 22 23 24 23 23 23 23 25 25 26 25 23 24 24 22 20 19 19 19 19
11 11 12 13 13 14 14 16 17 18 18 18 17 17 18 21 22 24 22 23 23 22 22 22 22 22 22 21 19 20 21 22 24 26 25 24 23 24 24 22 20 20 19 19 19
11 11 12 13 13 14 14 15 15 15 15 15 13 14 20 22 22 23 23 22 21 22 20 21 22 18 16 17 19 20 21 23 24 27 24 23 23 23 22 22 21 20 20 19 19
10 11 12 13 13 13 15 15 14 13 13 15 16 17 20 22 22 22 22 22 22 21 17 20 18 18 18 19 21 21 22 24 24 26 25 24 23 21 22 22 22 21 20 20 21
10 10 11 13 13 13 13 12 9 7 7 16 18 17 19 19 20 22 22 21 21 18 18 17 19 19 20 19 21 21 22 21 23 24 25 25 24 22 22 22 22 21 21 20 21
10 9 10 12 13 13 12 11 10 10 7 14 16 16 17 19 17 21 21 22 19 18 19 20 19 20 21 20 20 20 21 22 23 25 24 23 22 22 22 23 23 22 21 21 21
9 9 9 10 12 12 12 12 12 12 9 14 16 17 18 19 16 21 22 23 21 21 18 19 21 22 20 21 20 17 20 23 23 22 22 23 20 21 21 22 23 23 22 22 22
9 8 8 8 9 11 11 12 12 12 14 20 17 19 19 20 21 19 23 23 20 19 19 20 20 21 21 22 21 22 23 22 23 22 22 22 21 21 21 21 22 23 23 22 23
8 9 7 8 9 9 11 13 12 12 13 19 19 19 18 19 20 20 21 23 24 21 22 21 22 22 21 22 22 22 23 20 18 18 19 21 21 20 19 23 23 24 23 23 23
8 8 7 7 7 8 9 12 11 11 16 16 15 15 16 18 20 19 19 20 20 19 19 21 22 22 22 22 21 22 19 18 19 19 20 20 20 25 22 23 24 24 24 24 23
8 8 7 6 8 8 9 8 10 14 14 14 15 14 16 14 16 16 18 20 20 21 19 19 19 22 21 22 21 19 18 15 18 17 20 18 20 22 24 25 25 26 26 25 24
7 8 7 7 7 8 7 7 9 11 13 13 13 13 13 14 15 16 15 20 21 20 20 18 19 22 23 22 23 19 20 19 18 18 17 18 20 24 24 23 24 25 26 26 25
5 6 7 7 7 8 4 5 7 11 12 12 11 12 11 12 13 13 14 13 14 16 16 20 19 20 23 23 22 21 19 20 14 19 18 18 20 22 22 24 23 22 25 27 27
4 4 6 7 6 6 3 3 7 9 11 10 11 11 11 11 12 13 14 12 13 14 14 13 18 21 20 21 23 20 20 18 19 16 18 18 20 19 23 22 25 25 26 28 29
2 0 6 6 3 2 3 5 7 7 9 9 10 11 11 11 11 12 12 11 13 12 11 12 12 18 20 22 23 24 22 18 19 18 15 17 21 23 22 24 22 25 28 28 30
2 2 5 5 0 0 3 5 7 6 6 8 9 9 9 9 10 10 11 12 12 12 11 12 11 15 19 21 22 21 22 20 22 17 20 20 22 26 23 23 27 26 29 28 30
2 -0 3 3 2 2 1 2 5 7 6 6 7 8 7 7 8 8 9 11 11 12 13 11 9 12 15 16 16 17 21 20 21 22 22 22 22 23 23 23 23 26 29 31 31
2 1 2 -0 1 3 1 2 5 4 5 4 6 6 6 6 7 7 8 8 10 10 9 9 11 12 13 13 15 16 17 19 19 22 22 24 23 22 22 20 23 31 29 29 30
2 2 1 1 2 3 3 2 3 4 4 5 4 4 5 5 6 6 5 7 7 8 8 6 10 10 11 14 15 15 17 19 20 20 20 22 21 21 23 26 24 27 28 29 31
2 2 1 2 2 2 2 3 3 3 4 4 4 3 5 6 6 6 6 7 7 7 6 7 8 9 10 12 13 15 19 19 20 21 21 21 22 23 21 21 22 26 29 30 31

GFSSW_850_temp_033.txt.gz
Temp
13 14 14 14 15 15 15 16 17 17 18 18 18 19 19 20 20 20 22 24 23 22 22 22 19 18 18 18 18 19 24 24 25 25 26 24 24 22 22 21 21 20 19 19 16
12 13 13 14 14 14 15 15 16 16 17 18 18 18 19 19 20 22 25 23 23 22 22 21 18 18 19 19 19 21 23 25 26 27 28 25 25 23 23 22 22 20 18 18 16
11 12 12 13 13 14 15 14 15 16 16 17 18 18 18 19 20 24 24 24 24 23 22 19 18 19 20 19 20 21 24 25 27 26 26 25 25 24 23 23 23 20 18 17 16
11 11 12 12 12 13 14 14 15 15 16 16 17 17 17 18 22 24 24 24 24 23 21 18 18 20 21 20 21 22 23 24 25 26 25 26 25 24 24 24 23 20 19 17 17
11 11 12 12 12 13 13 14 15 16 16 16 17 17 16 17 20 24 23 23 22 20 20 19 19 21 22 21 21 22 24 24 25 25 26 25 26 26 24 24 23 20 19 18 18
11 11 12 12 13 13 14 14 15 16 17 17 17 17 15 16 22 23 24 23 23 19 19 19 20 20 22 22 23 24 24 25 26 26 26 26 27 25 26 24 21 20 19 19 18
11 11 12 12 13 14 14 14 16 17 18 18 17 16 15 20 22 22 22 23 24 22 19 20 21 21 22 23 23 24 25 27 27 27 27 27 26 25 25 23 21 20 19 19 18
11 11 12 13 13 14 14 14 16 17 18 18 18 16 16 21 20 21 22 21 21 20 19 20 22 22 22 23 24 26 26 27 28 27 28 28 29 28 25 23 22 21 20 19 19
10 11 12 13 13 14 14 15 14 15 17 17 16 16 17 20 20 21 21 22 21 19 19 20 20 22 22 24 24 25 26 26 27 29 28 28 29 28 25 24 23 21 21 20 19
10 10 12 12 13 14 15 15 14 14 13 14 13 13 18 20 21 21 20 21 18 18 19 20 21 22 23 24 24 24 24 26 27 29 28 28 28 27 25 24 24 22 21 20 20
9 9 10 12 12 12 14 14 13 11 12 13 14 15 18 20 20 20 21 19 20 19 21 21 22 22 23 23 24 25 26 27 27 28 28 29 29 28 25 25 24 23 22 21 21
9 9 10 11 12 12 12 11 8 7 8 15 17 15 18 17 19 19 21 20 20 21 22 20 21 24 24 22 23 24 25 26 26 27 27 28 28 28 26 25 25 23 23 22 22
8 9 9 11 12 12 11 9 8 8 8 13 14 14 16 18 17 20 19 22 22 22 21 23 24 24 22 22 23 24 25 26 26 27 27 27 28 27 26 25 25 24 24 23 23
8 8 8 11 11 10 9 8 9 9 13 17 16 16 16 18 18 19 20 22 23 22 23 24 25 23 23 23 23 24 25 25 25 25 26 28 27 26 27 26 25 25 23 24 23
8 7 8 9 8 8 8 10 10 9 18 20 18 17 17 20 20 19 21 22 24 24 23 23 23 22 22 23 24 24 25 25 26 26 26 27 26 29 25 26 26 26 25 24 24
8 7 7 8 8 7 9 10 10 14 16 20 19 19 18 19 20 19 20 22 23 23 24 25 23 24 24 24 24 25 24 25 25 26 24 26 26 28 28 28 28 27 26 24 24
8 8 7 7 7 8 9 10 14 14 18 17 17 17 17 19 21 20 21 22 23 22 22 24 23 24 25 24 24 25 25 24 24 24 24 28 26 27 29 29 30 29 26 25 24
8 8 7 7 8 8 9 12 12 15 14 15 16 16 18 17 19 19 21 21 24 25 24 23 22 24 25 25 24 24 25 25 24 26 27 25 26 28 29 30 29 29 29 27 25
7 8 6 6 8 8 8 11 12 11 10 11 14 16 16 16 16 17 20 22 23 24 24 24 24 24 25 26 26 24 24 27 25 22 24 27 28 28 28 29 30 29 29 27 27
6 7 6 7 7 7 9 8 9 9 10 12 12 13 14 15 16 17 18 15 19 19 18 23 23 25 25 26 26 25 26 23 25 23 24 26 25 28 28 29 29 29 29 28 28
5 5 5 7 7 7 7 7 7 8 9 11 11 12 13 13 14 15 14 14 14 16 17 19 22 23 25 25 25 23 24 25 26 25 26 26 28 27 28 28 30 30 30 29 28
4 6 5 6 7 5 6 6 7 8 8 9 11 11 12 12 14 14 13 13 13 14 16 16 21 23 23 26 27 26 25 25 25 23 25 27 27 28 29 30 28 30 29 29 28
2 2 5 5 4 5 5 5 7 8 7 7 8 10 11 11 12 12 13 13 13 14 14 15 18 22 23 24 24 25 26 26 27 27 24 25 27 30 27 27 28 28 28 29 29
2 5 4 3 2 3 3 5 6 6 7 5 6 8 9 10 11 11 12 12 12 13 12 14 16 19 23 23 20 21 23 25 26 26 25 25 27 28 28 27 28 28 28 29 28
2 3 2 4 5 4 4 4 5 6 6 6 4 4 5 8 10 10 10 11 12 11 13 14 15 15 16 17 18 18 20 21 22 25 25 26 27 27 27 28 28 29 28 28 28
2 3 1 1 2 4 5 5 4 5 5 6 4 4 3 5 7 7 8 10 10 11 12 13 14 14 15 17 18 18 19 20 21 22 22 24 25 28 26 27 27 28 28 29 27
1 1 1 2 2 2 5 5 5 5 5 5 3 4 5 4 6 7 7 8 9 9 10 11 13 14 15 16 17 18 20 21 21 22 23 23 25 26 26 27 26 26 27 28 28

GFSSW_850_temp_036.txt.gz
Temp
13 13 13 13 14 14 15 15 16 16 16 17 18 18 18 19 19 20 21 23 23 23 22 19 20 20 21 22 22 23 28 30 30 30 30 28 29 26 25 24 24 24 24 20 19
12 12 13 13 13 14 14 15 15 15 15 16 17 18 18 18 19 20 24 23 22 22 20 20 21 21 22 24 24 26 29 31 31 31 31 30 29 27 27 25 25 24 23 20 19
12 12 12 13 13 13 14 14 15 15 15 15 16 17 18 18 18 23 23 24 23 23 22 21 22 22 25 25 25 27 29 30 30 29 30 30 29 28 28 27 26 24 22 20 20
12 12 12 13 13 13 14 14 15 15 15 16 16 16 17 17 24 22 23 23 23 21 22 22 22 24 26 26 26 27 28 29 30 29 29 30 29 29 28 28 27 24 22 21 20
11 12 12 13 13 14 14 15 16 16 16 16 16 16 16 16 20 22 23 23 22 20 22 22 23 25 27 27 27 27 29 28 29 29 29 29 29 30 29 27 26 24 22 21 21
11 11 12 13 13 14 14 15 15 16 17 17 17 17 15 18 21 22 22 23 22 21 22 23 24 25 27 27 27 28 28 29 29 30 30 30 30 29 29 27 25 24 22 22 22
11 11 12 13 13 14 15 16 16 16 17 17 17 16 14 19 20 21 20 20 20 21 23 23 24 25 26 27 27 28 28 30 30 30 31 30 31 31 30 27 26 24 23 23 22
11 12 12 12 13 14 15 15 16 16 17 17 17 15 16 19 20 20 20 20 21 21 23 24 23 24 26 27 27 28 30 30 32 32 31 31 31 32 30 28 26 26 24 23 22
11 12 12 12 13 14 14 15 15 15 15 17 15 13 20 19 19 20 20 20 21 21 22 23 23 24 26 26 28 29 30 30 31 32 32 31 32 32 31 28 28 26 25 24 23
10 11 12 13 13 13 14 14 13 12 12 12 10 13 17 21 20 20 20 21 21 21 21 21 23 26 27 27 27 29 29 31 31 32 32 32 32 33 31 29 28 27 26 25 24
10 11 11 12 13 13 14 11 13 13 13 17 19 20 20 20 19 20 20 21 21 21 24 24 25 25 27 28 29 30 30 30 32 32 31 32 32 33 31 30 29 27 26 25 25
9 10 11 12 12 12 12 11 7 6 10 14 15 17 18 18 21 21 21 22 23 23 26 25 25 27 28 28 28 28 28 30 31 32 31 32 32 33 32 30 29 28 27 26 26
8 9 11 11 11 10 8 8 6 7 12 17 17 18 18 18 21 22 21 24 25 25 25 26 27 28 27 27 27 27 28 29 30 31 31 31 31 32 32 31 30 29 28 27 27
8 9 10 11 10 8 9 8 7 7 15 23 19 19 19 20 22 22 22 24 25 26 26 27 29 27 27 27 27 27 29 29 29 30 29 32 30 33 33 32 32 31 29 28 26
8 9 10 9 8 8 7 7 7 8 20 23 21 19 20 22 26 23 22 24 26 26 27 26 27 27 27 27 28 28 30 29 29 29 29 30 30 32 33 32 32 32 30 29 28
8 8 9 7 7 8 7 9 8 15 19 23 21 21 21 21 24 24 22 23 25 27 27 28 28 29 28 28 28 29 28 28 28 29 28 30 31 31 33 32 33 33 31 30 28
8 8 8 8 8 7 8 9 15 18 22 20 20 21 22 23 23 24 24 23 25 24 25 27 28 28 28 27 28 28 27 27 27 28 28 31 31 31 33 34 33 34 33 31 28
8 8 7 7 7 8 8 14 14 19 16 17 17 19 20 23 23 24 24 24 25 26 28 25 25 27 29 28 27 27 28 29 26 29 30 30 30 32 34 33 33 33 33 32 30
8 7 8 8 7 8 11 14 16 13 13 13 17 19 22 21 21 22 24 25 25 27 27 27 27 29 29 28 29 27 27 30 31 31 30 32 31 33 33 33 33 33 33 33 31
8 7 8 7 7 9 13 11 13 12 12 14 15 17 17 19 20 22 24 20 24 27 28 27 27 29 28 28 29 29 29 28 30 27 27 30 31 31 32 32 33 34 34 33 32
6 9 8 7 8 11 12 11 11 10 11 12 13 14 16 16 18 21 21 18 19 24 21 25 27 28 29 27 28 28 28 29 30 30 29 29 32 33 32 32 33 34 33 34 33
6 11 7 7 11 11 11 9 9 11 10 12 13 13 14 15 16 18 18 17 16 19 20 24 26 27 27 29 30 29 28 29 28 27 29 31 32 33 33 33 33 33 33 33 33
6 7 7 7 10 9 9 9 10 10 10 9 10 12 13 14 15 16 16 16 16 18 19 22 24 25 27 28 29 29 29 29 29 30 28 28 31 32 32 31 31 32 32 32 32
6 9 9 8 7 9 8 9 9 10 9 9 5 7 11 14 15 15 16 16 15 16 14 16 23 25 27 27 28 27 29 29 29 29 29 30 31 31 31 31 32 31 31 31 30
6 8 5 8 8 8 7 9 9 8 9 9 5 4 4 10 14 14 14 15 16 15 17 19 21 21 24 22 23 27 28 29 28 29 28 30 30 31 31 31 31 31 30 30 31
5 5 4 5 5 6 7 8 8 8 8 8 5 7 7 4 5 8 11 14 14 15 16 18 19 19 20 22 22 23 24 26 28 29 29 29 30 32 31 30 30 30 29 29 30
3 3 2 5 6 6 7 7 7 7 8 8 8 9 8 7 6 8 10 11 13 13 14 15 18 18 20 22 22 21 23 24 25 27 27 27 28 29 29 29 29 29 29 29 30

GFSSW_850_temp_042.txt.gz
Temp
13 13 13 13 14 14 14 14 14 15 15 15 16 17 18 18 19 18 21 22 22 22 22 21 22 22 24 25 26 26 23 25 28 28 26 32 32 30 29 29 28 26 22 20 19
13 13 14 14 14 14 14 14 15 15 15 15 16 16 17 18 19 20 24 23 22 22 21 22 23 24 25 26 27 28 18 20 27 26 27 31 32 31 30 30 27 24 21 20 19
13 14 14 14 14 15 15 15 15 15 16 16 16 16 16 17 17 23 24 24 23 22 21 23 25 25 26 27 29 29 24 21 24 26 31 30 32 32 31 30 26 24 21 20 20
13 14 14 14 14 14 15 16 16 16 16 16 16 16 15 16 23 24 24 25 24 22 21 24 25 27 28 29 30 30 25 26 27 29 28 24 26 28 31 30 27 24 22 22 21
13 14 14 14 14 15 15 16 16 16 17 17 16 16 15 15 20 23 24 24 23 21 22 24 26 27 28 30 31 31 26 27 25 28 26 22 28 26 30 29 27 25 23 23 22
13 13 14 14 15 15 16 16 16 16 16 17 17 15 14 18 23 23 23 24 23 21 23 25 27 27 29 30 31 32 32 32 30 34 29 29 28 28 29 30 28 26 24 24 24
13 13 13 14 15 15 15 16 16 16 16 16 16 15 13 19 24 25 24 23 23 22 23 25 27 28 29 30 31 32 31 33 31 34 34 34 29 30 24 30 28 27 25 26 26
12 13 13 14 15 15 16 15 16 16 15 16 16 14 16 23 24 24 25 25 23 24 24 26 27 28 29 30 32 32 31 30 33 34 34 34 32 31 28 30 29 28 26 26 26
12 13 13 14 14 15 15 15 15 16 15 15 15 13 20 23 22 23 24 25 24 25 25 26 27 28 29 29 30 31 30 30 32 34 34 34 32 34 32 31 30 28 27 27 26
12 12 13 14 14 14 15 16 16 15 13 13 13 15 18 24 24 24 24 25 25 26 26 27 28 28 29 29 28 30 30 32 31 34 34 34 33 34 34 32 31 29 28 27 27
12 12 13 13 13 14 14 16 16 15 16 16 19 20 24 25 26 25 25 25 26 27 27 27 28 28 29 30 30 31 32 32 33 34 34 33 33 34 33 32 31 30 29 28 27
12 12 13 13 13 14 15 15 14 13 15 16 17 18 19 22 24 25 25 26 27 27 28 28 27 29 30 30 30 31 31 33 34 35 34 34 33 35 34 34 32 30 30 29 28
12 13 13 14 14 14 16 15 14 15 15 16 18 19 20 21 23 26 26 26 27 27 27 27 28 30 30 30 30 30 31 32 33 34 32 34 33 34 35 33 34 32 31 30 29
11 12 12 13 13 13 15 14 15 15 15 21 24 24 22 23 24 25 26 26 28 27 28 28 30 29 29 29 30 29 32 32 33 34 32 34 31 33 35 34 33 33 32 31 30
11 11 12 10 12 13 14 14 15 15 16 27 26 24 25 24 28 25 26 27 27 28 28 28 29 30 29 29 31 30 32 32 32 33 33 33 32 34 34 34 34 34 32 32 31
11 10 11 11 12 13 14 14 15 17 17 23 22 22 24 26 26 27 26 26 27 29 29 29 30 31 31 31 31 32 32 32 32 32 31 32 33 33 34 34 35 35 34 33 32
11 11 10 11 12 13 14 15 17 16 21 20 18 19 20 22 26 27 27 27 27 25 27 28 29 31 32 31 32 32 31 29 29 30 29 32 32 33 36 36 36 35 35 34 33
11 11 12 11 13 13 14 17 15 18 18 18 17 18 19 23 24 26 26 26 27 27 28 28 28 30 32 32 31 31 31 30 27 29 30 32 31 33 35 37 37 36 35 35 34
11 10 13 14 13 13 15 16 18 17 18 16 17 17 18 20 19 21 26 27 28 27 27 29 28 31 32 32 33 31 30 32 31 32 31 32 32 34 36 36 36 37 36 35 34
9 11 12 13 13 14 16 15 18 17 16 16 15 16 15 16 16 16 19 28 28 28 29 29 28 31 32 33 32 32 33 30 31 28 29 32 33 33 33 35 35 36 37 36 35
10 14 14 13 14 15 16 17 16 15 15 15 15 14 15 14 12 14 17 18 22 27 29 28 29 30 32 31 31 31 32 31 31 31 30 31 34 37 34 34 35 36 36 36 35
8 14 14 13 15 16 16 16 15 16 15 15 15 15 12 11 11 11 12 15 17 21 23 28 28 28 29 33 33 32 31 32 30 29 32 32 34 37 37 36 36 36 36 36 36
8 12 14 13 14 14 15 15 14 14 14 12 13 14 14 12 11 10 10 11 13 18 19 21 25 26 27 31 33 32 31 32 32 32 30 31 33 35 36 36 36 36 35 35 35
8 11 10 10 11 12 12 13 13 14 12 9 10 14 13 11 12 9 9 12 12 17 18 19 22 25 28 29 32 31 31 32 32 31 31 32 33 33 34 35 35 35 35 35 35
8 9 8 8 9 9 11 12 12 12 11 9 12 8 10 10 10 9 10 11 13 16 20 22 22 25 27 30 32 31 31 31 31 32 31 32 33 32 33 33 35 35 35 35 34
5 4 3 4 8 9 10 8 11 12 12 12 11 8 8 10 11 11 11 10 9 15 16 20 20 23 25 28 29 29 32 31 32 32 32 33 34 34 34 33 33 33 32 32 32
3 3 2 2 7 7 8 9 10 11 11 11 10 12 12 12 12 13 13 12 11 13 15 17 19 20 22 25 27 27 30 31 32 33 33 32 34 34 33 33 33 32 32 32 31

GFSSW_850_temp_045.txt.gz
Temp
14 14 14 14 14 15 15 15 15 15 16 16 16 16 16 18 19 19 20 23 23 22 21 21 21 22 21 21 22 23 19 20 21 25 26 24 28 27 26 24 23 23 20 19 19
14 14 14 14 14 15 15 15 16 16 16 16 16 17 16 17 18 20 23 24 22 22 21 21 21 21 22 22 23 24 20 21 24 25 25 27 27 27 25 22 21 20 19 19 19
14 14 14 14 15 15 15 16 16 16 16 16 16 16 16 16 17 23 24 25 23 22 22 22 22 23 23 24 25 26 21 23 23 23 26 26 26 28 24 22 21 20 19 19 19
14 14 14 15 15 15 15 16 16 16 16 16 16 16 15 15 18 24 24 25 24 22 21 21 22 24 24 24 26 26 27 25 26 26 25 27 26 27 25 23 21 20 20 20 20
13 13 14 14 15 15 16 16 16 16 16 16 16 16 15 14 19 24 24 24 24 22 22 21 22 24 24 25 27 27 27 27 28 25 25 27 28 26 26 22 21 20 20 20 19
13 13 14 14 15 15 16 15 15 16 15 15 16 15 14 12 24 24 23 23 24 22 22 22 23 25 26 26 27 29 28 27 27 26 26 26 27 28 25 23 21 20 20 20 20
13 14 14 15 15 16 16 15 14 15 15 15 15 15 11 19 24 23 23 24 24 24 22 22 23 25 26 26 28 29 29 28 26 26 26 25 27 28 26 24 23 21 21 20 20
13 14 14 15 15 15 15 15 16 16 16 15 15 13 12 23 23 23 22 24 23 23 23 23 24 25 26 28 28 28 29 28 29 29 28 27 25 27 27 24 23 23 21 21 21
13 13 14 14 15 15 15 16 16 15 15 15 14 12 14 21 23 25 23 24 23 23 23 23 24 25 26 26 25 26 26 27 29 30 29 28 27 26 27 26 24 24 23 23 22
13 13 14 14 14 15 15 15 15 15 15 13 13 11 19 23 24 24 24 25 25 24 24 24 24 23 24 24 23 24 26 28 28 30 31 30 28 25 25 27 26 25 25 25 23
13 13 14 15 15 15 15 16 15 15 15 15 15 16 16 21 23 24 24 24 25 25 23 24 22 23 24 25 26 27 27 28 30 32 30 30 29 27 26 27 23 25 26 25 25
12 13 14 15 15 15 15 15 15 14 15 15 16 16 18 20 18 23 24 24 24 23 24 23 22 25 27 27 27 27 27 28 30 31 31 30 29 30 28 24 22 23 24 26 26
12 12 13 14 14 14 15 14 14 15 15 15 17 17 17 18 19 19 23 25 24 24 24 23 25 27 27 27 27 27 27 27 28 31 32 30 29 30 29 25 22 20 23 26 26
12 12 12 13 14 13 14 14 14 15 12 17 22 21 20 19 21 22 23 25 25 24 25 25 26 26 26 27 27 25 28 29 29 29 26 31 25 27 30 26 23 22 25 26 26
12 12 13 12 12 13 13 14 14 15 12 22 20 20 19 21 23 24 25 23 24 25 25 25 26 26 26 27 28 27 29 29 29 28 28 29 27 28 29 29 26 24 23 24 27
12 12 12 13 12 13 13 14 15 13 15 20 19 18 18 19 21 23 24 24 26 25 26 26 28 27 27 28 29 29 28 27 28 27 26 27 28 28 29 28 27 26 25 26 28
13 12 12 12 13 13 14 14 13 14 20 18 16 17 17 18 18 18 18 23 23 22 23 26 26 28 29 27 28 28 25 24 24 25 25 26 26 27 31 30 30 29 28 27 28
13 13 13 13 13 13 14 13 12 18 17 17 16 16 16 16 17 17 15 17 24 24 22 22 23 27 29 27 26 26 26 24 23 24 25 26 26 28 30 31 34 33 29 28 27
13 13 13 13 13 14 14 12 14 15 16 15 15 14 15 15 15 14 13 14 19 24 22 23 23 28 28 29 28 26 25 26 25 25 24 25 27 28 30 30 30 33 32 28 27
12 11 14 14 14 14 13 12 15 16 16 15 13 14 13 13 12 12 12 14 14 13 13 23 22 27 29 29 29 28 27 25 25 22 23 26 26 27 28 30 30 29 33 32 31
11 10 13 14 14 14 12 14 14 15 15 14 14 13 13 13 12 11 12 13 13 12 13 15 21 24 27 27 27 27 26 27 25 23 21 23 26 28 29 29 30 29 32 33 32
7 10 12 12 13 14 12 13 14 14 14 14 12 13 12 12 12 11 11 11 11 9 10 14 16 22 24 27 29 28 28 26 26 23 24 23 27 28 30 31 31 32 33 34 32
5 9 11 10 9 10 10 11 13 14 13 12 11 12 11 11 9 8 9 11 10 9 11 13 14 19 23 25 26 28 28 28 25 23 23 25 26 32 28 30 32 31 34 34 33
6 9 9 9 9 9 9 10 10 11 11 11 11 11 11 10 8 7 8 9 9 9 11 12 14 15 20 23 25 26 28 28 27 25 25 26 27 29 28 28 28 31 34 35 34
7 8 6 6 5 6 9 9 8 8 11 12 10 11 9 8 9 8 9 9 10 10 10 10 13 17 20 23 25 26 28 29 27 27 26 26 26 28 31 28 28 32 34 34 33
6 4 3 3 5 6 8 8 8 9 9 9 10 10 8 8 8 7 10 9 9 9 7 9 13 16 20 23 25 26 28 30 29 29 28 27 27 27 28 30 28 30 31 30 32
4 3 2 3 4 6 7 7 6 7 8 8 9 10 9 11 11 11 11 11 11 9 8 10 14 14 18 23 24 23 26 29 29 29 29 27 27 28 28 27 27 30 31 31 31

GFSSW_850_temp_048.txt.gz
Temp
14 14 14 14 14 14 15 15 15 16 16 16 16 17 17 17 18 18 20 23 22 21 22 21 20 20 19 19 19 20 19 19 20 20 20 22 23 23 23 21 22 21 19 18 18
14 14 14 14 15 15 15 15 15 16 16 16 16 17 17 17 17 19 25 23 22 21 21 21 21 20 19 20 20 20 18 20 24 25 25 23 24 24 23 22 20 19 18 18 18
14 14 14 15 15 15 15 15 16 15 15 16 16 16 16 16 17 23 24 25 23 21 21 21 21 21 20 21 21 22 19 23 24 25 25 23 25 24 22 20 20 18 18 18 18
14 14 15 15 15 15 15 15 15 14 14 15 15 16 16 16 19 23 24 24 24 21 21 21 21 21 20 21 22 22 24 25 25 26 25 25 26 24 23 21 20 21 19 19 18
14 15 15 16 16 16 16 15 14 14 15 15 15 15 15 14 19 23 24 23 23 21 21 21 21 21 20 22 22 23 24 26 26 26 26 27 26 25 24 21 19 19 19 19 18
14 15 15 16 16 16 16 15 15 15 15 15 15 14 13 11 23 23 22 23 24 22 20 21 22 22 22 23 23 25 25 27 27 25 26 25 26 25 21 20 19 19 18 18 19
14 14 15 15 16 16 16 15 15 15 15 15 14 13 10 20 23 22 21 22 24 24 22 22 23 22 23 23 24 25 25 27 26 26 26 25 25 23 21 20 20 19 19 19 19
14 14 15 15 16 16 16 15 15 15 15 16 14 10 11 22 21 22 21 21 22 23 24 24 23 22 22 24 24 24 24 25 27 25 27 26 24 23 21 20 20 19 20 19 20
13 14 14 15 16 15 15 15 16 16 15 14 13 11 13 20 21 22 22 21 21 22 22 22 21 21 22 21 20 22 22 25 27 27 27 24 24 24 21 20 20 20 20 19 20
13 13 14 15 15 15 15 15 16 16 14 13 11 10 18 20 19 20 22 21 21 21 20 20 21 18 19 18 20 21 22 24 25 26 28 25 25 24 22 21 20 20 20 20 20
14 14 14 15 15 15 15 15 14 14 14 13 14 14 14 17 18 21 20 22 21 21 18 20 19 19 20 20 22 23 23 24 26 28 26 27 26 25 23 22 21 21 20 20 20
13 13 13 15 15 14 14 14 14 13 13 18 17 15 15 16 15 21 20 22 21 20 20 19 19 21 22 22 22 23 23 24 26 28 27 27 26 26 24 23 22 22 22 21 21
13 13 14 15 15 15 14 14 14 14 12 15 18 18 18 17 15 18 19 21 21 20 21 20 22 23 23 23 23 23 23 24 24 26 29 28 26 24 25 24 24 23 23 23 23
13 13 14 15 15 14 14 14 15 13 8 14 18 18 18 18 18 19 21 20 22 21 21 21 23 23 23 23 24 22 25 25 26 25 23 28 25 25 25 24 24 24 24 24 25
13 13 14 13 13 13 13 14 14 14 13 19 17 17 17 17 18 18 18 20 20 20 21 22 23 23 23 23 25 24 25 25 26 24 25 26 25 27 25 23 23 23 23 24 24
13 13 14 13 14 13 13 14 14 11 13 17 16 16 16 16 16 17 17 18 21 20 21 22 25 24 24 25 25 26 25 24 24 22 23 24 26 25 24 23 23 24 23 25 24
13 13 13 13 13 14 13 13 9 11 15 14 13 14 14 14 15 15 15 14 11 12 19 22 23 25 25 24 24 25 22 21 20 21 21 23 22 26 26 25 24 24 22 23 25
13 13 13 14 14 14 13 9 10 14 13 14 13 13 13 12 13 13 13 12 13 11 9 20 20 23 25 24 24 23 22 18 20 20 22 22 23 26 27 28 26 25 25 24 24
13 13 12 12 12 13 12 8 10 12 13 13 12 12 12 13 12 12 11 12 13 11 8 8 20 24 25 26 25 23 23 22 20 21 21 22 25 26 26 26 26 25 26 24 24
11 12 11 12 13 13 9 9 11 14 13 13 10 11 10 10 11 11 11 13 12 12 10 9 9 21 25 25 26 25 23 22 18 21 20 21 23 25 26 26 25 26 26 25 26
10 8 11 12 13 13 7 9 11 13 14 11 10 10 9 8 9 10 11 12 12 11 10 9 9 16 22 22 24 22 24 23 22 18 22 20 24 23 25 25 25 26 27 26 27
8 4 10 11 8 8 6 8 10 10 11 11 11 10 10 9 9 10 10 9 10 9 8 9 9 9 17 23 24 26 23 22 23 20 19 19 24 29 26 26 26 29 28 28 27
6 7 9 9 3 4 6 8 10 9 10 10 10 10 10 9 8 8 9 10 10 8 7 7 9 8 15 20 23 23 24 23 21 20 19 24 25 26 26 25 26 28 28 28 28
5 3 7 7 5 4 4 6 8 9 9 9 9 10 8 8 7 7 8 8 8 8 8 6 7 8 9 15 16 21 24 23 24 23 22 23 25 27 27 26 26 27 28 29 29
6 4 4 2 4 3 4 6 8 8 9 8 8 7 7 6 6 7 8 9 9 7 6 5 6 8 10 13 15 17 23 24 24 24 24 25 24 25 24 25 23 27 29 29 29
5 5 4 3 3 4 5 6 5 7 7 6 6 7 6 5 6 6 7 8 8 6 4 4 5 7 9 15 18 19 24 24 25 26 24 24 23 25 26 26 25 26 27 28 28
4 3 3 3 3 3 4 4 5 6 7 8 7 6 6 7 8 10 10 9 7 6 5 4 6 6 10 17 21 21 19 23 25 25 25 24 24 27 24 20 20 25 26 27 28

GFSSW_850_temp_051.txt.gz
Temp
14 14 14 14 15 15 15 15 15 16 16 16 16 17 17 17 18 17 19 22 21 21 21 21 20 19 18 18 19 19 19 19 21 20 20 20 22 22 22 20 21 20 17 17 17
14 14 14 15 15 15 15 15 15 14 15 15 16 17 17 17 17 19 24 22 21 21 22 21 20 17 18 18 19 18 17 20 22 22 20 19 21 22 22 21 18 18 17 16 16
14 14 15 15 15 15 15 15 14 14 14 15 16 16 16 17 17 22 22 23 21 21 21 22 20 18 19 19 20 20 18 21 23 24 24 23 22 23 21 20 19 16 17 17 16
14 15 15 15 15 16 16 15 15 15 15 15 15 16 15 16 19 22 22 22 22 20 20 20 19 19 19 19 20 19 21 22 25 24 25 23 23 22 22 22 21 20 18 17 17
14 14 15 15 15 16 16 15 15 16 16 15 15 15 15 15 20 22 22 22 22 19 20 20 20 20 18 19 21 21 22 23 23 25 25 25 25 23 22 22 19 17 17 17 17
13 14 15 15 15 16 16 15 16 16 16 16 16 15 14 11 20 20 21 21 22 20 20 20 21 21 21 21 21 22 22 23 24 25 25 25 25 24 21 20 18 17 17 17 18
13 14 15 15 15 16 16 15 16 17 15 15 15 13 12 20 20 19 20 20 22 22 20 21 22 21 21 22 22 23 22 23 25 25 25 26 24 23 20 19 18 18 18 18 18
14 14 15 15 16 16 16 16 16 16 15 15 14 11 13 18 19 19 19 19 20 20 21 22 21 21 21 22 23 22 21 20 24 25 26 25 23 21 19 19 18 18 18 18 18
14 14 15 15 15 16 16 16 16 16 14 14 12 11 14 17 17 18 19 19 19 19 19 20 20 20 21 20 18 20 20 21 23 25 26 24 23 21 19 19 19 18 18 18 18
14 14 15 15 16 16 15 16 17 15 14 14 12 11 17 17 18 19 19 19 19 18 17 19 19 16 16 16 19 18 20 22 22 24 24 23 23 20 20 19 19 19 19 19 18
13 14 15 15 16 15 15 15 14 15 14 14 15 13 17 17 18 18 19 18 19 18 15 18 16 17 18 19 21 22 22 23 24 25 25 24 24 21 20 20 19 19 19 19 19
13 13 14 15 15 14 14 13 12 11 11 16 17 16 17 16 16 18 19 19 19 17 17 16 17 19 19 19 20 20 20 21 23 25 25 25 24 22 20 20 20 19 19 19 19
13 13 15 15 15 14 14 13 13 12 11 14 17 17 17 17 16 17 18 19 18 18 18 17 19 20 20 20 20 20 20 21 22 24 25 26 25 25 21 21 21 20 20 19 20
14 13 14 14 14 14 13 13 13 14 8 13 16 17 17 18 17 17 18 18 19 19 19 18 21 21 20 20 20 18 22 23 23 23 23 25 21 24 22 21 21 21 20 20 20
13 13 14 14 14 13 13 13 14 14 12 16 15 16 16 16 15 16 16 18 17 17 19 19 20 20 20 21 21 21 22 22 23 22 22 24 21 22 23 21 21 21 21 21 21
13 13 14 13 14 13 13 13 14 11 12 14 15 14 13 14 15 14 15 14 15 14 18 18 22 21 22 22 22 23 23 22 22 19 21 23 21 21 23 23 22 23 23 22 22
13 12 13 12 12 13 13 13 10 10 13 13 12 12 12 12 12 13 12 10 10 12 11 15 20 21 23 21 21 22 19 17 18 18 21 21 21 24 24 25 24 24 24 23 23
13 12 12 12 13 13 13 9 11 13 12 13 12 12 12 11 12 12 11 11 9 9 8 8 16 20 22 22 21 20 19 16 17 17 21 21 19 22 25 26 26 25 25 24 23
12 12 12 12 13 13 13 7 9 11 12 12 11 10 10 11 11 10 10 10 10 9 8 9 10 12 16 23 23 21 20 20 18 18 19 22 21 24 24 25 25 26 25 25 23
11 11 12 12 12 13 8 8 10 10 11 11 10 11 9 9 9 10 10 11 11 10 10 9 8 11 14 19 23 22 21 20 17 18 18 19 21 25 22 23 24 25 25 25 24
11 11 11 11 11 11 6 6 9 10 10 10 10 10 9 9 9 9 10 10 10 9 10 8 8 10 12 18 21 20 22 21 20 18 21 18 21 21 23 24 24 25 26 25 24
7 5 9 10 7 4 5 6 9 9 10 10 10 10 9 8 8 9 9 9 10 9 8 7 7 9 10 15 14 13 20 19 22 19 17 21 23 24 23 22 25 26 26 26 25
6 6 8 9 3 2 4 6 8 8 9 8 9 9 9 8 8 7 8 9 8 9 7 7 7 8 12 16 16 16 20 23 20 17 19 22 23 24 23 24 24 26 27 26 25
5 2 7 5 4 3 2 4 7 9 9 8 8 8 7 7 6 7 7 9 9 8 8 7 7 7 8 10 10 10 12 13 16 22 19 22 23 23 24 23 23 24 29 29 28
5 2 3 1 2 2 2 3 6 7 7 7 7 8 6 4 5 5 6 7 8 7 6 6 6 6 7 8 9 10 10 13 14 20 22 24 20 21 22 23 23 24 26 26 27
4 4 3 3 3 3 3 5 5 6 6 6 6 7 6 3 4 5 7 6 6 5 5 4 5 5 7 10 10 11 12 14 15 19 22 22 22 21 20 21 18 19 23 25 27
3 3 2 3 3 3 3 4 4 4 4 6 6 5 5 5 6 7 7 7 6 4 4 4 4 6 6 10 13 14 15 16 18 15 17 21 20 19 17 17 17 17 20 24 27

GFSSW_850_temp_054.txt.gz
Temp
14 14 14 14 15 15 15 15 15 15 15 15 16 17 18 18 18 18 20 22 21 21 20 20 18 18 17 17 18 19 17 18 21 20 21 20 21 21 21 19 19 19 18 17 16
14 14 14 15 15 15 15 15 15 15 15 15 15 16 17 18 18 20 21 21 21 20 20 20 18 17 16 17 18 19 17 19 22 22 21 22 22 21 20 19 17 17 17 16 16
14 14 14 15 15 16 16 15 15 15 15 15 15 16 16 17 18 20 20 22 20 21 21 21 19 17 17 18 18 19 18 21 22 23 22 22 22 22 21 19 17 16 15 15 16
13 13 14 15 15 16 16 16 16 16 16 16 16 16 16 16 20 20 21 22 21 20 20 19 18 18 17 17 19 18 20 20 23 24 23 23 23 22 22 22 22 19 19 17 17
14 14 14 15 16 16 16 16 17 16 16 16 16 16 15 15 19 20 21 21 20 19 19 19 17 18 17 18 20 19 20 21 23 24 24 24 22 22 21 21 20 18 16 15 16
13 14 15 15 16 16 16 17 17 16 16 16 15 15 15 13 17 18 20 20 21 19 19 20 18 19 20 19 19 21 21 21 22 23 24 23 24 23 19 20 18 17 16 15 16
14 14 15 15 16 17 17 16 16 16 16 16 15 14 12 16 16 17 18 18 20 20 19 19 20 20 21 21 21 22 21 22 23 23 23 24 23 22 19 19 17 16 16 16 16
14 15 15 15 16 16 16 16 16 16 16 16 16 13 15 16 17 17 18 18 18 18 18 18 19 20 20 21 21 21 21 20 23 24 24 25 22 20 19 18 17 17 16 16 16
13 14 15 15 16 16 16 16 16 15 15 15 14 12 17 17 18 19 18 19 19 18 17 18 19 19 20 18 17 18 18 20 22 24 25 24 22 19 18 18 17 17 17 16 16
14 14 15 15 15 15 16 16 16 15 15 14 14 13 18 16 16 18 18 18 17 17 17 17 18 15 13 15 16 17 19 20 21 23 23 22 22 19 18 18 18 17 17 17 17
13 14 15 15 15 14 15 15 15 14 15 14 15 16 17 16 17 18 18 17 17 16 14 16 14 16 17 18 19 19 20 21 22 24 23 22 21 19 19 18 18 18 18 18 18
13 13 14 14 14 14 14 12 11 11 10 15 16 16 16 16 16 17 18 18 17 15 15 14 15 17 18 17 18 19 20 20 22 24 22 22 22 20 19 19 18 18 18 18 18
13 13 14 14 14 14 13 12 12 13 11 14 16 16 16 16 16 16 17 18 17 16 15 15 16 18 18 17 17 17 17 19 22 22 23 23 22 20 20 20 19 19 18 18 18
13 13 14 14 14 13 13 12 12 13 8 13 15 16 16 17 16 16 16 16 18 16 16 16 18 18 18 18 17 15 19 20 21 21 20 22 19 21 20 19 19 19 19 19 19
13 13 14 14 13 12 12 13 13 12 11 15 14 15 15 15 14 15 14 16 15 17 16 17 17 18 18 19 18 19 19 19 20 20 21 22 20 20 21 19 19 20 19 19 19
12 12 12 13 12 12 13 13 13 10 11 13 14 13 12 13 13 13 13 13 13 12 15 17 20 19 20 20 20 21 21 19 19 17 18 21 22 19 19 21 20 20 20 20 20
12 12 11 12 11 13 13 13 9 10 13 12 12 12 11 11 11 11 10 9 8 11 10 13 17 19 20 19 19 19 18 15 16 16 19 20 20 21 22 23 23 21 21 21 20
12 13 11 11 12 13 13 9 11 12 11 12 12 12 11 10 11 10 11 9 9 8 8 8 15 17 18 18 18 18 17 14 15 16 20 18 18 21 24 24 24 24 22 22 21
12 11 11 12 12 13 13 7 9 9 9 10 11 10 10 10 11 10 10 9 8 8 8 7 10 12 14 16 18 18 18 18 16 16 16 21 20 23 22 23 23 24 24 23 22
12 11 11 11 11 12 8 8 8 9 9 10 10 10 9 9 10 9 10 10 9 9 9 8 7 11 13 15 17 17 19 18 15 17 16 18 19 22 22 22 22 22 24 24 23
11 11 10 11 11 11 5 5 7 9 10 9 9 9 9 8 8 8 9 9 9 8 9 7 7 10 11 14 17 18 18 18 19 16 17 17 20 20 22 23 24 22 24 24 24
8 5 9 10 6 2 3 4 7 8 9 8 9 9 8 7 7 8 8 9 9 8 7 7 7 7 9 12 12 12 13 16 19 17 17 16 20 23 22 22 24 25 26 27 26
5 6 8 9 2 1 2 4 6 8 8 7 7 8 8 7 7 7 8 8 9 8 6 7 7 6 11 12 12 12 11 10 10 15 18 20 19 22 22 22 24 24 26 27 28
5 2 6 5 3 2 2 3 5 7 7 7 7 7 6 6 6 7 7 8 8 8 9 7 5 6 8 10 9 10 11 11 10 11 18 20 21 23 23 22 21 25 26 25 26
5 2 2 1 2 3 2 3 4 5 5 6 6 7 5 4 5 5 6 7 7 8 6 4 4 5 7 8 8 9 10 10 10 11 12 20 19 20 21 22 21 24 24 24 26
4 3 3 2 3 3 3 3 4 5 4 4 5 6 4 4 5 5 5 5 5 5 4 3 4 6 6 7 8 10 12 12 13 13 13 14 17 17 16 18 16 16 17 18 21
3 3 2 3 4 3 4 4 4 3 3 4 4 4 5 5 6 6 6 6 5 3 3 3 5 6 6 8 9 11 13 15 13 11 13 17 17 15 15 15 14 14 14 15 18

GFSSW_850_temp_057.txt.gz
Temp
14 14 15 15 15 16 16 16 15 15 16 16 16 16 16 17 18 18 19 20 20 20 19 19 17 17 16 17 18 19 21 22 24 23 23 22 22 21 21 19 20 19 19 18 15
14 14 14 15 15 16 16 17 16 16 16 16 16 16 16 17 18 19 19 19 19 19 20 18 16 16 17 18 18 19 21 23 24 25 23 22 23 22 21 20 19 18 17 16 15
14 14 14 15 15 16 16 17 17 16 16 17 17 17 16 16 18 19 19 19 19 19 19 17 17 17 19 19 20 21 21 23 24 24 23 24 23 23 22 22 20 18 16 15 16
14 14 15 15 16 16 16 17 17 17 17 16 16 16 16 16 21 18 20 20 20 19 18 17 17 19 20 20 20 21 21 22 23 24 23 24 24 23 23 23 21 18 17 16 17
14 14 15 16 16 17 17 17 17 17 17 16 16 15 15 15 17 18 20 20 20 19 17 17 18 20 21 21 20 21 22 22 23 24 24 24 24 24 23 21 19 18 17 17 17
14 15 15 16 16 17 17 17 17 17 17 16 15 15 14 16 17 17 18 19 19 18 17 17 18 19 21 20 22 22 22 23 23 24 24 25 25 24 21 20 18 17 17 17 17
14 14 15 16 16 17 17 17 17 17 17 16 16 14 14 15 16 17 17 17 18 17 17 18 19 20 20 22 21 22 22 24 24 23 24 25 25 25 20 19 18 17 17 17 17
14 15 15 16 16 16 16 17 17 17 16 16 16 15 16 16 17 18 18 17 17 16 17 18 19 19 20 21 22 23 23 23 26 25 25 26 26 24 20 19 19 18 18 17 17
13 14 15 15 15 15 16 17 16 16 16 17 16 16 17 17 17 17 18 17 16 16 17 18 18 19 20 22 23 22 25 23 24 26 25 26 26 23 20 20 19 18 18 18 17
13 14 15 15 15 15 16 16 15 16 16 16 16 16 17 16 17 17 17 17 16 15 17 18 19 20 20 21 23 23 23 24 25 26 26 26 26 22 20 20 20 19 18 18 18
13 14 15 15 14 14 15 15 14 14 15 14 15 15 16 17 17 17 16 15 15 17 18 18 19 19 21 21 22 23 23 25 26 27 27 27 26 23 21 20 20 19 19 19 18
13 14 14 14 13 13 14 12 10 10 12 15 15 16 16 16 16 16 17 17 17 18 18 18 19 21 21 20 20 22 21 24 26 26 26 26 26 25 22 22 21 20 19 19 19
12 12 13 14 13 13 13 12 12 12 12 14 15 15 16 16 16 16 16 16 18 17 18 19 20 20 20 20 20 21 22 22 24 26 26 26 26 25 23 22 21 20 20 20 19
12 12 13 13 13 13 13 13 13 13 15 16 16 15 16 16 17 15 15 16 19 19 18 19 20 20 20 20 21 21 22 22 22 23 25 26 26 26 26 22 22 21 20 20 20
12 12 12 12 12 12 12 13 13 13 16 15 15 15 15 15 14 16 14 15 17 18 18 19 19 19 20 20 21 21 22 22 22 22 23 24 25 27 26 24 23 23 22 21 20
12 12 12 12 12 12 13 13 13 15 14 14 15 14 15 14 14 13 13 13 13 16 17 18 20 21 21 21 21 22 22 22 23 23 21 24 25 26 26 26 25 24 23 22 21
11 12 10 11 11 13 13 13 14 14 14 13 13 14 13 14 14 14 13 13 14 17 17 16 19 21 22 21 22 21 21 21 20 21 22 25 24 25 28 28 28 26 23 23 22
11 11 10 11 12 12 13 14 13 13 12 13 13 13 13 12 13 13 13 13 12 12 14 15 18 19 21 22 21 21 22 22 20 22 23 24 23 25 27 28 26 27 26 24 22
11 10 10 11 12 12 13 13 12 11 11 12 13 12 12 12 12 13 12 12 11 11 13 13 15 15 16 17 22 21 21 23 22 21 23 25 24 26 27 28 29 28 26 25 23
11 10 10 11 11 11 13 10 11 10 11 11 12 12 12 12 12 12 12 11 11 11 11 11 13 15 15 16 19 21 23 21 21 20 21 24 24 25 26 27 28 28 27 26 24
11 10 10 11 11 11 11 9 9 9 10 11 11 11 11 11 11 11 12 11 11 11 10 11 11 15 14 17 20 20 20 22 23 22 22 23 24 27 27 28 28 28 27 27 26
9 11 9 11 9 6 8 6 6 9 9 10 10 11 11 10 10 11 11 12 10 10 10 10 11 11 14 16 15 15 18 22 21 21 22 23 24 27 28 29 29 30 28 27 26
6 7 8 9 8 6 5 6 6 8 9 9 9 9 9 10 9 10 10 10 9 10 10 9 9 10 15 17 15 16 15 17 20 21 22 21 23 27 27 26 26 27 27 26 25
6 9 6 5 3 5 4 6 6 7 8 7 8 8 8 8 9 9 9 10 9 10 9 8 9 10 13 12 12 12 13 14 15 21 21 22 23 25 26 26 27 26 25 25 24
5 4 3 6 6 5 5 5 5 5 7 7 8 8 7 7 8 8 8 9 9 9 8 8 8 9 10 10 10 10 11 13 14 17 19 22 23 25 26 27 27 26 23 23 23
4 4 3 3 3 4 5 5 4 5 4 6 5 7 5 5 7 7 8 8 8 8 8 7 8 8 9 11 11 11 12 13 14 15 16 18 19 22 21 20 21 19 19 20 21
3 3 3 3 4 4 4 4 5 5 4 5 5 4 4 6 7 7 7 7 8 7 7 7 7 8 9 11 11 12 13 15 16 15 17 18 21 18 20 19 17 16 16 17 17

GFSSW_850_temp_060.txt.gz
Temp
14 15 15 15 16 17 17 17 17 16 16 16 17 16 16 16 17 18 18 18 19 20 18 18 18 19 19 20 20 21 25 27 28 27 27 25 24 25 24 23 23 22 23 21 18
14 15 15 15 16 17 17 17 17 16 16 16 17 17 16 17 17 17 18 18 19 19 18 19 19 19 21 22 21 23 26 28 29 28 26 25 26 25 25 24 23 22 22 19 17
14 14 15 15 16 17 17 17 17 17 16 17 17 17 17 17 15 18 17 18 19 19 19 20 20 20 23 23 24 25 25 27 28 27 26 25 27 26 27 26 25 23 21 19 17
15 15 15 15 16 17 17 17 17 17 17 17 17 16 16 17 24 17 18 19 19 19 19 20 21 22 24 25 25 26 26 26 27 27 27 28 27 27 27 27 25 23 20 19 19
15 15 15 16 16 17 17 17 17 17 17 17 17 17 16 16 19 17 19 21 19 18 19 20 21 23 26 26 25 26 27 26 26 27 27 26 28 28 27 25 24 22 20 20 20
14 15 15 16 16 16 17 17 17 17 17 17 17 16 14 21 17 17 18 18 16 18 20 21 22 23 25 26 26 27 27 27 27 27 27 28 28 27 26 24 23 21 20 21 21
14 15 15 15 16 16 16 17 17 17 17 17 17 16 16 18 17 16 16 16 17 19 20 21 22 23 25 26 25 26 27 28 27 27 28 28 28 28 25 23 23 22 21 21 21
14 15 15 15 16 16 16 16 17 17 17 17 17 16 18 17 17 17 16 16 17 18 20 21 20 23 23 25 25 26 27 28 30 29 28 28 29 29 25 24 23 22 21 21 21
13 14 15 15 15 15 16 16 16 16 17 17 16 14 20 18 18 17 17 17 17 17 19 19 21 23 23 25 27 27 28 28 29 29 29 29 30 28 26 25 24 22 22 21 21
13 14 14 15 14 15 16 16 16 17 17 17 17 17 19 18 17 17 17 17 17 18 19 20 21 24 24 26 27 28 28 30 29 29 30 29 30 28 26 26 25 23 22 22 21
12 13 14 14 14 14 15 15 16 17 17 16 17 18 18 18 18 18 17 18 19 19 21 22 22 23 26 26 28 27 29 29 30 30 29 30 30 28 26 26 25 24 23 22 22
12 13 14 14 13 14 13 14 12 11 17 16 16 17 17 17 20 19 17 20 20 22 22 22 22 25 26 26 25 26 26 27 30 30 28 30 30 31 28 27 26 24 24 23 22
12 12 13 14 13 13 13 12 13 12 16 18 17 18 17 18 19 18 19 20 22 22 22 23 25 25 25 24 24 25 26 27 28 29 27 29 30 30 30 27 26 25 24 24 23
11 11 13 13 13 13 13 13 13 13 19 19 19 18 18 18 19 17 17 19 22 22 23 23 25 23 24 23 24 25 27 26 26 27 28 29 29 30 31 28 28 26 25 25 24
10 11 12 12 13 13 13 13 13 12 20 18 18 16 17 19 18 18 16 18 22 22 23 23 23 23 23 24 25 25 27 26 26 26 27 28 28 31 32 30 29 28 26 26 25
11 12 12 12 12 11 13 13 12 18 19 18 18 17 19 18 18 18 18 17 17 20 22 23 23 24 24 25 24 26 25 25 25 26 25 27 28 30 30 31 31 29 28 26 26
11 12 11 11 11 12 13 13 18 19 17 17 17 18 18 18 18 18 18 19 20 20 21 22 22 23 24 24 25 24 25 24 24 25 25 29 28 29 32 33 32 32 29 28 26
11 11 11 12 12 12 12 18 17 17 17 17 17 17 17 17 17 17 18 19 17 18 20 21 22 23 24 24 24 24 25 25 23 26 27 28 27 29 31 31 32 31 30 29 27
11 10 10 10 12 12 14 17 18 16 15 16 17 16 17 16 16 17 17 17 16 17 18 20 20 22 21 24 25 25 24 26 27 28 28 29 29 30 31 31 30 30 31 30 29
11 10 11 12 12 12 17 15 15 14 14 15 15 16 16 16 15 16 17 16 15 15 16 17 17 21 21 20 22 23 26 24 25 24 25 28 28 29 29 30 31 31 31 30 30
9 13 10 12 12 15 17 14 13 13 12 14 14 15 15 15 15 16 16 16 15 15 15 16 16 19 19 20 22 22 23 24 26 26 25 26 28 31 30 30 30 31 31 31 30
10 16 9 11 15 13 14 11 9 13 12 13 13 14 14 14 14 14 14 15 13 14 15 16 16 16 18 21 21 21 22 24 24 23 25 27 29 31 31 31 31 31 31 31 31
10 11 9 12 14 13 11 11 10 12 12 12 12 13 13 13 12 13 14 14 12 14 14 14 15 14 17 19 20 20 21 22 24 26 25 25 26 30 30 29 30 30 31 31 30
10 14 11 10 9 10 10 10 10 10 11 10 12 12 12 12 13 12 12 13 12 12 10 11 14 14 16 17 16 16 18 19 21 22 24 26 27 28 29 29 29 29 29 30 30
9 9 7 11 10 10 11 10 10 9 10 9 11 10 10 9 10 10 11 12 12 11 11 12 12 14 14 15 15 15 16 16 17 20 22 25 25 27 28 29 29 29 29 27 27
9 8 8 6 7 7 8 7 7 7 6 7 8 9 8 8 10 9 10 11 11 12 12 11 11 12 12 14 15 15 16 17 17 18 19 21 23 28 28 26 25 26 24 25 26
5 5 7 6 8 7 7 6 6 5 6 6 6 6 6 6 7 8 9 10 10 10 9 10 11 12 12 15 15 14 17 18 18 19 19 20 23 26 26 25 24 22 22 23 23

GFSSW_850_temp_063.txt.gz
Temp
15 15 16 16 16 17 17 17 17 17 17 17 17 17 17 16 17 18 17 19 19 20 19 20 21 22 23 24 22 22 24 27 29 30 27 29 29 28 28 27 27 26 24 21 19
15 15 16 16 17 17 17 17 17 17 17 17 17 17 17 17 18 16 18 18 19 20 20 21 22 23 24 25 25 23 24 24 22 31 29 29 29 28 28 28 27 25 23 20 20
15 15 16 16 17 17 17 17 17 17 17 17 17 17 17 17 16 20 18 19 19 20 20 22 23 24 25 26 27 28 26 30 29 29 30 30 29 29 27 29 28 26 22 20 20
15 15 15 16 17 17 17 17 17 17 17 18 17 17 17 17 25 19 18 19 19 20 19 23 24 24 27 28 28 29 30 29 27 28 29 30 29 30 27 27 28 26 22 20 21
15 15 15 16 16 17 17 17 18 18 18 17 18 17 17 17 22 18 19 19 19 20 20 23 24 25 28 29 29 29 29 29 28 29 29 27 31 29 29 28 27 25 23 21 22
14 15 15 16 16 16 17 17 18 18 18 17 18 17 16 23 19 19 18 20 19 19 21 23 25 25 28 29 30 30 30 29 29 29 29 30 30 30 29 28 26 25 23 22 23
14 14 15 16 16 16 16 17 18 18 18 17 18 18 18 21 19 19 19 20 19 20 23 24 25 26 27 28 29 29 29 30 30 29 29 30 27 31 28 27 26 25 24 23 23
14 14 15 15 16 16 16 17 17 17 18 18 18 15 21 19 19 20 20 20 20 21 23 24 24 25 27 28 28 29 30 30 32 31 30 31 29 31 29 28 26 25 24 23 23
13 14 14 15 15 15 16 16 17 17 17 17 17 17 23 20 20 20 20 21 21 22 22 23 24 24 26 27 28 30 29 30 31 33 31 31 27 21 29 28 27 26 25 24 24
13 13 14 15 15 15 16 16 17 17 17 17 16 20 22 21 20 20 20 21 21 21 22 23 23 26 28 28 28 30 30 32 31 31 32 31 27 19 28 30 28 26 26 25 24
12 13 14 14 14 14 16 16 17 17 18 21 22 22 21 21 21 21 21 21 21 22 24 23 25 26 28 29 30 32 32 32 33 30 31 31 29 20 30 30 28 27 26 25 25
12 13 13 14 14 15 16 18 16 15 20 20 20 20 20 20 22 21 21 22 23 23 25 26 25 28 29 29 29 30 30 31 33 33 30 30 30 30 31 31 29 28 27 26 26
12 12 13 14 14 15 16 15 14 15 19 21 21 21 21 21 23 22 22 23 24 24 26 26 28 28 28 28 28 29 29 30 31 33 33 31 29 30 25 31 30 28 28 27 26
11 12 13 14 14 16 16 15 15 15 21 22 21 21 21 21 22 20 21 22 25 25 26 26 28 27 27 27 28 28 29 30 30 31 31 32 29 23 26 31 31 29 28 28 26
11 12 13 13 14 17 15 15 15 16 22 22 22 19 20 22 22 22 20 21 23 25 26 26 26 27 26 27 28 27 30 30 29 30 30 31 30 29 29 27 31 31 29 28 27
11 12 12 13 13 15 14 15 16 20 21 21 21 21 22 22 22 21 21 21 22 23 25 25 27 27 27 28 28 28 28 28 29 29 28 29 31 31 30 30 33 32 30 29 28
11 11 12 12 15 14 14 16 20 22 22 21 22 22 22 22 22 22 22 23 23 22 23 25 25 27 26 26 28 27 27 26 26 27 27 30 30 32 34 31 32 33 31 30 29
12 12 12 12 14 14 15 20 20 22 22 21 21 21 21 22 22 22 22 22 22 22 23 24 25 26 27 26 27 27 27 27 25 27 29 30 30 31 34 34 32 30 32 31 30
12 12 14 14 13 13 17 20 21 21 19 20 21 20 21 21 20 20 21 22 22 21 21 23 24 26 26 27 27 27 26 29 28 30 30 32 32 33 34 34 31 24 32 31 31
12 14 14 14 13 15 19 18 20 18 18 19 18 20 20 21 19 20 21 21 20 19 19 21 20 24 25 25 25 26 28 26 27 25 26 30 31 32 32 33 33 33 33 32 31
12 16 14 14 14 17 20 18 18 16 15 17 18 18 19 19 19 19 19 20 19 19 18 20 20 21 24 23 23 25 25 26 28 28 27 28 31 34 33 33 33 33 32 33 32
14 19 14 14 18 18 19 16 13 17 15 16 16 17 17 17 18 18 18 19 17 17 17 20 19 19 21 25 25 25 25 26 25 25 28 28 30 34 34 34 33 33 33 32 32
15 15 14 16 19 18 16 16 15 16 16 16 16 16 16 16 15 16 17 17 16 16 17 18 17 17 19 21 22 23 24 25 25 27 26 27 29 33 33 32 33 32 32 32 32
15 18 16 15 15 16 16 15 15 13 14 14 15 15 15 15 16 14 15 16 15 15 12 14 16 17 18 20 20 21 22 23 25 25 25 27 29 31 31 31 31 32 32 32 32
14 15 12 15 14 15 15 14 14 12 13 12 14 13 13 13 14 14 15 15 15 15 13 15 14 16 17 18 19 19 20 22 23 23 23 26 27 29 31 31 31 31 31 31 30
14 14 13 13 11 12 13 11 8 9 9 11 12 12 12 11 12 11 11 12 13 14 13 16 14 14 13 16 18 17 18 19 20 22 22 22 23 28 27 27 31 29 29 28 28
10 9 12 10 11 11 11 11 9 9 9 10 10 9 10 12 12 12 12 12 13 13 13 14 10 12 12 15 17 16 18 19 20 21 22 21 23 26 26 27 26 28 26 26 26

GFSSW_850_temp_069.txt.gz
Temp
15 15 15 16 16 17 17 17 17 17 17 17 17 17 18 18 17 18 19 21 20 20 20 20 21 20 21 21 22 22 21 21 21 20 21 21 22 26 25 23 24 23 21 21 22
15 15 15 16 16 16 17 17 17 17 18 17 17 18 18 18 17 19 21 21 20 20 20 20 20 20 21 23 23 24 21 23 24 22 21 22 21 26 24 25 24 22 21 21 22
15 15 15 16 16 16 16 17 17 17 18 18 18 18 18 17 17 20 22 21 20 20 21 20 22 22 22 24 24 26 23 25 25 22 19 24 22 18 26 24 23 21 21 21 22
15 15 15 16 16 16 17 17 17 17 18 18 18 18 17 17 20 21 21 21 20 20 20 20 21 23 23 24 26 25 27 28 26 25 24 21 19 18 19 21 23 22 21 21 21
14 14 15 15 16 16 16 17 17 17 18 18 17 17 17 16 20 21 21 21 20 21 21 20 21 23 23 25 26 27 28 29 29 26 25 20 21 20 19 21 23 22 21 21 22
13 14 14 15 16 16 16 17 17 17 18 18 17 17 16 16 22 21 21 21 21 21 22 20 22 24 26 26 26 28 29 30 29 26 23 22 20 21 22 21 22 22 21 22 22
13 14 14 15 15 16 16 16 17 17 17 18 17 16 15 20 22 22 21 21 21 21 22 22 22 23 26 25 28 28 27 28 29 26 26 22 19 20 19 21 22 22 22 22 22
12 13 14 15 15 16 17 17 16 17 17 17 17 16 18 22 22 22 22 22 21 21 22 23 23 24 26 27 27 26 26 25 28 29 29 26 21 19 18 20 22 22 22 22 23
12 13 14 15 15 16 17 17 17 17 17 17 17 16 18 22 22 22 23 23 22 21 22 23 23 25 26 24 22 24 23 25 27 30 30 27 20 18 18 18 20 22 23 23 23
12 13 14 15 15 16 17 17 18 17 17 17 17 14 20 23 23 23 23 23 23 22 22 22 24 22 22 21 20 22 24 25 26 29 30 27 20 19 19 19 21 22 22 22 22
12 13 14 15 15 16 17 17 17 17 17 18 20 21 24 23 23 23 23 23 24 23 21 24 21 20 22 23 24 25 25 26 28 30 29 27 20 20 20 21 20 20 22 22 22
12 13 14 15 16 16 16 17 18 18 18 20 21 22 23 23 23 24 23 23 23 22 23 21 20 23 25 25 25 25 25 25 27 29 26 23 21 21 20 21 20 17 22 23 23
12 13 13 15 16 17 17 17 18 18 18 21 22 23 23 23 23 24 23 24 23 22 22 21 23 26 25 25 25 25 24 25 26 28 26 22 21 20 22 22 20 20 20 23 23
12 13 14 15 16 16 17 18 18 18 15 21 22 23 23 23 23 24 24 23 24 23 23 23 25 26 25 25 25 22 26 28 28 26 23 27 23 19 20 20 21 19 18 22 23
12 13 14 15 16 17 17 18 18 18 16 22 23 22 23 23 23 23 23 23 22 23 24 23 24 25 25 26 26 25 27 26 27 25 25 26 23 20 22 20 21 21 24 24 23
13 14 14 14 15 16 17 17 18 16 18 22 23 22 22 22 23 23 23 22 23 23 23 23 26 25 25 27 27 28 26 25 24 23 21 23 24 18 21 22 20 23 24 24 24
14 14 15 15 16 16 17 17 15 16 23 22 22 22 22 22 23 24 23 21 20 20 20 22 23 25 26 24 26 25 24 19 19 20 21 24 23 24 22 24 21 22 21 22 24
15 15 15 16 16 16 16 16 16 21 21 23 23 23 22 22 23 23 22 21 23 21 20 19 20 24 27 24 24 24 22 19 19 19 22 23 23 24 25 24 23 22 24 22 24
15 15 16 16 16 16 17 16 16 18 19 20 21 21 21 23 23 22 22 20 21 19 18 17 19 22 24 25 25 23 21 24 21 23 21 23 25 26 28 25 23 22 22 21 25
15 15 16 17 17 17 16 18 18 18 19 20 19 20 19 20 21 20 20 20 20 20 19 18 15 19 22 23 24 23 24 20 20 20 19 22 23 23 26 25 24 23 22 20 23
15 15 18 17 17 18 17 17 19 19 19 18 17 18 18 18 18 18 20 19 20 19 20 19 17 16 19 20 20 20 20 21 20 19 19 20 21 25 26 26 25 25 21 21 21
15 16 18 18 17 19 16 18 18 18 18 18 19 18 17 17 17 18 18 18 18 18 16 16 15 13 16 19 20 20 19 19 18 19 19 19 21 27 27 27 24 26 23 21 20
13 18 18 19 16 17 19 18 16 17 16 16 17 17 16 16 15 17 17 19 18 17 13 14 13 12 14 17 19 18 19 19 19 19 19 18 21 26 24 23 24 22 23 23 22
13 16 17 16 16 16 15 16 16 15 15 16 16 16 15 14 15 16 17 19 18 16 15 16 13 12 11 13 15 15 17 18 17 17 18 19 20 24 22 22 22 23 22 22 23
16 16 15 13 14 15 14 14 14 13 14 13 15 14 13 12 13 13 14 14 16 15 15 13 11 12 13 15 16 16 17 17 16 17 17 18 19 21 21 21 22 22 20 20 21
14 14 15 15 15 14 13 13 13 12 12 12 12 12 12 12 11 11 11 11 13 13 14 13 11 12 11 14 15 15 16 17 17 18 18 19 19 20 22 23 23 23 21 19 19
13 14 15 15 14 13 12 13 12 12 13 12 12 11 11 11 11 11 11 12 12 12 12 12 11 9 9 11 11 12 14 16 17 18 18 17 18 19 20 21 18 19 18 18 18

GFSSW_850_temp_072.txt.gz
Temp
15 15 15 16 16 16 16 17 17 17 17 17 18 17 18 18 18 18 19 21 20 20 20 20 20 20 19 19 20 21 19 20 21 21 22 21 20 22 22 21 22 21 21 21 19
14 15 15 15 16 16 17 17 17 17 17 18 18 18 18 18 19 20 22 21 20 20 20 20 21 20 19 20 21 21 18 22 24 23 20 21 20 20 21 22 22 21 21 21 19
14 14 15 15 15 16 16 17 17 17 17 18 18 18 17 18 18 21 22 22 21 20 20 20 21 20 20 21 21 22 21 23 24 22 22 21 19 19 20 22 21 20 20 20 20
14 15 14 15 15 15 16 16 16 17 17 18 18 18 17 17 20 21 21 21 21 20 20 20 19 20 20 20 22 21 24 25 25 22 21 20 18 18 18 20 20 22 22 21 20
13 14 15 15 15 15 16 16 16 16 17 17 18 17 17 17 20 21 21 21 20 19 20 20 19 20 20 22 23 23 24 26 27 25 21 20 19 19 18 19 20 21 21 21 20
13 13 14 14 15 15 16 16 16 16 17 17 17 17 16 15 21 21 21 21 20 20 20 20 21 21 22 23 23 25 26 27 28 22 21 21 20 20 20 20 20 20 21 21 21
12 13 14 14 15 15 16 16 16 16 16 17 17 16 16 21 21 21 21 21 21 21 21 22 22 20 22 22 25 25 24 25 25 23 22 20 20 20 19 21 20 21 21 21 21
12 13 13 14 15 16 16 16 16 16 16 16 16 16 19 21 21 21 21 21 20 21 22 22 21 21 21 23 24 24 23 23 25 24 22 23 20 18 20 21 20 21 21 21 21
12 13 14 14 15 16 16 16 16 16 16 16 16 15 19 21 22 22 21 21 21 21 21 22 21 22 23 22 20 19 21 23 24 25 22 22 19 18 19 20 21 21 22 22 21
13 13 14 14 15 16 17 16 17 17 16 16 15 14 21 22 22 22 22 22 21 21 21 21 22 19 18 18 18 21 22 22 23 26 24 21 19 19 18 19 21 21 21 22 22
12 13 14 14 15 16 17 17 17 16 16 18 18 19 21 23 23 23 23 22 22 22 19 21 18 18 19 20 21 22 22 22 24 26 26 24 19 19 18 19 20 20 21 22 22
12 12 14 15 15 16 16 17 17 17 17 18 19 19 21 21 23 23 23 23 22 19 20 19 18 20 22 23 22 22 21 21 23 26 22 19 19 17 18 19 19 21 21 22 22
12 13 14 15 16 16 17 17 18 18 16 18 20 21 22 23 22 22 23 23 22 20 20 18 20 22 22 22 22 21 21 22 22 23 21 21 20 19 19 20 18 20 22 21 22
12 13 15 16 16 16 17 17 17 18 12 16 20 22 22 23 22 23 23 23 22 21 20 19 22 23 22 22 22 20 22 24 24 23 22 23 21 19 19 18 18 19 19 19 21
13 14 15 16 16 16 17 17 17 18 15 21 21 22 23 22 23 22 23 23 21 21 21 20 22 22 22 23 22 22 24 23 25 22 22 24 20 20 19 18 19 18 19 19 21
14 15 15 15 16 16 16 17 17 13 17 20 21 21 21 22 22 23 23 22 22 21 21 21 24 23 22 24 24 25 24 21 19 19 18 20 22 19 18 21 20 19 19 19 21
15 15 15 16 16 16 16 17 12 13 19 20 20 20 19 20 21 21 21 20 18 19 19 20 22 23 24 24 22 24 18 17 19 18 18 19 20 21 21 21 21 20 20 20 22
15 15 16 16 16 16 16 13 13 17 16 18 19 20 19 20 21 22 20 17 19 17 14 16 19 19 21 20 22 23 18 17 19 18 18 20 21 23 23 24 24 22 21 21 22
16 16 16 17 17 16 16 12 14 15 17 17 17 18 16 18 20 20 17 16 17 16 15 15 18 19 21 20 20 22 20 19 18 18 18 19 21 23 25 23 23 22 23 22 22
16 16 17 17 17 17 12 13 15 17 17 16 14 15 14 15 16 16 17 17 17 17 16 16 15 16 19 19 18 17 18 19 15 18 19 18 21 20 22 22 22 21 21 20 22
16 16 17 18 17 17 11 15 16 16 16 16 15 14 14 14 15 14 15 16 17 16 15 13 13 14 17 15 16 15 15 15 15 16 16 17 18 22 20 20 20 21 22 22 22
16 12 17 18 14 12 11 14 16 14 15 14 15 14 14 14 14 14 15 15 17 16 14 13 11 11 14 15 17 18 14 12 12 15 15 16 18 21 20 20 21 20 23 22 20
15 15 16 18 10 9 13 14 14 13 13 14 13 13 13 12 13 14 15 16 17 14 13 14 9 9 12 12 13 14 15 14 12 11 15 16 17 20 21 21 20 19 19 21 21
16 10 15 15 14 11 11 11 12 13 13 13 12 12 10 10 9 11 12 14 15 15 15 14 8 9 9 11 12 13 14 15 12 11 11 14 15 16 18 19 20 18 17 21 21
15 12 13 9 10 9 10 11 10 10 11 12 11 11 10 8 8 9 9 10 12 13 13 9 9 11 11 12 12 12 13 14 13 13 13 14 14 16 16 17 19 18 19 18 18
14 13 14 12 13 10 8 9 10 10 11 10 9 10 8 7 9 8 8 8 9 10 10 8 9 9 9 11 11 11 13 14 14 15 15 15 14 14 15 16 16 17 16 17 16
13 13 14 12 10 8 9 10 11 11 11 11 11 9 8 9 10 10 10 10 10 9 9 9 8 7 8 10 10 9 12 13 13 13 12 11 12 12 12 14 12 13 14 14 15

GFSSW_850_temp_075.txt.gz
Temp
14 14 15 15 15 15 16 16 16 17 17 17 17 18 18 18 18 19 20 21 20 20 20 19 19 20 18 18 19 20 19 20 21 21 21 19 20 20 19 20 21 21 19 18 17
14 14 15 15 15 15 15 16 16 16 17 17 17 18 18 18 18 20 21 21 20 20 20 19 20 19 18 19 20 20 18 22 23 22 20 20 18 17 18 21 21 19 19 17 18
14 14 14 14 15 15 15 16 16 16 17 17 18 18 18 18 19 21 21 21 20 20 20 20 20 19 19 20 20 20 20 22 23 22 19 18 18 18 19 20 20 19 18 17 17
13 13 14 14 14 15 15 16 16 16 16 17 17 17 17 17 20 21 21 21 20 20 19 19 19 19 19 19 21 20 22 22 23 22 22 20 17 17 18 19 20 19 18 18 18
12 13 13 14 14 14 15 15 16 16 16 16 17 17 17 17 21 21 21 21 20 20 19 19 19 19 18 20 21 21 22 23 24 25 22 19 19 19 18 18 19 20 19 18 18
12 12 13 13 14 15 15 15 15 16 16 16 17 16 16 15 21 21 21 20 20 20 19 20 20 21 20 21 21 23 23 24 25 22 20 20 19 20 20 19 19 20 19 19 18
12 12 13 13 14 15 15 15 16 16 16 15 16 16 16 21 21 21 21 20 20 20 20 20 20 21 20 20 22 23 22 23 22 21 21 20 19 21 20 20 19 20 20 19 19
12 12 13 13 14 15 15 16 16 16 16 15 15 15 18 20 20 20 20 20 20 19 20 21 20 20 20 21 23 23 21 22 22 22 20 22 19 19 19 19 19 20 20 20 20
12 12 13 13 14 15 16 16 16 16 16 16 15 15 19 20 21 21 21 21 20 19 19 20 20 20 21 20 18 18 21 22 23 22 21 21 19 19 19 20 19 20 20 20 20
12 12 13 13 14 15 16 16 16 16 15 16 15 14 20 22 22 22 22 21 21 19 19 20 21 17 16 16 17 20 21 21 22 23 23 20 19 19 18 19 20 20 21 21 21
12 12 13 14 14 16 16 16 16 15 15 17 18 17 20 21 22 22 22 21 21 20 17 19 17 16 18 18 20 21 21 21 22 24 24 20 19 19 18 18 20 20 21 21 21
12 13 13 14 15 16 16 16 16 16 15 18 18 18 20 20 20 22 22 22 20 18 18 17 17 18 20 21 21 21 21 20 21 23 21 18 19 19 19 18 19 20 20 21 21
13 13 14 15 16 16 16 16 17 17 15 17 19 20 21 21 22 22 22 22 20 19 18 17 20 21 21 21 21 20 19 20 21 22 19 19 19 19 19 18 19 19 20 21 21
13 14 15 16 16 16 16 17 17 17 11 16 19 21 22 22 22 22 22 23 21 19 18 19 20 21 21 20 20 19 20 22 22 21 21 21 19 19 19 18 19 19 19 20 21
14 15 16 16 16 16 16 17 17 17 14 20 20 22 22 22 22 22 23 23 20 21 19 19 21 20 20 21 20 20 21 21 22 21 21 22 19 19 18 18 18 19 20 20 21
14 15 15 15 16 16 16 17 17 13 16 20 21 21 20 21 22 22 22 22 22 21 20 20 22 21 20 22 21 23 22 19 16 16 18 20 20 19 16 19 19 19 19 20 20
16 16 16 16 16 16 16 17 12 12 16 17 18 20 19 20 21 21 20 17 17 18 19 19 20 19 20 22 21 19 17 16 18 17 18 19 19 20 19 19 20 20 19 20 21
16 16 16 16 16 16 16 13 12 16 14 16 17 18 18 19 20 19 17 15 16 16 13 16 18 18 19 19 20 21 18 16 19 16 18 17 20 22 22 23 23 21 21 20 20
16 16 16 16 17 16 16 10 13 14 15 15 16 14 14 16 18 17 14 13 15 14 15 15 17 17 19 18 18 19 16 18 14 15 17 18 20 22 20 20 20 21 21 20 20
17 17 16 17 17 17 13 12 14 14 15 14 13 14 13 14 15 14 14 15 16 14 15 15 17 15 17 18 17 15 16 17 13 16 19 17 18 17 18 18 18 19 20 20 20
17 17 15 17 17 17 10 13 14 14 15 14 13 13 13 13 13 13 13 15 15 15 13 13 13 15 15 14 14 13 12 11 12 13 14 16 16 18 17 17 17 17 18 20 21
16 11 16 17 14 9 8 12 14 12 13 12 13 12 13 11 11 13 12 11 14 14 14 12 8 11 13 12 15 14 12 10 10 13 11 13 14 16 17 18 18 17 18 20 20
15 15 15 18 10 8 11 12 12 11 10 12 11 11 10 9 11 11 12 13 14 12 12 13 9 11 13 12 11 12 12 12 9 8 10 11 14 17 16 16 17 16 16 19 20
15 9 14 14 12 9 10 9 11 12 11 11 10 10 9 8 8 9 10 12 12 13 13 12 6 9 10 11 10 11 12 12 10 9 10 11 12 13 13 13 14 15 15 16 18
14 11 11 8 9 8 8 10 9 9 10 10 9 8 9 7 8 8 8 8 12 11 11 8 8 10 10 11 11 11 11 12 12 13 12 13 12 10 11 12 12 13 14 14 15
13 12 12 10 10 8 6 9 9 9 9 9 8 8 7 7 8 8 8 8 8 9 8 7 7 9 9 10 10 11 11 12 13 13 13 13 13 10 11 12 11 11 13 13 13
13 13 13 9 8 7 8 10 10 10 10 11 10 8 8 9 9 10 9 10 9 9 7 7 6 6 8 8 9 9 11 12 12 11 12 11 10 10 10 11 10 11 12 12 12

GFSSW_850_temp_078.txt.gz
Temp
13 14 14 14 15 15 15 16 16 16 16 17 17 17 18 18 18 19 20 21 20 20 19 19 19 19 17 17 18 19 18 20 21 21 19 18 19 17 18 19 21 20 18 16 17
13 13 13 14 14 15 15 16 16 16 16 16 17 18 18 18 18 19 20 21 20 20 20 20 19 19 17 18 19 19 18 21 23 21 20 19 17 17 18 18 18 17 17 16 17
13 13 13 13 14 14 14 15 16 16 16 16 17 17 18 18 18 20 20 21 20 20 20 19 19 18 18 19 19 19 19 22 22 21 20 19 17 17 18 18 19 16 16 17 17
13 13 13 13 13 14 14 14 15 16 16 16 16 17 17 17 19 20 21 20 20 19 19 19 19 19 18 18 20 19 22 22 22 21 19 19 17 18 18 18 18 18 18 17 17
12 13 13 13 13 14 14 15 15 15 16 16 16 17 17 17 20 20 21 20 19 19 19 19 18 18 17 18 20 20 21 22 23 23 21 19 19 19 18 17 17 17 17 17 17
12 12 13 13 14 14 14 14 15 15 15 16 16 16 16 16 20 20 20 20 19 19 19 19 19 19 19 20 20 21 22 22 23 22 19 20 19 20 17 17 17 17 17 17 18
12 12 13 13 13 14 14 15 15 16 15 15 16 16 16 19 20 20 19 19 19 19 19 19 19 20 19 20 21 22 21 21 20 20 20 20 19 20 18 18 18 17 17 17 18
12 12 12 13 13 14 15 15 16 15 15 15 16 15 18 19 20 20 19 19 18 18 19 19 19 19 20 21 21 21 20 21 20 20 20 20 20 20 19 18 18 19 18 18 18
11 12 12 13 13 14 15 16 16 15 15 15 15 15 18 19 19 20 20 20 18 18 18 19 19 20 20 19 18 18 20 22 21 21 20 19 19 20 18 19 19 19 19 18 18
12 12 12 13 14 15 15 15 15 15 14 15 14 14 19 19 20 20 20 19 19 18 18 18 19 16 15 16 17 20 20 21 22 20 21 19 19 19 18 18 18 19 19 19 19
12 12 13 14 14 15 15 15 14 14 14 17 17 17 19 20 21 21 21 19 18 18 16 18 15 15 17 18 19 21 20 21 21 23 22 19 19 19 18 18 19 19 20 19 19
12 13 14 14 15 15 15 15 14 14 14 17 17 17 19 20 21 21 21 20 19 16 16 16 15 17 18 18 20 20 20 20 22 22 20 18 18 18 17 18 19 19 20 20 19
13 14 15 15 15 16 16 15 16 16 13 17 18 18 20 21 21 21 21 20 18 17 17 16 19 19 19 20 20 20 18 20 21 20 19 19 19 19 18 18 18 18 19 20 20
14 15 15 15 16 16 16 16 16 17 11 17 17 20 21 21 21 21 22 22 20 18 17 18 20 20 19 20 19 19 19 21 21 20 20 20 18 17 19 19 19 18 19 19 20
14 15 16 16 16 16 16 16 17 17 14 19 19 21 21 21 21 21 22 22 19 19 18 18 19 19 19 20 19 19 19 20 21 20 20 20 19 18 17 16 17 18 19 19 20
15 15 15 15 16 16 16 16 17 12 15 17 19 20 19 20 21 21 22 22 21 19 19 20 21 19 19 20 20 21 19 15 14 15 17 20 19 19 17 18 18 19 19 19 19
16 16 16 16 15 16 16 17 12 11 15 15 15 17 18 19 19 19 16 14 15 16 18 18 19 17 19 21 20 19 16 15 16 16 17 16 19 18 18 19 18 18 19 19 20
16 16 15 16 16 16 16 12 11 14 14 15 15 15 15 15 15 15 14 13 14 14 13 16 17 16 17 17 19 18 17 15 18 15 17 17 18 18 18 19 18 18 20 20 20
17 16 16 17 17 16 17 9 11 12 13 14 14 14 14 15 15 15 13 12 14 12 15 15 16 16 17 16 16 18 15 15 13 14 16 16 17 18 18 18 18 17 18 19 19
17 17 16 17 17 17 11 11 13 13 13 13 13 13 13 13 15 13 13 14 13 13 13 14 15 15 15 16 16 15 15 16 13 17 18 16 15 14 15 15 16 16 16 16 17
17 17 16 17 17 16 9 12 13 13 13 13 12 12 12 12 12 12 11 15 13 14 12 12 12 15 13 12 11 12 12 11 11 11 14 14 14 16 13 13 14 15 15 15 17
16 11 16 17 13 7 7 10 12 10 12 11 12 10 11 9 9 11 11 11 12 13 13 11 9 9 12 12 12 12 11 9 12 14 9 11 13 13 13 13 13 14 14 15 18
15 15 14 17 9 6 10 10 11 9 9 10 10 10 9 8 10 10 11 12 11 12 12 13 9 9 12 12 11 11 11 9 7 7 10 13 13 14 12 12 12 12 14 14 15
15 9 14 13 10 8 9 8 10 11 9 10 8 9 9 7 6 8 10 11 11 11 12 12 8 10 9 10 9 10 11 11 9 10 9 10 13 11 11 12 11 11 12 13 13
14 9 9 6 8 7 7 8 9 8 10 9 8 7 8 7 7 7 8 9 11 10 10 7 8 9 9 10 11 11 11 12 12 12 13 10 12 11 10 11 10 10 11 11 12
13 12 11 8 9 7 5 8 8 9 9 8 8 8 6 6 8 8 8 7 8 8 8 6 7 9 9 9 10 10 10 11 12 13 12 12 10 9 11 11 10 11 11 10 11
13 13 13 7 7 7 7 9 9 9 10 10 9 7 7 8 9 9 9 8 8 8 7 6 5 5 8 7 9 9 10 10 11 11 11 11 10 9 9 10 9 10 11 10 10

GFSSW_850_temp_081.txt.gz
Temp
13 13 14 14 14 14 14 15 16 16 16 16 17 17 18 18 18 19 20 21 20 19 19 19 19 18 17 18 18 19 20 22 23 22 19 17 19 17 17 19 20 19 19 17 15
13 13 13 13 14 14 14 14 14 16 16 16 17 17 18 18 19 20 20 21 20 19 19 19 18 17 18 19 19 20 19 23 24 22 20 18 18 17 18 19 18 17 17 15 15
13 13 13 13 13 14 14 15 15 15 16 17 17 17 18 18 18 20 20 20 20 20 19 19 19 18 19 19 20 20 22 23 23 22 21 19 18 17 18 20 18 17 16 15 16
12 13 13 13 13 13 14 14 15 16 15 16 17 17 17 17 21 20 20 20 20 19 19 19 18 20 20 21 20 21 22 23 23 21 21 21 18 19 18 18 18 17 16 16 16
12 12 13 13 13 13 14 14 15 15 17 15 16 17 17 17 20 20 20 19 19 19 19 18 19 19 21 21 21 21 23 22 23 22 21 19 20 19 18 18 17 17 16 16 17
12 12 12 13 13 14 14 14 15 15 15 17 15 16 16 17 19 20 20 19 19 18 18 19 19 19 21 21 22 22 23 24 23 23 21 21 20 20 17 17 17 17 17 17 17
12 12 12 12 13 14 14 15 15 15 15 16 16 15 16 18 19 19 19 19 19 18 18 19 19 20 20 22 21 22 24 23 22 21 21 21 19 20 18 17 17 17 18 17 17
11 11 12 12 13 14 14 15 16 15 15 15 16 15 17 18 19 19 18 18 18 18 19 19 19 19 20 20 22 24 24 25 23 23 21 22 22 19 18 17 17 18 18 18 17
12 12 12 12 13 14 14 15 16 15 15 15 15 16 17 18 18 18 18 18 18 18 18 18 19 20 21 22 23 23 25 25 23 22 22 22 23 21 18 18 19 18 18 18 18
12 12 12 13 14 14 14 14 15 15 14 14 14 15 17 18 19 18 18 18 17 17 17 18 19 21 21 22 23 23 24 24 24 23 24 23 23 21 19 19 19 19 19 19 19
12 13 13 14 14 14 14 14 14 14 14 15 16 17 18 18 19 18 18 18 17 18 19 19 20 20 21 22 23 23 24 24 24 24 24 24 24 23 20 19 19 19 19 20 19
13 13 14 14 15 15 15 14 14 14 15 16 16 17 19 19 19 17 18 19 19 20 19 19 20 21 22 22 22 23 23 24 24 23 24 23 22 23 22 21 19 19 19 20 20
14 15 14 15 15 15 15 15 16 16 15 16 17 18 19 19 20 18 18 19 20 19 20 20 22 21 22 22 22 23 24 23 24 23 23 23 22 21 20 20 19 20 20 20 20
15 15 15 15 16 16 16 15 16 16 17 18 18 20 20 20 21 20 20 21 20 20 20 21 22 21 21 22 23 23 23 24 23 24 25 23 26 21 20 20 20 20 20 20 20
15 15 15 16 16 16 15 16 16 16 17 19 20 20 20 21 21 20 20 21 21 21 21 21 21 21 22 23 23 23 23 24 24 24 24 24 26 22 21 20 21 21 20 19 20
15 15 15 15 16 15 16 16 16 17 16 18 19 20 21 21 21 20 20 21 20 21 21 21 21 22 23 23 23 23 22 22 22 23 24 25 25 22 21 20 21 20 21 21 19
16 15 16 16 15 16 16 16 17 16 17 17 17 18 20 19 19 20 18 18 20 20 21 21 20 20 20 22 22 23 23 22 23 23 25 21 24 20 20 20 20 20 20 21 21
16 16 16 16 16 16 16 17 15 15 16 16 16 18 18 18 18 18 18 18 18 19 20 21 20 20 19 20 22 23 24 24 22 23 25 21 22 20 20 19 19 19 18 20 21
17 16 17 16 16 16 16 15 13 13 14 15 17 18 17 18 19 18 16 16 16 16 20 20 19 19 18 18 19 21 22 22 22 19 25 23 22 21 20 19 18 17 17 17 17
17 17 16 17 17 17 16 13 14 13 13 15 16 15 17 16 18 17 16 16 15 16 15 17 18 17 17 18 19 20 19 22 22 22 23 20 20 20 18 17 17 16 15 16 18
17 17 16 17 17 15 14 13 14 13 13 14 14 15 14 15 15 14 13 15 14 16 15 16 19 17 18 16 15 19 20 19 21 20 23 22 20 18 16 15 15 14 15 15 17
16 17 15 17 15 10 13 12 12 12 11 13 13 13 13 13 14 14 13 13 12 14 16 15 17 16 15 16 15 15 16 17 23 19 18 22 19 16 16 15 14 14 14 14 15
15 15 14 17 15 13 12 12 11 12 11 12 12 12 11 12 13 13 13 13 12 13 14 16 15 16 16 17 16 16 16 15 16 18 19 23 19 16 15 15 13 13 13 13 13
14 15 13 12 9 12 12 11 12 11 11 10 11 12 12 12 12 12 13 13 12 13 11 14 14 16 19 16 15 15 15 15 17 20 18 18 17 16 15 15 14 13 13 13 13
13 11 9 12 11 10 11 11 11 11 11 10 11 10 11 12 12 11 12 13 14 11 12 14 13 13 13 13 14 14 15 15 16 15 18 17 17 15 14 13 13 13 13 13 13
13 12 10 8 8 11 10 11 11 10 11 11 10 10 10 10 10 11 11 12 11 13 12 12 12 12 12 12 13 13 14 14 15 15 15 15 16 13 12 12 12 11 12 12 12
13 12 12 8 10 12 11 11 11 10 10 10 10 10 10 10 9 9 9 9 10 11 11 12 12 12 12 11 12 14 14 14 14 14 15 15 15 12 12 12 10 10 10 9 10

GFSSW_850_temp_084.txt.gz
Temp
13 14 14 14 14 14 14 15 15 15 15 17 17 17 18 18 18 18 19 19 19 19 19 18 19 19 20 22 20 21 23 24 25 25 22 20 20 17 18 21 21 21 23 20 19
13 13 13 14 14 14 14 14 15 16 16 15 17 18 18 18 18 19 20 20 20 20 18 20 20 20 22 23 21 23 24 25 27 26 23 20 19 17 19 21 21 21 21 19 19
12 13 13 13 13 14 14 14 15 15 16 17 15 17 18 18 17 21 20 20 20 20 19 21 21 22 24 24 21 24 24 27 26 25 24 22 19 18 19 23 21 21 19 19 19
12 13 13 13 13 14 14 14 15 15 15 16 17 16 17 18 24 19 20 20 20 18 19 20 21 23 25 25 24 25 26 26 26 25 25 24 20 20 20 20 20 19 19 20 20
12 12 13 13 13 14 14 14 15 15 15 15 17 16 16 16 21 20 20 19 19 18 20 21 22 24 26 26 23 25 27 26 26 26 25 22 23 22 20 19 18 18 20 20 21
12 12 13 13 13 14 14 15 15 15 15 15 16 17 16 22 18 20 18 17 17 19 21 22 23 24 26 26 26 26 26 26 27 27 24 25 23 22 18 18 18 20 20 21 21
12 12 13 13 13 14 14 14 15 15 16 15 15 17 15 19 17 18 17 18 19 20 21 21 22 23 25 26 25 26 27 28 27 26 25 25 24 23 17 17 18 21 21 21 21
12 12 12 13 13 14 14 15 15 16 16 15 15 15 20 18 17 17 17 17 18 20 21 20 21 23 24 24 25 27 28 28 27 26 24 26 24 23 18 17 19 21 21 21 21
12 12 13 13 14 14 15 15 16 16 15 15 14 13 20 18 17 18 18 18 19 19 20 20 21 23 24 26 27 28 28 28 26 27 26 27 25 22 18 19 20 21 22 22 21
13 13 13 14 14 14 14 14 15 15 14 14 14 15 17 19 18 18 18 19 19 20 20 21 23 24 26 27 27 28 29 29 28 27 28 28 26 23 20 21 21 21 22 22 22
13 14 14 14 15 15 15 15 14 13 13 20 20 19 20 19 18 18 18 19 19 21 23 22 24 25 26 28 28 29 29 29 28 28 29 28 27 25 22 21 22 22 22 23 23
14 14 14 15 15 15 15 16 15 15 19 18 17 17 18 20 20 19 19 21 21 22 24 23 24 27 27 26 26 28 28 28 28 28 29 28 28 26 22 22 22 22 21 23 23
14 15 15 15 15 15 15 15 16 16 19 19 19 20 20 19 22 20 20 22 23 23 23 24 26 26 25 25 26 27 28 28 28 28 29 28 27 27 25 21 21 20 22 22 23
15 15 15 15 16 16 15 16 16 16 21 21 21 21 20 22 23 21 21 22 23 23 24 25 25 24 25 26 27 27 28 28 27 28 28 29 26 25 24 22 22 22 21 23 22
15 15 15 16 16 16 15 16 16 15 20 22 22 20 22 23 22 22 21 22 24 24 24 25 25 24 25 26 27 28 27 27 28 28 28 29 29 25 22 22 23 23 21 21 23
16 16 16 16 16 15 16 16 16 20 18 21 22 23 23 23 24 22 21 22 24 24 25 25 25 26 26 26 26 26 26 26 27 29 27 30 30 26 25 24 25 24 24 23 23
16 16 16 16 16 16 16 17 20 20 21 20 21 23 24 23 23 23 23 23 23 22 23 24 24 24 24 25 26 26 27 26 26 26 28 30 29 25 23 23 23 23 23 24 23
17 16 16 17 16 16 16 21 19 18 19 20 20 23 22 23 23 23 23 22 23 23 25 24 22 24 23 25 25 26 28 28 25 27 28 28 26 23 23 22 22 22 22 23 25
17 16 15 16 17 17 19 20 18 17 17 19 21 21 21 22 22 22 22 21 21 22 23 24 22 22 22 23 23 26 26 29 28 30 29 28 24 24 24 23 20 18 18 21 22
17 16 16 17 17 17 21 16 18 16 17 19 21 21 21 21 22 22 21 20 20 20 21 23 21 22 22 22 24 25 27 26 27 26 27 26 24 24 22 20 19 17 16 17 22
17 19 16 17 17 20 20 17 17 15 16 18 19 20 21 19 21 19 18 18 18 20 21 23 24 22 22 22 24 24 25 26 28 27 28 26 25 22 20 17 17 16 15 15 15
17 21 16 18 20 19 18 17 14 17 16 17 17 19 19 20 19 18 17 17 16 18 21 21 24 23 22 20 20 22 24 25 26 25 27 28 22 21 20 18 18 16 14 13 14
18 17 16 17 20 18 17 16 15 17 16 17 16 17 18 18 18 18 18 15 15 18 19 20 22 21 21 21 20 22 21 22 24 26 26 27 21 21 20 18 18 16 16 13 13
17 19 17 16 16 18 17 16 16 14 15 15 16 17 18 18 19 17 18 17 16 16 14 17 21 21 22 22 22 21 20 21 23 26 26 26 20 20 20 19 18 16 16 15 13
16 16 13 17 16 17 17 16 16 15 15 15 15 16 17 17 17 17 18 18 17 15 17 20 19 19 19 19 20 20 20 20 22 22 24 23 21 20 19 18 17 17 16 16 15
17 17 15 15 14 17 15 15 15 15 16 15 15 15 16 16 16 16 17 18 17 18 18 18 17 18 18 17 18 19 19 18 19 20 21 23 19 18 17 16 16 15 15 14 14
13 13 16 13 16 18 16 15 14 14 13 13 14 15 14 13 13 13 14 15 15 16 17 17 17 17 19 17 17 18 20 20 19 19 21 21 19 18 17 16 15 15 14 13 13

GFSSW_850_temp_087.txt.gz
Temp
13 13 13 14 14 14 14 15 15 15 16 17 16 16 17 18 18 18 17 20 19 21 20 21 22 22 23 25 24 24 24 25 26 26 24 22 20 18 20 23 24 25 25 23 22
13 13 13 13 14 14 14 15 15 15 16 17 17 17 17 18 18 17 19 20 20 20 20 22 23 23 25 26 25 26 24 26 28 28 25 23 20 19 21 24 24 25 24 23 22
13 13 13 13 13 14 14 14 15 16 16 16 17 17 17 17 16 22 21 21 21 21 21 23 24 25 27 27 26 26 26 28 28 27 26 23 20 20 21 23 24 24 23 22 23
13 13 13 13 13 14 14 14 15 15 16 16 16 17 17 16 25 20 20 21 21 21 22 24 25 26 28 29 25 26 27 28 28 27 27 25 22 21 22 21 24 23 23 23 23
12 13 13 13 13 13 14 14 15 15 16 16 16 16 17 18 21 20 21 21 20 19 23 24 25 27 29 30 26 26 28 29 28 28 26 25 24 22 22 22 22 22 23 23 24
12 12 13 13 13 13 14 14 15 15 16 16 16 16 16 21 20 20 19 20 19 20 23 24 26 27 29 30 28 29 29 30 30 30 27 25 25 24 21 21 21 22 23 24 24
12 13 13 13 13 14 14 15 15 16 16 16 16 16 16 22 20 19 19 20 20 22 24 25 26 27 28 29 29 29 30 30 31 29 28 27 25 23 20 21 21 23 24 24 24
13 13 13 13 14 14 15 15 15 16 16 16 16 16 21 20 20 20 21 21 21 22 24 24 24 26 27 29 29 29 30 28 30 29 28 27 23 22 18 20 22 24 24 24 24
13 13 14 14 14 15 15 15 16 16 16 16 16 15 22 19 20 21 21 22 22 23 24 23 24 26 27 29 29 30 30 28 29 30 29 26 24 23 21 20 22 24 25 25 24
13 14 14 15 15 15 15 15 15 15 15 16 15 18 19 21 21 21 21 22 23 23 23 23 25 28 29 29 29 30 31 31 29 30 31 26 26 23 22 20 21 24 24 24 24
14 15 15 15 15 15 15 14 15 16 15 22 22 22 22 22 21 21 22 22 23 23 25 25 27 27 29 30 32 33 32 30 25 32 30 28 27 24 20 22 23 23 23 24 24
15 15 15 15 15 15 16 18 18 18 21 20 21 22 23 22 22 22 21 23 23 25 26 26 26 29 30 31 31 31 32 31 29 32 31 31 28 26 25 25 24 23 23 23 24
16 15 15 15 16 16 17 18 17 18 21 22 21 22 22 22 23 23 22 24 25 25 27 27 28 30 30 30 29 31 32 31 31 30 32 31 28 26 24 25 24 23 23 23 24
16 16 16 16 16 17 18 18 18 18 22 23 23 23 23 23 25 23 23 25 26 26 27 27 30 29 28 29 29 30 33 32 31 30 30 32 29 28 26 24 24 23 22 23 23
16 16 16 16 17 18 18 18 18 18 21 24 24 23 23 24 25 24 23 25 26 27 27 27 28 27 27 29 30 31 32 31 31 31 31 31 25 20 28 25 25 23 23 23 23
16 16 16 16 17 17 18 18 18 20 20 23 24 24 25 25 25 24 24 24 26 27 27 29 28 28 29 30 30 30 31 30 30 31 30 32 31 20 27 27 27 25 23 24 23
16 17 17 17 18 18 18 19 21 21 23 23 24 24 25 25 26 25 25 25 25 25 25 27 27 28 29 29 29 29 29 28 27 29 30 33 31 22 27 27 28 26 26 26 24
17 17 17 17 16 17 18 22 18 21 22 24 22 24 25 26 25 25 25 25 26 27 27 25 25 27 28 29 28 28 29 29 27 29 30 33 28 26 27 26 25 24 25 25 27
17 18 18 19 18 17 19 20 16 21 19 22 21 21 24 25 26 26 25 25 26 26 24 26 26 27 27 28 28 28 28 32 31 32 32 30 26 26 26 25 21 18 20 23 26
18 20 20 19 18 19 22 19 21 19 19 22 19 20 22 24 24 25 24 24 24 25 25 26 25 26 26 26 27 27 30 29 30 29 29 29 26 27 25 23 19 17 18 19 22
18 21 20 19 20 21 19 21 21 18 19 21 20 20 20 23 23 23 23 22 22 24 25 27 27 25 25 26 27 27 27 29 31 31 31 27 27 27 23 21 18 16 15 15 17
20 23 20 20 22 23 22 21 18 20 19 21 22 23 21 21 22 22 22 22 20 22 24 26 26 25 25 26 26 27 28 29 28 28 30 28 24 25 24 21 18 16 14 15 16
21 21 20 20 22 22 20 20 20 21 20 21 21 21 23 21 20 22 21 19 19 23 23 24 25 24 24 25 25 25 27 27 29 30 28 29 23 24 23 22 19 16 16 14 15
20 23 21 21 21 22 21 20 19 18 19 19 19 21 22 22 23 21 22 20 20 19 17 19 25 25 23 25 26 25 25 26 27 27 28 28 23 23 23 20 18 17 16 15 14
20 20 19 21 21 21 21 20 20 19 19 19 19 20 21 21 22 22 22 21 21 19 20 23 22 23 23 23 25 26 25 25 25 27 27 24 24 24 23 22 18 17 17 16 16
20 20 19 19 19 21 17 19 19 19 19 19 19 19 20 20 20 21 22 22 22 21 22 23 22 22 22 22 23 23 23 23 25 25 26 25 22 22 21 20 20 19 17 16 15
17 17 19 18 20 21 19 19 18 18 17 17 18 19 18 17 18 18 19 20 20 21 21 21 22 21 21 22 22 22 23 23 24 24 26 24 22 21 21 20 19 18 17 16 15

GFSSW_850_temp_093.txt.gz
Temp
14 14 14 14 14 14 14 15 15 15 16 16 16 17 18 18 18 18 20 22 21 20 20 20 21 21 21 22 23 23 20 22 23 22 20 19 20 19 20 22 24 24 23 23 23
14 14 14 14 14 14 14 14 15 15 15 16 16 16 17 18 18 20 23 22 21 21 20 20 21 22 22 24 25 22 21 24 26 23 22 21 20 19 21 22 20 24 24 24 22
13 14 14 14 14 14 14 14 15 15 15 16 16 16 17 17 19 22 23 22 22 21 21 21 22 23 23 25 24 19 20 26 26 23 22 21 20 20 20 22 24 24 24 24 23
13 13 13 14 14 14 14 14 15 15 15 16 16 16 16 17 20 22 23 22 22 21 22 21 22 24 24 25 20 17 20 25 25 24 23 22 21 21 21 20 24 24 24 24 24
13 14 13 13 14 14 14 14 15 15 15 15 16 16 16 16 20 22 22 22 21 21 22 20 21 25 25 27 21 19 26 25 26 25 24 23 22 21 19 21 24 24 24 25 24
13 14 14 14 14 14 14 15 15 15 15 15 15 16 16 15 22 22 22 22 22 22 23 21 23 26 27 27 27 26 25 25 26 25 24 23 22 22 19 22 23 24 24 25 25
14 14 14 14 14 15 15 15 16 16 16 16 16 16 15 20 21 22 22 22 23 22 22 23 24 26 28 27 27 25 25 23 27 25 25 24 22 21 21 22 24 24 25 25 25
15 15 15 15 15 15 15 16 16 16 16 16 16 16 17 22 22 21 21 20 21 22 22 24 25 26 27 28 27 26 22 21 26 25 24 24 20 22 22 23 24 24 25 25 25
15 15 15 15 15 15 16 16 16 16 16 16 16 16 17 22 22 22 22 21 21 22 23 23 26 26 27 25 24 25 23 23 25 26 25 23 21 22 22 22 24 24 25 25 25
16 16 15 16 16 16 16 16 16 16 16 16 15 14 20 21 22 23 23 23 23 23 23 24 26 23 22 22 22 25 25 26 24 20 20 21 22 21 21 23 24 24 25 25 25
16 16 16 16 16 16 16 16 15 16 15 17 19 20 22 23 23 23 23 24 24 24 22 25 21 20 21 23 26 27 27 25 20 22 19 21 21 21 21 23 24 24 25 25 25
16 16 16 16 17 17 17 17 19 20 20 20 21 21 22 23 23 23 24 24 24 22 23 22 20 23 25 26 27 27 27 21 21 21 21 20 21 21 21 23 24 24 25 25 25
16 16 16 16 17 17 17 18 20 20 20 21 22 21 23 24 24 24 24 24 23 22 23 21 23 25 26 26 27 27 26 24 23 21 19 20 19 21 21 24 23 23 24 25 25
16 16 16 17 17 17 18 20 20 21 17 21 22 23 24 24 24 24 24 24 25 23 23 23 25 26 26 26 27 24 28 28 23 23 21 22 18 17 20 20 22 22 23 24 24
17 16 16 16 17 17 20 20 20 20 17 24 23 24 24 24 25 25 24 24 23 24 24 23 25 25 26 27 28 27 28 27 26 24 22 21 19 19 19 20 21 22 23 24 24
16 17 17 17 17 19 19 20 20 17 19 24 25 24 23 24 24 25 24 24 25 24 24 25 28 27 27 29 29 29 29 27 25 21 22 24 22 18 18 20 20 22 23 23 23
17 17 17 17 18 19 20 20 17 15 19 21 21 24 24 23 24 24 24 22 21 21 21 25 26 27 29 27 27 27 27 22 23 21 22 24 23 18 19 18 19 19 20 23 23
17 18 18 19 19 19 20 18 16 16 17 20 20 22 22 24 24 25 23 22 23 23 22 21 22 26 28 27 25 25 24 21 23 23 24 25 18 19 19 20 19 19 20 18 21
18 19 19 20 20 20 19 14 14 16 18 19 21 22 23 24 22 22 23 22 24 24 22 21 23 27 28 28 27 25 24 25 25 25 24 21 19 18 20 18 18 18 21 17 18
18 19 20 21 20 19 17 14 14 18 19 21 19 20 19 21 18 15 18 24 22 24 25 23 21 25 28 28 28 26 25 22 22 24 24 20 20 19 19 20 19 17 16 15 17
18 18 22 21 21 19 12 15 19 21 21 20 20 20 19 19 16 15 16 19 22 23 23 22 21 22 26 25 25 24 22 24 23 23 22 19 19 17 18 18 18 17 15 15 15
17 18 22 22 17 15 13 14 19 21 21 21 21 20 20 19 17 17 16 19 22 23 21 21 20 20 23 26 26 25 24 23 20 22 21 18 17 16 18 17 17 16 14 14 15
15 18 23 22 18 15 16 20 21 22 20 21 21 21 21 20 18 16 17 20 22 21 19 19 18 19 21 24 25 24 24 24 23 21 22 21 16 16 17 17 16 16 14 14 14
16 19 23 23 22 21 21 21 20 21 21 21 20 21 20 19 20 19 19 22 22 22 21 19 20 18 16 20 22 24 25 25 24 20 20 19 17 17 16 16 16 15 15 14 14
17 20 21 18 20 20 20 21 21 20 21 21 20 21 19 16 17 20 20 22 22 22 22 18 18 19 20 22 23 23 24 25 25 22 20 19 18 17 17 16 16 15 15 15 15
19 19 20 21 21 21 19 20 19 20 19 19 19 21 17 16 15 16 17 19 21 20 22 21 16 19 19 23 23 22 25 26 25 22 19 18 17 17 17 17 17 16 16 16 15
17 17 18 20 20 19 18 19 20 20 20 19 19 18 17 18 18 18 18 20 20 19 18 19 17 18 17 19 22 20 22 23 23 22 20 17 15 16 17 17 17 17 16 16 15

GFSSW_850_temp_096.txt.gz
Temp
14 14 14 14 14 14 14 15 15 15 16 16 16 17 17 18 18 19 21 22 21 21 21 20 20 21 20 19 20 20 19 20 19 20 20 19 21 22 21 23 22 23 21 20 19
14 14 14 14 14 14 14 14 14 15 15 16 16 16 17 18 18 20 23 22 21 20 20 21 21 21 20 21 21 20 19 22 22 22 21 21 20 20 21 23 22 22 21 20 19
14 14 14 14 14 14 14 14 14 14 15 15 16 16 17 17 19 22 22 23 22 21 21 21 21 21 21 22 22 18 19 20 24 22 21 21 20 20 20 20 22 21 20 20 20
14 14 14 14 14 14 14 14 14 14 15 15 16 16 17 17 19 21 22 23 22 21 20 21 20 21 21 21 20 19 19 19 22 22 22 21 21 22 21 21 23 23 22 21 20
14 14 14 14 14 14 14 14 14 15 15 15 15 16 16 17 21 22 22 22 22 21 21 21 20 20 20 22 20 21 20 18 20 22 22 21 21 21 21 22 23 22 22 21 21
14 14 14 14 14 14 14 15 15 15 15 15 15 15 15 14 22 21 21 22 22 22 22 21 21 22 22 22 22 22 22 19 21 22 22 21 20 22 21 22 24 23 22 22 21
15 15 15 15 15 15 15 15 15 15 15 15 15 15 15 21 21 21 21 21 22 23 22 22 23 21 23 25 26 24 23 23 23 21 22 22 21 21 22 22 24 24 23 23 22
15 16 15 15 15 15 15 15 16 16 15 15 15 15 18 22 20 21 21 21 21 22 23 23 22 21 22 25 26 24 22 21 21 23 23 22 20 21 22 21 23 24 24 23 22
15 15 15 15 15 16 16 16 16 16 16 15 15 14 19 21 21 22 21 22 21 22 23 23 22 22 24 23 21 22 22 21 21 21 23 21 19 21 21 21 24 24 24 24 22
15 15 16 15 15 16 16 16 16 16 16 15 14 13 20 21 22 22 22 22 21 22 22 22 22 20 19 18 19 22 22 21 21 20 20 19 20 21 21 22 24 24 24 22 22
16 16 16 16 16 16 16 16 15 15 16 19 20 19 21 22 22 22 22 22 22 22 19 22 19 19 20 20 21 22 24 20 19 19 19 19 20 20 21 22 23 24 24 23 22
16 16 16 16 17 17 17 17 19 18 17 20 20 19 21 21 22 23 22 22 22 20 20 19 19 21 22 22 23 22 24 20 20 19 19 19 20 20 21 19 22 24 23 24 22
16 16 17 17 17 17 18 19 19 18 16 20 21 21 21 22 21 23 23 23 22 20 20 18 21 23 23 22 22 22 23 21 21 19 19 20 18 18 21 21 23 23 24 24 23
16 17 17 17 17 18 19 19 19 19 13 17 20 22 23 23 22 23 23 23 22 21 21 20 22 23 22 22 23 20 24 24 20 20 19 20 18 17 18 20 23 23 23 24 24
16 16 17 17 17 18 19 19 19 19 14 20 21 23 24 23 23 23 24 23 22 22 20 20 23 22 22 23 23 24 27 25 22 20 20 18 18 17 17 19 21 21 23 23 24
16 17 17 17 18 19 18 19 20 14 15 20 22 21 22 23 23 24 24 24 24 22 22 21 25 23 23 25 25 27 25 23 20 19 19 19 20 18 18 19 21 22 22 23 23
16 17 18 18 19 19 18 19 14 14 17 19 18 19 19 20 21 22 22 20 19 19 19 21 22 24 25 24 24 26 20 18 20 19 20 20 20 19 20 21 21 22 22 22 22
17 18 19 20 19 19 18 14 15 16 15 18 19 18 18 20 19 20 20 19 20 19 18 19 19 23 25 23 23 24 21 18 21 20 21 22 21 19 20 21 21 21 21 20 22
19 19 20 20 19 19 18 12 14 16 16 17 17 17 19 19 18 18 17 18 21 20 19 19 20 23 25 26 24 24 22 21 21 22 21 18 17 19 17 17 18 18 18 18 20
19 19 21 20 19 19 13 13 13 15 18 18 18 18 17 15 16 15 16 19 19 21 19 20 20 21 23 26 24 23 23 22 18 22 21 18 17 17 16 17 17 16 15 16 16
19 18 20 21 20 18 12 12 16 18 18 19 18 18 15 15 14 15 15 17 19 19 19 19 18 19 22 23 22 22 21 21 19 19 19 18 17 18 17 17 16 15 15 15 16
18 14 20 20 18 11 10 13 17 19 21 20 20 18 16 17 16 15 16 16 20 19 18 18 15 17 21 21 24 22 22 19 19 22 17 15 17 17 16 16 15 14 14 15 16
16 17 21 20 15 12 14 15 17 19 19 20 19 19 18 16 15 16 17 18 19 19 19 18 15 15 18 19 20 22 23 20 18 19 19 17 17 16 15 15 15 14 14 14 15
16 14 21 21 19 17 17 17 19 20 20 20 20 19 19 19 16 16 16 20 20 21 20 17 14 16 16 18 19 20 21 22 18 18 16 15 16 16 15 15 15 14 13 13 14
17 15 18 15 16 17 15 17 17 17 18 18 18 19 18 16 16 17 18 18 21 21 20 17 15 17 18 19 20 21 21 21 20 19 19 16 17 16 14 15 15 14 14 13 13
16 15 17 17 19 17 14 17 17 17 17 16 15 16 15 15 16 17 15 15 16 18 17 15 18 16 17 19 19 20 20 21 22 19 17 17 16 15 15 15 15 15 14 14 14
15 16 16 17 14 14 15 17 17 18 17 17 16 15 15 16 17 18 17 17 17 18 17 15 14 16 16 17 18 17 18 20 21 19 17 16 16 16 16 16 15 15 15 14 14

GFSSW_850_temp_102.txt.gz
Temp
14 14 13 13 14 14 14 14 14 15 15 15 16 16 16 17 17 18 20 21 21 21 20 20 20 19 19 18 19 19 18 19 18 19 18 19 20 21 20 20 20 20 18 18 18
14 14 14 14 13 14 14 14 14 14 15 15 15 16 16 17 18 19 21 21 21 20 20 20 20 19 19 19 20 19 18 20 19 19 18 19 21 20 20 19 18 17 17 17 18
14 14 14 14 14 14 14 14 14 14 15 15 15 15 16 17 18 22 21 21 21 21 21 20 20 20 20 20 20 18 19 19 18 18 19 19 20 21 19 18 18 16 17 18 18
15 15 15 14 14 14 14 14 14 14 15 15 15 15 16 17 19 20 20 22 21 20 20 19 20 20 18 19 20 19 19 19 18 19 20 20 19 21 20 19 20 20 20 19 18
15 15 15 15 14 14 15 15 15 14 15 15 15 15 15 16 20 20 21 21 20 20 20 19 20 20 19 20 19 20 19 19 20 20 21 21 20 18 17 20 20 20 19 19 18
15 15 15 15 14 14 15 15 15 15 15 15 15 15 15 15 20 21 21 21 21 20 20 20 20 21 20 21 20 21 21 20 21 20 21 19 19 19 17 19 18 19 19 19 19
15 15 15 15 15 14 15 15 15 15 15 15 15 14 15 19 19 20 20 21 21 20 20 20 20 21 20 21 22 21 20 21 19 21 20 20 19 19 17 18 19 19 18 18 19
15 15 15 15 15 15 14 15 15 15 15 15 14 14 17 19 19 20 19 20 19 19 19 21 20 20 21 21 22 20 21 20 19 20 19 20 19 18 17 18 19 19 18 18 19
15 15 15 15 16 16 16 15 15 15 15 15 14 14 18 19 19 19 19 19 19 19 19 20 20 20 21 20 18 19 19 20 20 19 20 20 18 18 16 18 19 19 18 18 19
15 15 16 16 16 16 16 16 15 15 15 14 14 14 19 19 20 19 19 19 18 19 19 19 20 17 16 17 18 20 20 21 21 20 20 19 19 19 19 19 20 19 19 19 19
15 15 15 16 16 16 17 16 15 14 14 16 17 18 19 19 20 20 20 19 19 19 16 19 16 16 18 19 20 22 21 20 19 18 18 18 19 19 19 21 20 20 19 20 20
15 15 16 16 16 17 17 17 16 15 14 18 17 17 19 19 19 20 20 20 19 17 17 17 16 18 19 20 20 20 20 18 18 18 18 18 19 20 19 19 18 20 20 20 21
15 16 16 16 17 17 17 17 16 15 14 17 18 19 20 20 21 20 20 20 18 18 18 17 20 19 20 20 21 20 21 18 19 18 17 18 18 18 19 20 19 19 20 21 21
15 16 17 16 17 17 18 17 17 17 12 17 19 20 21 21 21 22 21 21 20 18 17 19 20 20 21 20 20 20 21 21 19 18 18 18 18 17 19 18 20 20 21 19 20
15 16 17 17 17 18 18 18 18 17 14 18 19 21 20 21 21 21 21 22 19 19 18 19 20 20 20 21 20 22 22 21 19 17 18 18 18 18 17 18 17 17 19 20 20
15 16 17 17 18 18 18 18 18 14 16 17 18 17 20 21 21 21 22 22 21 20 19 19 21 21 20 21 21 21 19 17 16 16 18 18 19 17 16 18 18 18 19 21 20
15 17 18 18 19 18 18 18 14 13 16 17 16 15 16 18 20 20 20 19 18 17 18 19 20 21 22 21 21 22 18 15 16 16 17 16 18 18 17 18 20 19 20 21 21
16 18 19 19 19 19 18 15 14 16 15 15 16 16 16 16 16 16 18 17 18 17 14 16 18 19 20 20 19 18 18 16 18 16 18 17 18 19 17 18 20 20 20 21 21
18 19 20 19 19 19 18 12 14 14 15 15 16 15 15 15 16 15 16 16 18 17 17 16 18 20 21 20 21 20 18 19 17 17 17 16 17 17 17 18 19 19 19 19 21
19 19 19 19 19 19 13 13 14 14 15 16 16 15 15 14 16 15 16 18 18 18 16 17 17 19 21 22 21 20 19 19 15 18 19 17 16 17 17 17 16 16 17 18 19
19 19 18 18 18 18 12 12 14 16 16 17 16 16 15 15 14 14 16 18 18 17 16 16 16 18 20 20 19 20 19 16 15 15 16 16 16 17 16 17 16 15 16 18 18
18 14 17 17 16 8 11 12 15 17 17 17 17 16 16 15 15 15 16 16 17 17 18 16 13 16 19 20 18 20 19 17 17 17 14 15 16 16 16 16 15 15 15 15 17
18 17 17 17 13 12 12 15 16 16 16 17 18 18 16 15 16 16 16 18 18 18 18 16 13 15 18 18 18 18 19 16 14 14 15 17 16 16 15 15 15 15 15 15 16
17 13 18 18 15 13 14 16 17 17 16 15 17 17 16 15 14 16 16 18 18 18 17 16 12 15 15 16 15 18 18 19 16 16 14 15 16 16 15 15 14 14 14 14 14
16 12 14 13 13 12 14 15 16 15 16 16 16 15 16 15 15 14 15 14 18 17 16 14 15 16 17 17 17 18 16 17 20 17 19 16 16 16 15 15 14 13 13 13 14
16 15 14 13 14 14 11 14 16 15 14 15 14 14 15 14 14 15 14 14 16 15 14 11 14 16 17 17 17 17 17 16 17 16 16 15 15 14 15 14 14 13 13 13 13
15 15 14 12 12 12 13 15 16 15 16 15 15 15 14 15 16 16 16 15 14 14 14 12 12 12 16 14 17 15 16 14 15 16 15 16 15 14 14 14 14 13 13 12 12

GFSSW_850_temp_105.txt.gz
Temp
14 14 14 14 14 14 14 14 14 15 15 15 15 16 16 17 17 18 20 21 20 20 19 20 19 18 18 18 19 18 19 20 18 19 18 19 21 20 20 20 20 19 19 18 16
14 14 14 14 14 14 14 14 14 14 15 15 15 16 16 17 18 19 21 21 20 20 19 20 19 19 19 20 20 20 20 20 18 18 19 21 21 20 20 20 18 17 16 16 16
15 15 15 15 14 14 14 14 14 14 14 15 15 15 16 17 18 20 20 21 20 20 20 20 20 20 20 20 21 20 20 19 17 17 18 20 21 21 20 20 19 18 17 16 16
15 15 15 15 15 15 15 15 15 15 15 14 15 15 16 16 21 19 21 22 20 19 19 19 20 20 19 21 21 20 20 19 17 17 17 19 20 19 20 20 19 18 18 17 17
15 15 15 15 15 15 15 15 15 16 15 15 15 15 15 16 19 20 20 20 20 18 19 19 19 20 22 21 21 21 20 19 17 19 21 19 20 18 18 18 18 18 18 18 18
15 15 15 15 15 15 15 15 15 15 15 15 15 15 15 16 19 20 20 20 20 18 19 19 20 21 21 22 22 21 21 20 19 19 21 18 18 19 17 18 18 18 18 18 18
15 15 15 15 15 15 15 15 15 15 15 15 15 15 15 18 19 20 20 20 19 19 19 20 20 20 20 22 21 21 21 22 21 20 20 18 18 18 17 19 19 19 19 18 18
15 15 15 15 15 15 15 15 15 15 15 15 15 15 17 18 19 19 19 18 18 19 19 20 20 20 21 21 22 22 22 22 20 21 19 20 18 17 17 18 19 19 19 18 18
15 15 15 16 15 16 16 16 15 15 15 15 15 15 17 18 18 19 19 19 18 18 19 19 19 20 21 23 22 23 22 21 20 19 19 19 18 16 17 18 20 19 19 19 18
15 15 15 16 16 16 16 16 15 15 15 14 15 14 18 18 18 19 18 18 18 18 19 19 20 22 22 24 24 23 22 22 20 20 20 21 20 17 16 16 20 20 20 19 19
15 15 15 16 16 16 17 16 15 15 14 16 16 17 18 18 18 18 19 18 18 19 20 20 21 21 23 24 24 24 24 21 20 19 19 19 20 17 15 18 19 19 19 20 20
15 15 15 16 16 17 17 16 16 16 16 17 17 17 18 18 18 18 18 19 19 20 19 21 21 22 23 23 24 24 23 21 19 18 19 18 19 19 17 18 21 20 20 20 20
15 15 15 16 16 17 17 17 16 15 15 17 18 18 19 19 19 18 19 19 20 20 21 22 23 22 22 23 24 23 24 21 22 19 19 18 18 18 19 19 19 19 20 20 21
14 15 16 16 17 17 17 17 17 16 18 19 20 19 19 19 21 20 20 21 20 21 21 22 22 22 22 23 24 23 24 22 20 21 22 20 18 18 19 17 17 20 19 21 21
15 15 16 16 17 17 17 17 17 17 18 20 20 20 19 20 21 20 20 21 22 21 21 22 22 22 22 23 23 23 24 22 22 21 21 19 19 20 19 19 18 19 21 21 21
15 15 16 17 18 18 18 17 17 18 17 19 19 19 21 21 21 20 20 21 21 22 22 22 21 23 24 24 22 22 23 21 21 21 21 23 21 20 19 21 21 19 19 21 21
15 16 18 18 18 18 18 17 18 17 18 18 18 18 19 20 21 22 22 22 22 21 21 22 22 23 23 23 22 23 23 22 21 21 22 21 21 25 21 21 22 21 20 20 21
17 18 19 18 19 19 18 18 17 17 17 17 18 18 19 18 19 20 21 21 20 21 21 21 21 23 23 24 24 23 24 24 22 22 23 20 22 24 21 21 21 21 21 20 20
18 19 19 19 19 18 17 17 17 17 17 18 18 19 19 18 19 19 19 20 20 21 21 21 21 22 22 24 25 23 23 25 24 22 24 22 21 21 20 21 20 21 20 20 20
19 19 19 19 19 18 19 16 17 15 16 17 18 17 19 18 19 20 19 19 20 20 19 21 21 22 23 23 22 24 26 24 24 23 23 22 21 23 20 20 22 21 20 20 20
19 19 18 18 18 18 18 16 16 16 16 18 18 18 17 17 17 18 18 19 19 19 18 20 21 22 22 23 24 23 24 23 25 23 25 24 24 21 21 20 20 20 20 19 19
19 19 17 17 18 11 17 16 15 18 16 18 18 18 18 17 18 18 20 19 17 19 20 19 21 22 23 22 21 23 25 25 25 23 22 23 24 19 20 19 18 17 17 18 19
18 17 17 18 19 17 15 17 17 19 18 19 19 19 18 18 18 18 18 18 18 19 20 19 19 21 22 23 21 22 22 22 23 24 23 25 24 18 18 17 17 16 16 16 16
17 19 17 17 15 17 18 18 18 17 17 16 18 18 18 18 17 17 18 19 18 18 16 18 19 21 22 21 20 21 21 21 24 25 25 25 21 18 17 17 16 15 15 15 15
17 15 15 18 16 15 17 17 17 17 16 16 17 17 18 18 18 17 17 18 19 17 17 18 20 19 20 19 20 20 20 20 23 23 25 24 22 21 17 17 15 14 14 14 15
16 15 14 13 13 16 15 16 17 16 16 17 17 17 17 17 17 17 17 17 17 18 18 17 18 18 20 20 21 20 20 21 21 21 22 22 22 21 17 16 14 14 14 13 14
15 15 15 12 15 17 16 17 17 16 15 15 15 17 17 16 16 16 15 15 16 17 17 17 17 18 20 18 20 21 19 19 18 19 20 22 21 19 16 15 14 14 14 13 13

GFSSW_850_temp_108.txt.gz
Temp
15 15 15 15 14 14 14 14 14 15 15 15 15 16 16 17 17 18 19 19 20 20 19 18 19 20 20 22 20 21 20 23 22 20 21 23 24 22 22 23 23 23 23 20 19
15 15 15 15 15 15 14 14 14 14 15 15 15 16 16 17 17 18 20 20 20 20 18 19 21 21 22 23 23 23 23 23 21 20 21 23 23 23 23 24 23 23 21 20 19
15 15 15 15 15 15 15 15 15 14 15 15 15 15 16 17 17 21 20 20 20 20 19 21 22 22 24 23 24 24 22 23 19 18 20 23 23 23 24 24 23 22 20 20 20
15 15 15 15 15 15 15 15 15 15 15 15 15 15 16 17 23 18 20 21 21 19 20 21 22 24 25 25 24 24 23 23 19 17 20 22 23 22 24 24 23 22 21 20 20
15 15 15 15 15 15 15 15 15 15 15 15 15 15 15 16 20 19 20 21 20 18 20 21 23 24 26 25 25 24 22 20 17 17 19 19 21 21 22 22 22 21 21 21 21
15 15 15 15 15 15 15 15 16 15 15 15 15 15 14 20 19 19 19 18 18 19 21 22 23 24 26 25 25 24 23 20 17 18 18 20 20 21 21 22 21 21 22 22 22
15 15 15 15 15 15 15 15 16 16 16 15 15 15 14 20 18 19 18 18 19 20 21 22 22 23 25 26 24 22 23 22 19 21 21 18 20 19 21 22 22 22 22 22 22
15 15 15 15 15 16 16 15 15 16 16 15 15 15 18 18 18 17 17 18 18 20 21 21 22 23 24 24 25 24 24 22 19 20 21 22 20 18 20 22 23 23 22 22 22
15 15 15 15 15 16 16 16 16 16 16 16 15 13 21 18 18 18 18 19 19 20 20 20 22 24 24 26 26 26 23 22 19 18 18 18 19 17 18 22 23 23 23 22 22
14 15 15 15 16 16 17 17 16 16 16 15 15 15 19 20 18 18 19 19 20 20 21 22 23 25 27 28 25 27 24 23 21 20 19 19 18 18 17 21 23 23 23 23 22
14 15 15 16 16 17 17 17 14 14 13 19 20 20 20 19 19 19 19 20 20 21 24 23 25 25 27 28 28 28 28 22 22 21 19 19 18 18 18 20 24 24 24 23 23
14 15 15 16 16 17 17 16 17 16 19 18 17 17 18 19 20 20 20 22 22 23 25 24 25 27 27 27 27 28 28 24 21 21 20 19 20 17 17 19 24 24 24 24 23
14 15 15 16 17 17 17 17 17 15 19 20 19 20 20 19 22 21 20 22 23 24 24 26 27 26 25 26 27 28 28 26 24 20 19 19 19 18 16 17 22 24 24 24 24
14 15 15 16 17 17 17 17 17 17 21 22 22 21 20 21 23 21 21 23 24 24 25 26 26 25 25 26 27 27 27 27 24 24 21 20 20 19 17 17 20 22 23 24 24
14 15 16 16 17 17 17 17 17 16 20 22 23 20 21 23 22 22 22 23 24 25 25 26 25 25 25 26 26 26 26 26 26 26 25 24 22 20 19 18 18 20 23 24 24
15 16 16 17 18 17 18 18 16 21 19 22 22 23 23 23 23 22 22 22 23 25 25 26 26 26 27 27 25 25 25 25 25 26 26 26 24 20 22 23 24 19 23 24 24
16 17 18 18 17 18 18 17 22 21 21 21 22 23 24 24 24 24 23 24 24 23 23 24 25 26 26 26 25 24 25 23 22 24 25 27 25 27 25 24 26 24 22 23 24
18 18 18 19 19 18 17 22 20 20 21 22 22 23 24 23 23 24 24 24 24 25 26 24 23 25 26 27 26 25 24 25 23 24 27 24 26 27 26 25 25 25 24 22 24
18 18 19 19 19 18 20 21 20 21 21 22 23 23 23 23 23 24 24 24 25 25 24 25 25 27 27 27 27 26 25 28 27 28 27 24 26 25 23 25 24 25 24 24 22
19 18 18 19 19 18 23 19 21 21 21 22 22 22 23 23 23 23 23 24 24 24 24 25 24 26 26 27 27 28 28 27 27 26 26 26 26 28 24 23 25 25 24 24 22
19 21 19 19 19 21 22 21 21 21 20 22 22 22 22 22 23 23 23 23 23 24 23 25 25 25 26 25 26 26 26 28 29 29 28 27 27 28 25 25 26 25 25 24 23
19 23 19 19 22 22 22 21 19 22 21 22 22 22 22 22 22 23 23 23 21 23 23 25 25 25 26 27 28 28 27 28 27 26 27 28 26 23 24 25 24 24 24 24 23
20 20 19 20 22 22 21 22 21 22 22 22 22 22 22 22 21 22 22 21 21 23 24 24 25 24 25 26 26 26 27 28 29 29 28 27 28 23 23 22 22 21 22 22 22
19 22 20 20 20 22 22 21 21 20 21 21 21 22 22 21 22 21 22 22 21 22 18 20 25 24 24 25 27 25 26 27 28 27 28 29 28 24 22 22 20 20 20 19 19
18 22 20 22 22 22 22 21 21 21 21 21 21 21 21 21 21 21 22 22 22 19 21 23 23 24 25 24 25 25 26 26 27 27 28 29 29 29 25 22 20 19 17 17 17
19 20 18 20 19 22 18 21 21 21 20 21 20 20 21 21 21 20 21 21 22 22 22 23 22 23 23 24 24 24 25 26 27 28 27 28 28 27 24 20 17 16 15 15 15
15 15 17 18 21 22 21 21 20 20 19 19 19 20 21 20 20 20 20 20 20 21 22 22 23 22 23 23 24 23 23 24 25 25 26 27 26 25 22 19 17 16 16 15 14

GFSSW_850_temp_111.txt.gz
Temp
15 15 15 15 15 15 15 15 15 15 15 16 16 16 17 17 17 17 17 20 19 20 20 21 22 23 24 24 23 23 22 24 24 23 22 25 27 26 25 26 27 26 25 24 23
16 16 15 15 15 15 15 15 15 15 15 16 16 16 16 17 18 17 19 20 20 20 20 22 23 24 25 25 24 24 23 24 25 23 22 26 26 25 26 26 26 26 24 23 23
15 15 15 15 15 15 15 15 15 15 15 16 16 16 16 17 16 23 21 20 21 21 21 23 24 25 26 26 24 26 24 23 22 21 24 25 26 26 27 26 27 25 24 23 23
15 15 15 15 15 15 16 16 16 16 16 15 15 15 16 17 24 20 20 20 21 21 21 23 25 25 28 28 27 25 25 24 21 20 23 26 26 26 26 27 26 24 24 23 23
15 15 15 15 15 15 15 16 16 16 16 16 16 15 16 17 21 19 20 21 21 20 22 24 25 26 29 28 28 26 25 23 21 19 21 23 24 25 26 26 25 24 24 24 24
15 15 15 15 16 16 16 16 16 16 16 16 15 16 15 21 20 20 19 21 20 20 23 24 26 27 27 27 27 26 23 21 20 18 20 23 23 24 25 25 25 24 24 24 25
15 15 15 16 16 16 16 16 16 16 16 16 16 15 15 21 20 20 20 20 21 22 23 24 26 26 28 28 26 23 23 22 19 19 20 21 23 23 25 25 25 25 25 25 25
15 15 15 16 16 16 17 16 16 17 17 16 16 15 19 20 20 20 20 21 22 23 24 25 25 26 27 27 27 24 23 22 20 19 18 19 21 20 24 25 25 26 25 25 25
15 15 15 15 16 16 17 17 16 16 16 16 16 15 22 20 20 21 21 22 22 23 24 24 24 26 27 28 27 25 24 22 19 18 18 20 21 20 21 25 26 26 26 25 25
15 15 15 16 16 17 17 17 17 16 16 15 14 18 21 22 21 21 21 22 23 23 23 23 25 28 29 29 28 27 25 23 20 19 18 19 20 19 19 25 26 26 26 25 24
15 15 16 16 17 17 18 16 15 15 16 21 22 22 22 22 21 22 22 22 23 24 26 25 27 27 29 30 29 25 25 22 22 20 18 18 18 18 21 21 24 25 26 24 24
15 15 16 16 17 17 17 18 20 19 22 21 21 21 22 22 23 22 22 24 24 25 27 27 27 30 30 29 30 27 21 20 22 19 18 17 18 18 17 22 23 24 25 25 24
15 15 16 17 17 18 17 19 19 19 22 22 22 23 22 22 24 23 23 25 25 26 27 28 29 30 30 27 29 30 25 23 23 19 18 17 18 17 19 20 23 24 25 25 24
15 15 16 17 17 18 19 19 18 18 23 23 23 23 22 23 25 24 24 25 27 27 28 28 30 29 29 28 30 28 28 23 23 23 22 22 18 17 18 19 19 21 24 25 24
15 16 16 17 18 18 19 19 19 19 17 24 25 23 23 25 25 24 24 25 27 27 28 28 29 28 27 28 30 28 29 20 26 25 24 22 21 17 17 17 20 21 23 25 26
16 16 17 18 18 18 19 19 19 22 20 24 25 25 25 26 25 24 24 25 26 28 28 29 29 29 29 30 29 28 28 28 26 27 26 24 24 20 19 19 21 21 23 24 23
17 18 18 18 20 19 19 20 21 22 25 24 25 26 25 26 26 26 25 25 26 25 26 27 27 29 29 29 28 27 28 23 21 24 25 27 26 25 23 25 24 24 23 25 23
18 19 19 19 18 18 19 23 22 24 24 25 25 26 25 26 26 26 26 26 27 28 28 27 26 28 29 29 28 28 28 23 24 24 24 29 27 23 26 26 25 25 22 22 26
19 19 18 19 19 18 20 24 23 24 25 25 25 25 25 26 25 26 26 27 27 28 27 28 27 29 29 29 30 28 27 30 24 28 26 26 29 26 28 27 27 26 23 22 25
18 20 21 20 19 19 23 21 23 24 25 25 23 24 24 25 25 26 26 27 26 27 27 28 27 29 29 29 29 29 30 28 29 25 24 23 23 28 26 27 28 28 24 24 24
20 23 21 20 20 21 24 24 24 23 23 24 25 25 25 25 25 24 24 25 26 26 26 27 27 28 28 28 28 28 29 29 30 30 27 25 25 28 27 26 27 28 27 24 25
21 25 21 20 23 25 25 25 22 24 24 25 25 25 25 25 25 25 25 25 25 26 25 27 27 27 28 29 30 30 29 29 29 28 30 29 23 26 29 28 27 28 27 27 26
22 23 22 21 25 25 24 24 24 25 24 24 24 25 25 25 24 24 25 24 24 25 25 26 26 26 27 29 29 29 30 30 31 31 29 29 27 26 27 27 27 27 27 27 26
22 25 23 23 24 25 24 24 24 23 24 23 24 24 24 24 25 23 24 25 24 25 21 23 26 25 24 23 26 27 28 30 30 29 29 30 26 26 26 25 24 25 25 26 25
22 25 24 25 25 25 24 24 23 24 23 23 23 24 24 23 24 24 25 25 24 22 23 25 24 25 26 25 26 28 29 29 29 29 29 31 31 29 28 26 23 22 22 23 20
21 23 23 24 23 24 20 23 23 24 23 24 23 23 24 23 22 20 24 24 24 25 25 26 24 25 24 24 25 27 28 28 29 29 29 30 29 30 27 25 23 20 19 19 17
19 20 21 22 24 25 24 24 23 22 22 22 22 23 23 23 22 23 23 23 24 23 24 24 24 22 24 26 26 24 27 28 28 29 30 28 26 28 23 22 20 18 18 17 17

GFSSW_850_temp_114.txt.gz
Temp
15 15 15 15 16 16 16 16 16 16 16 16 16 16 16 17 17 18 19 20 21 21 21 21 22 23 25 25 25 24 23 23 24 21 19 22 27 24 25 27 27 26 25 25 25
16 16 16 16 16 16 16 16 16 16 16 16 16 16 16 17 17 18 20 20 21 21 21 22 24 25 25 26 25 24 23 24 25 24 21 24 23 25 27 28 27 26 25 25 25
15 15 15 15 16 16 16 16 16 16 16 16 16 16 16 17 17 22 22 21 21 22 20 23 25 26 27 28 27 25 23 25 25 23 21 23 27 28 28 27 27 25 25 25 25
15 16 15 15 15 16 16 16 16 16 16 16 16 17 17 17 23 21 21 21 21 22 20 23 26 27 28 29 28 25 25 24 23 22 19 23 27 27 27 27 27 26 25 25 25
15 16 16 16 16 16 16 16 16 16 16 16 16 16 16 17 20 21 21 21 22 22 21 24 26 27 28 29 27 25 25 24 22 23 20 20 26 26 24 26 26 25 25 25 25
15 15 16 16 16 16 16 16 16 16 16 16 16 16 16 19 23 22 20 21 21 21 22 25 26 28 29 28 26 25 24 23 21 22 21 24 24 26 24 27 26 25 25 25 26
15 15 16 16 16 16 16 17 17 17 17 16 16 16 15 20 22 22 21 20 21 21 23 25 26 28 28 27 26 25 24 23 21 20 22 23 23 26 27 27 26 26 26 26 26
15 15 15 16 16 17 17 17 17 17 17 17 16 16 18 22 21 22 22 22 22 23 24 26 26 27 28 26 26 26 22 21 20 20 18 20 22 24 26 27 26 26 26 26 26
15 15 16 16 16 17 17 17 17 17 17 17 16 16 22 21 21 22 23 24 24 24 25 26 26 27 28 28 27 26 23 19 18 17 18 19 22 23 24 27 27 27 27 26 26
15 15 16 16 17 17 18 18 18 18 17 17 16 17 20 23 23 23 23 24 24 25 25 26 26 27 28 28 27 25 26 21 19 18 18 18 19 23 22 23 27 27 27 26 25
15 15 16 16 17 17 18 18 16 16 18 21 22 23 24 24 23 23 23 24 25 25 25 25 26 26 28 29 28 27 25 21 20 18 18 16 16 19 20 20 25 27 27 25 25
15 15 16 17 17 18 18 17 21 21 22 22 23 23 23 23 23 24 24 25 25 26 27 27 26 29 30 29 26 28 26 20 19 18 18 17 18 18 18 19 23 26 26 25 24
15 16 16 17 18 18 18 19 21 21 22 24 24 24 23 24 25 25 24 25 26 26 27 27 29 30 30 29 27 27 28 22 20 18 18 18 17 16 17 17 18 21 25 25 23
15 16 16 17 18 18 20 21 21 21 21 24 25 24 24 24 25 25 25 26 27 27 28 28 30 30 30 29 28 28 24 21 18 18 20 19 18 17 17 17 17 19 24 24 25
16 16 17 17 18 19 21 21 21 22 19 26 26 24 25 25 26 26 25 26 27 28 28 28 29 30 29 30 28 25 27 22 20 19 20 20 20 18 16 17 18 19 23 23 23
16 17 18 18 19 20 20 21 22 20 20 25 26 26 25 26 27 26 25 26 27 28 29 29 30 31 30 31 30 28 25 22 18 17 20 22 22 20 17 19 21 22 22 23 24
18 19 19 19 20 21 21 22 21 21 26 25 26 26 26 26 27 27 26 26 26 26 27 28 29 30 30 29 30 28 28 23 20 22 22 24 24 23 21 23 23 22 22 23 23
19 19 20 20 19 20 21 23 20 26 26 27 27 26 22 26 27 26 26 26 28 28 28 27 27 29 30 30 29 28 29 26 23 22 22 23 23 22 24 24 23 24 23 24 24
20 20 20 21 20 19 21 22 23 25 26 27 27 25 25 26 26 27 27 27 29 29 27 27 28 30 30 30 31 29 28 30 26 19 23 19 18 25 25 25 23 23 23 23 22
20 19 22 22 21 21 23 23 25 26 26 27 24 25 23 24 26 27 26 28 27 29 29 28 27 30 30 30 30 30 31 28 26 22 22 20 20 18 24 25 26 25 25 24 23
19 21 23 23 22 23 24 25 26 25 25 26 26 26 25 24 26 26 25 27 28 28 28 27 27 29 30 28 28 29 28 29 30 27 23 23 25 21 21 17 26 25 25 24 24
20 23 24 23 24 26 26 26 24 26 25 26 26 26 26 25 25 25 23 26 26 28 27 28 28 27 28 30 31 30 29 30 28 28 29 29 27 23 22 23 27 25 25 25 24
20 23 24 23 24 26 26 26 26 26 26 26 26 26 26 25 25 24 22 25 26 27 24 26 26 25 27 29 30 29 29 30 30 30 29 28 25 24 24 24 27 27 26 25 25
19 25 25 25 25 26 26 26 26 25 25 25 25 25 26 25 26 24 25 25 25 26 23 24 26 26 23 24 25 26 27 30 30 29 29 30 26 27 28 28 28 28 26 25 24
21 24 25 26 26 26 26 25 25 25 25 25 25 25 25 24 25 25 25 24 25 24 25 26 24 25 26 26 26 26 26 28 29 30 29 31 28 27 28 28 27 27 27 23 23
21 23 24 25 25 25 21 25 25 25 24 25 24 25 25 24 23 23 24 25 24 25 24 26 24 25 25 26 26 25 27 27 29 30 30 30 30 28 22 22 16 25 24 21 22
21 21 22 24 25 26 26 25 25 24 24 24 24 24 24 24 24 24 24 25 25 22 18 19 24 23 23 25 24 24 26 26 28 30 29 28 22 22 20 15 15 20 22 19 18

GFSSW_850_temp_117.txt.gz
Temp
16 16 16 16 16 16 16 16 16 16 16 16 16 17 17 17 17 18 19 21 22 21 22 22 22 23 23 23 24 24 19 21 21 21 22 21 24 24 26 25 24 25 23 23 23
16 16 16 15 16 16 16 16 16 16 16 16 16 16 17 17 18 19 22 22 21 21 21 21 22 23 23 25 25 23 20 22 19 22 21 20 23 26 23 23 24 25 23 23 23
15 16 15 15 16 16 16 16 16 17 17 17 16 16 17 17 18 21 23 22 21 21 21 22 23 24 25 26 26 25 22 24 22 23 21 20 21 25 22 23 25 25 24 23 23
15 16 16 16 16 16 16 16 16 16 17 16 17 17 16 16 19 22 22 22 22 21 21 22 22 24 25 25 26 23 25 25 23 21 21 20 19 20 24 25 25 25 25 24 24
15 15 16 16 16 16 16 17 17 17 17 17 16 16 16 16 19 21 22 22 21 21 21 21 23 25 25 27 24 24 24 23 23 21 21 19 19 22 24 25 25 25 25 24 24
15 15 16 16 16 17 17 17 17 17 17 17 17 16 16 16 22 22 22 22 22 22 22 21 24 26 27 27 24 23 20 22 21 21 19 20 18 22 24 24 25 25 25 25 25
15 15 16 16 16 17 17 17 17 17 17 17 16 16 16 19 22 22 22 22 22 22 22 23 24 26 27 26 24 23 22 21 20 20 20 18 19 23 25 25 25 25 25 25 25
15 15 16 16 16 17 17 17 17 17 17 17 16 16 17 21 22 21 22 22 22 22 23 24 25 26 27 25 22 21 20 20 19 19 18 19 20 24 26 26 25 25 25 25 25
15 15 16 16 17 17 17 18 18 18 17 17 16 15 17 21 22 22 22 23 22 23 23 23 25 26 27 24 19 19 19 19 18 17 18 19 22 22 23 26 25 25 26 26 25
15 15 16 16 17 17 18 18 19 18 17 17 17 14 20 23 23 23 23 23 24 24 24 24 26 23 23 23 22 18 19 20 19 17 17 18 17 19 20 21 26 26 26 25 25
15 15 16 16 17 18 18 18 18 18 17 19 21 22 24 23 23 23 23 24 24 24 22 25 22 20 22 24 25 25 23 20 18 18 17 17 17 18 18 19 20 25 26 25 25
15 16 16 17 17 18 19 19 20 21 21 22 22 23 23 24 24 24 24 24 24 22 24 23 20 23 26 26 24 23 21 19 18 17 18 16 17 17 18 18 19 21 24 24 24
15 16 17 17 18 19 19 19 21 21 21 23 23 24 24 24 24 24 24 24 24 23 23 22 24 26 27 27 24 20 22 19 19 18 17 17 17 17 18 17 19 20 22 25 24
16 16 17 18 18 18 19 21 21 21 19 23 24 24 24 24 24 25 24 25 25 23 24 24 26 27 27 27 26 21 20 20 19 19 18 17 18 17 17 17 17 18 19 24 24
16 17 17 18 19 20 21 21 22 22 17 25 25 25 24 24 26 25 25 25 24 25 25 24 26 26 27 28 24 20 19 20 20 18 17 17 17 18 17 17 17 18 19 22 24
17 18 18 19 19 20 21 21 21 19 20 25 26 25 25 25 26 25 25 25 26 25 25 25 29 28 27 29 25 22 20 18 18 18 18 19 19 18 17 18 18 19 20 21 21
18 19 19 19 20 20 20 21 19 19 26 25 25 25 25 25 26 25 24 23 22 23 23 26 26 28 30 23 24 22 21 19 18 18 19 19 19 20 18 19 21 21 20 20 22
19 19 20 20 20 20 21 20 19 24 25 26 26 24 23 24 24 26 24 22 24 24 22 23 23 27 29 26 24 22 21 18 21 20 20 17 19 20 21 20 21 20 21 21 21
20 20 20 21 21 20 20 19 21 23 25 25 25 23 22 24 25 25 24 23 25 25 25 24 24 28 28 28 27 26 23 24 17 18 19 18 18 17 21 21 21 20 21 21 22
20 20 21 21 21 21 20 19 24 25 25 25 23 23 23 24 24 24 24 25 27 26 25 24 22 25 28 29 28 27 27 24 20 19 19 19 17 17 18 22 22 22 22 22 23
20 20 23 23 23 22 19 22 26 26 25 24 24 23 24 24 23 23 23 25 26 27 26 24 23 23 27 26 25 25 24 24 23 22 20 20 19 18 19 21 20 21 23 23 22
19 19 23 24 22 23 21 25 25 26 26 26 26 25 24 25 23 20 21 24 26 25 22 22 23 20 23 27 27 26 26 24 21 22 22 20 21 23 20 21 23 23 22 23 23
18 20 23 24 21 22 25 26 26 25 24 24 24 24 24 24 20 21 22 25 25 24 21 21 20 19 22 23 24 25 25 25 23 22 22 23 20 21 22 21 26 24 23 24 23
17 20 24 24 24 23 24 25 25 25 25 25 24 24 23 23 23 20 23 25 25 24 24 24 21 20 19 23 24 23 24 24 22 21 22 23 23 21 21 21 22 23 23 24 24
17 21 22 22 24 23 24 24 25 24 25 25 24 24 23 22 21 21 23 24 23 23 24 22 20 21 22 25 25 24 24 25 22 20 21 25 22 20 18 19 17 23 24 23 23
17 21 21 22 25 24 21 24 24 24 23 22 22 24 24 21 22 20 21 21 22 23 23 19 18 19 20 23 23 23 23 23 23 19 18 22 20 19 18 22 20 19 20 21 22
17 19 20 21 22 23 23 24 24 23 24 24 23 22 22 22 23 23 23 23 23 22 20 19 19 19 19 20 21 21 20 20 21 19 17 18 18 18 17 18 21 20 19 17 19

GFSSW_850_temp_123.txt.gz
Temp
16 15 15 15 15 15 16 16 16 16 16 17 17 17 17 18 18 19 20 22 22 21 21 21 22 22 21 20 20 21 19 19 18 19 20 22 23 23 23 21 21 21 20 19 19
15 15 15 15 16 16 16 16 16 16 17 17 17 17 17 18 18 20 21 22 22 21 22 21 21 22 21 21 22 20 18 19 19 19 18 20 23 22 22 22 21 20 19 19 18
15 15 15 15 16 16 16 16 16 16 16 17 16 17 17 17 18 21 22 22 21 21 21 21 21 21 21 22 22 20 21 21 19 20 20 20 22 23 22 21 21 19 18 19 18
15 15 15 16 16 16 16 16 16 16 17 17 16 16 17 17 19 21 22 22 22 21 22 21 21 21 20 21 23 21 24 21 21 19 20 20 21 21 22 22 22 21 20 19 19
15 15 15 16 16 16 16 16 16 17 17 17 17 16 16 17 21 21 21 22 21 21 22 21 20 21 21 22 22 21 22 20 19 19 20 20 19 18 20 22 21 20 20 20 20
15 15 15 16 16 16 16 17 17 17 17 17 17 17 16 16 20 21 21 21 21 21 22 21 21 21 22 22 22 21 20 19 18 18 18 19 16 18 21 21 21 20 19 20 20
15 15 16 16 16 16 17 17 17 17 17 17 17 17 17 20 20 21 20 20 20 21 22 22 21 21 22 21 21 21 19 19 18 18 18 19 18 17 21 21 20 20 19 19 20
15 15 16 16 16 17 17 18 18 18 18 17 17 17 19 20 21 21 21 21 21 20 20 21 22 21 21 21 20 20 20 19 18 18 18 18 18 18 18 21 21 21 20 19 20
15 15 16 16 17 17 18 19 19 19 18 17 17 17 21 21 22 22 21 21 21 20 20 21 21 22 22 19 17 17 18 19 18 17 17 18 18 17 19 22 22 22 21 20 20
15 16 16 16 17 18 19 19 19 19 19 17 17 17 22 21 22 22 21 21 21 21 21 21 21 18 17 17 18 19 18 19 18 17 16 18 17 17 17 20 22 22 22 21 20
15 16 16 17 18 19 20 20 19 19 18 20 20 19 21 22 22 22 22 21 21 22 19 21 18 18 19 19 20 19 19 18 18 17 17 17 17 17 16 16 20 20 21 20 20
16 16 17 17 18 19 19 20 19 18 17 21 21 20 22 22 21 23 22 22 21 19 20 18 18 20 21 21 22 20 19 18 18 17 17 16 17 16 17 17 17 19 21 21 20
16 17 18 18 19 19 20 19 19 18 17 20 21 22 23 23 23 23 23 23 21 20 20 18 20 21 22 23 21 20 19 18 18 17 17 17 17 16 16 17 18 19 20 21 21
16 17 18 19 19 19 20 19 19 20 14 18 21 23 23 23 22 23 23 23 22 20 20 19 21 22 21 22 21 19 21 20 20 18 18 17 18 16 16 17 17 18 19 21 20
17 18 19 19 20 20 19 20 20 20 17 22 23 24 24 23 23 23 24 24 22 21 20 20 22 21 21 22 21 20 20 19 19 17 18 17 17 18 16 16 17 18 19 20 20
18 19 19 20 20 20 20 20 20 16 19 22 23 23 22 22 23 24 23 24 24 21 20 20 23 22 22 23 23 20 18 18 17 17 16 18 18 19 16 17 18 19 19 19 20
19 19 20 20 20 20 20 20 16 16 21 21 22 22 21 22 22 22 22 21 20 20 20 21 23 20 20 18 19 18 17 16 18 17 17 17 17 18 19 19 19 18 19 20 19
20 20 20 20 20 20 20 16 17 20 21 22 22 22 22 22 22 23 22 20 21 21 19 20 21 20 22 20 18 18 18 19 18 18 19 17 18 19 21 21 21 20 21 20 19
20 21 21 21 21 20 20 14 17 20 21 21 21 20 20 21 22 20 21 20 21 19 20 20 21 23 22 21 20 19 19 19 17 16 17 18 19 19 19 20 19 20 20 19 19
20 21 21 21 21 20 15 15 16 19 23 21 21 21 20 20 20 20 20 21 22 21 19 21 21 22 24 23 22 20 20 19 17 18 18 18 18 18 19 18 18 20 19 19 20
20 21 21 21 20 20 15 14 18 22 23 22 21 21 20 21 20 19 19 21 21 21 20 19 19 21 22 22 20 21 20 17 17 16 18 19 18 18 19 18 18 19 19 19 21
20 16 21 20 18 13 14 16 22 22 23 22 21 21 21 20 20 20 20 20 23 21 21 19 16 18 22 21 22 22 22 18 18 20 16 19 20 18 19 18 19 19 19 20 20
17 19 20 20 15 14 16 19 21 22 22 22 22 21 20 20 20 19 20 23 23 21 21 21 15 16 16 17 20 19 19 17 14 14 18 19 20 17 18 18 19 19 20 20 20
16 14 20 20 19 17 17 17 20 23 22 22 20 20 19 17 16 20 19 22 22 22 20 19 15 19 16 18 17 18 18 17 15 15 16 16 16 16 16 17 17 20 20 20 20
15 14 16 14 16 16 16 18 21 21 21 21 19 18 19 19 17 18 19 18 21 21 19 16 16 18 18 18 18 18 18 17 16 17 16 16 15 15 15 15 15 16 20 21 21
15 14 16 16 16 16 15 20 20 21 21 21 18 19 17 18 19 19 19 19 19 18 17 14 16 18 18 18 17 16 17 17 17 16 16 15 15 14 15 15 15 15 16 18 20
13 14 14 15 14 16 16 17 20 20 21 22 19 18 18 20 20 20 20 18 17 18 16 15 14 14 17 16 17 16 16 16 16 16 16 15 15 15 15 14 14 15 15 15 15

GFSSW_850_temp_129.txt.gz
Temp
15 15 15 15 15 16 16 16 16 16 17 17 17 17 18 18 18 19 20 21 21 21 21 21 21 20 20 20 20 20 20 20 20 20 19 21 23 21 21 20 21 19 20 19 19
15 15 15 15 16 16 16 16 16 17 17 17 17 17 18 18 19 20 20 21 21 21 20 21 21 21 21 21 21 21 22 22 21 19 18 20 21 21 21 21 19 18 19 19 19
15 15 15 15 16 16 16 17 16 17 17 17 17 17 17 18 19 19 20 21 21 20 20 21 21 21 22 21 22 21 22 21 20 19 19 19 21 22 22 22 21 19 18 18 17
15 15 15 15 16 16 16 17 17 17 17 17 17 17 17 18 21 19 20 20 20 20 20 20 21 22 23 23 22 23 21 21 19 19 18 20 21 22 21 21 20 19 19 18 17
15 15 15 16 16 16 17 17 17 17 17 17 17 17 18 19 19 20 20 20 20 20 20 20 21 21 23 23 23 23 21 19 19 19 18 19 18 21 20 20 19 18 18 18 18
15 15 16 16 16 17 17 18 18 18 18 17 17 17 18 20 20 20 21 20 20 20 20 20 21 22 22 22 22 20 20 19 19 19 19 18 17 19 18 19 19 18 18 18 18
15 16 16 16 17 17 17 18 18 18 18 18 18 19 19 19 19 20 20 19 20 20 20 21 21 22 21 21 20 20 20 20 19 19 18 17 17 18 17 19 19 19 19 18 18
15 16 16 17 17 17 18 18 19 19 19 18 19 20 20 20 20 20 19 19 19 19 20 21 21 21 22 20 21 21 22 21 19 19 18 19 19 16 17 17 20 19 19 18 18
16 16 16 17 18 18 19 19 19 19 19 19 19 19 20 20 20 20 20 20 19 19 20 21 21 21 21 23 22 21 22 21 19 18 18 19 19 19 17 16 20 20 19 19 19
16 16 17 17 18 19 19 19 19 19 19 20 19 19 21 20 20 21 20 20 19 19 20 20 20 23 22 23 23 22 22 21 20 19 19 19 17 16 16 16 17 20 20 20 20
16 16 17 18 19 19 19 19 19 19 19 20 19 20 21 21 21 20 20 20 20 20 21 20 23 23 23 23 23 23 22 21 19 19 19 19 18 17 16 16 17 19 21 20 20
16 17 17 19 19 19 19 18 18 18 17 20 20 21 22 22 21 21 20 21 21 21 20 21 23 23 22 22 22 23 22 21 20 18 19 19 19 17 17 18 20 19 20 21 20
17 17 18 19 19 19 19 19 19 18 17 20 21 21 22 22 22 21 21 21 21 21 21 22 23 22 23 23 22 22 23 22 22 19 18 19 20 18 17 16 17 18 19 20 21
17 18 19 20 20 20 19 19 19 19 21 23 22 22 22 22 22 22 22 22 21 22 21 23 22 22 23 24 24 23 23 22 20 21 21 20 19 19 20 18 17 19 20 20 20
18 18 19 20 20 20 19 19 20 19 20 23 23 22 22 23 22 22 22 23 23 22 22 23 22 22 23 24 23 24 22 22 22 21 20 19 19 21 19 19 18 18 19 21 20
18 19 19 20 20 20 20 20 19 21 20 23 23 23 23 22 22 22 22 23 22 23 22 23 21 23 24 23 24 22 21 20 20 20 21 21 21 23 19 21 21 20 20 21 21
19 19 19 20 20 20 20 19 21 21 21 22 23 23 22 23 23 23 23 23 23 22 22 22 23 22 22 22 22 23 23 21 20 21 22 20 20 23 22 22 23 21 20 20 21
19 20 20 20 20 20 20 20 21 21 22 22 22 22 23 22 22 22 22 23 22 22 22 23 22 22 22 24 23 23 25 23 21 22 22 19 21 24 22 22 22 21 21 20 20
20 20 20 20 20 20 19 21 21 21 22 22 22 22 22 22 22 22 23 22 23 22 22 21 23 21 22 22 23 22 22 22 22 20 21 22 22 22 23 22 21 21 20 19 20
20 20 20 20 20 20 20 19 20 19 20 22 22 21 22 22 22 22 22 23 23 22 21 22 23 23 22 22 21 23 23 22 22 21 22 23 22 22 20 20 20 21 20 20 19
19 20 19 20 20 20 21 20 20 20 19 22 22 22 22 22 21 21 22 23 23 23 21 22 22 22 22 23 23 21 23 22 22 22 23 23 23 20 18 19 19 21 20 20 20
18 20 18 19 19 13 20 18 19 21 20 22 22 22 22 21 21 22 22 22 21 22 23 21 23 23 23 22 21 22 22 24 24 23 21 22 24 19 18 19 19 21 21 20 20
16 17 18 18 20 19 18 20 20 21 22 23 22 21 20 21 21 21 21 22 21 22 22 21 22 22 22 23 22 21 20 20 22 22 22 24 24 20 18 18 18 19 20 20 20
15 18 17 17 17 19 19 20 21 20 21 20 21 21 21 20 19 21 22 22 20 20 18 20 20 20 23 21 20 21 20 20 23 24 22 22 21 20 18 16 17 17 18 19 18
14 15 13 18 17 18 18 18 21 22 21 20 20 21 22 21 20 21 21 22 22 19 19 21 20 19 19 20 20 20 21 21 21 20 22 20 20 18 16 15 15 15 16 18 17
12 13 13 14 13 16 15 19 20 21 21 22 22 21 20 21 22 21 21 21 21 22 20 19 19 19 19 20 20 20 20 20 20 19 20 19 19 17 15 15 14 14 15 18 17
12 12 12 14 15 17 19 19 20 20 20 20 21 20 20 21 19 18 17 17 19 20 20 20 19 19 20 18 20 20 19 19 19 18 19 20 19 17 16 15 13 13 13 14 16

GFSSW_850_temp_132.txt.gz
Temp
15 15 15 16 16 16 16 17 17 17 17 17 17 17 18 18 19 19 19 20 20 21 21 20 20 21 22 23 23 23 23 22 23 22 23 24 25 23 23 23 24 23 24 22 19
15 15 15 15 16 16 16 17 17 17 17 17 17 17 18 18 19 19 20 21 21 21 20 21 22 22 24 25 25 26 25 24 23 21 23 23 24 22 24 24 23 22 21 20 19
15 15 15 16 16 16 17 17 17 17 17 17 17 17 18 19 19 20 20 21 21 20 20 22 23 23 26 25 26 26 24 25 23 21 20 23 24 24 25 25 24 23 21 20 20
15 15 16 16 16 16 17 17 17 17 17 17 17 18 18 19 24 19 20 21 21 20 20 22 23 25 27 27 26 25 24 24 21 21 21 23 23 24 25 24 24 23 22 21 21
15 16 16 16 16 17 17 17 18 18 18 17 17 18 19 20 20 20 20 20 20 20 21 23 24 26 27 27 26 26 24 22 22 22 19 20 22 23 22 23 23 23 22 21 22
15 16 16 16 17 17 18 18 18 18 18 18 18 19 19 23 19 20 20 20 19 21 21 23 24 24 26 26 27 25 24 23 22 22 20 18 19 20 19 22 22 22 22 22 22
15 16 16 17 17 18 18 19 19 19 19 19 19 19 19 20 19 19 19 19 19 21 22 22 23 24 25 26 25 24 24 24 23 22 21 17 17 19 18 22 23 22 23 22 22
16 16 16 17 18 18 19 19 20 20 19 20 20 20 21 20 19 19 19 19 19 20 21 21 22 24 25 24 24 25 26 24 23 22 21 20 19 18 18 19 23 23 23 22 22
16 16 17 17 18 19 19 19 20 20 20 20 21 21 22 20 20 20 20 21 20 20 20 21 22 25 25 26 26 26 27 25 22 22 22 22 22 18 17 17 20 24 23 23 22
16 16 17 18 19 19 19 20 20 20 20 21 21 21 22 22 20 20 20 20 21 21 22 23 24 27 27 28 27 27 27 26 24 22 22 22 22 21 17 17 17 23 24 23 23
16 17 17 18 19 19 20 20 20 19 20 21 22 22 22 21 20 21 20 21 22 23 25 24 26 26 28 28 27 27 27 26 25 22 23 23 23 22 19 17 17 20 24 24 24
17 17 18 19 19 19 20 20 19 19 23 21 21 21 21 21 22 21 21 23 23 25 25 25 26 28 27 27 27 27 26 25 24 23 23 23 23 22 20 19 17 18 21 24 24
17 18 18 19 19 20 19 19 20 19 23 23 22 23 23 22 24 23 22 23 25 24 25 26 27 26 26 26 26 27 27 26 25 24 23 23 23 21 20 19 17 19 22 24 25
18 18 19 19 19 20 19 20 20 20 26 25 25 24 23 23 24 23 23 24 25 25 25 26 26 25 26 26 27 27 27 26 24 25 25 25 26 23 20 20 18 22 22 24 25
18 18 19 19 20 20 20 20 20 19 24 26 25 23 24 25 24 24 23 24 25 25 25 26 25 25 26 27 27 27 27 26 26 25 26 26 25 25 22 23 22 22 23 24 24
18 19 19 20 20 20 20 20 19 24 23 25 26 26 26 25 25 24 24 24 25 26 26 26 25 27 27 28 27 27 26 25 25 26 25 27 26 27 24 24 26 24 23 24 25
19 19 19 19 20 20 20 19 25 25 25 25 26 26 26 26 26 26 25 25 26 25 25 26 26 27 26 26 27 26 27 26 25 25 26 26 25 27 26 26 26 26 24 24 25
19 19 20 20 20 20 19 24 24 24 25 26 26 26 26 26 26 26 26 26 26 26 26 26 25 26 27 27 26 26 28 27 23 23 24 25 24 27 27 25 25 26 26 22 23
19 20 20 20 20 20 21 25 24 25 25 26 26 26 26 26 26 26 26 26 26 26 25 26 26 28 27 28 27 27 26 29 26 26 26 28 27 27 27 26 25 25 25 24 23
19 18 18 20 20 19 24 22 25 25 25 26 25 25 25 26 26 26 26 26 26 26 26 26 25 26 26 26 26 26 28 26 27 23 23 27 27 26 25 24 24 25 24 24 22
19 21 19 20 20 21 25 25 25 24 24 26 25 25 25 25 26 26 26 26 26 26 25 27 27 25 26 25 26 26 26 27 27 26 22 24 23 25 22 23 24 24 24 22 22
17 23 19 19 22 24 25 25 22 26 24 26 26 26 25 25 25 25 25 26 25 26 26 27 28 26 27 26 26 26 26 27 25 21 26 18 25 24 23 23 23 24 23 23 21
17 20 18 18 24 25 24 25 24 26 26 26 26 26 25 25 24 25 25 24 24 26 25 26 27 25 26 26 26 26 27 27 28 17 18 25 25 24 22 21 21 22 23 22 21
15 22 20 19 21 24 25 25 25 24 25 25 26 25 25 25 25 25 25 25 24 25 21 23 26 25 24 25 25 25 25 26 27 27 27 26 26 25 23 20 19 19 21 22 22
16 21 17 23 23 24 24 24 25 25 24 24 24 25 25 24 24 24 25 25 25 22 24 26 25 25 25 25 25 25 25 26 26 26 26 25 25 23 20 18 16 15 18 21 19
15 17 18 20 19 22 18 24 24 25 25 25 25 25 25 24 24 24 25 25 25 25 25 25 24 24 24 24 25 25 24 23 25 25 25 25 24 20 18 16 14 14 15 21 20
11 12 14 19 21 22 24 24 24 24 24 25 25 25 25 25 24 23 24 24 24 24 24 24 24 23 23 24 24 23 24 24 24 24 25 25 22 20 18 16 13 13 12 13 15

GFSSW_850_temp_135.txt.gz
Temp
15 15 16 16 16 16 17 17 17 17 17 17 17 18 18 19 19 20 20 21 21 21 21 22 22 24 25 27 26 26 22 19 22 23 22 27 27 26 26 26 27 26 26 24 22
15 15 16 16 16 16 17 17 17 17 17 17 17 18 18 19 20 20 21 21 22 22 21 23 25 25 27 28 28 25 24 25 24 21 21 26 23 26 27 26 26 26 25 23 22
15 16 16 16 16 17 17 17 17 17 17 18 18 18 19 19 18 23 21 21 22 22 21 24 26 26 29 29 29 27 26 27 26 22 23 25 26 25 26 26 26 26 24 23 23
15 16 16 16 17 17 17 18 18 18 18 18 18 18 19 20 26 21 21 21 22 21 22 24 26 27 30 29 28 27 27 27 25 22 24 25 25 26 24 26 27 25 24 23 23
16 16 16 16 17 17 18 18 18 18 18 18 18 19 19 20 23 20 21 21 21 21 24 25 27 28 30 31 30 26 26 25 25 24 22 24 23 25 25 25 26 25 24 24 24
16 16 16 17 17 18 18 19 19 19 19 18 19 20 19 25 21 20 20 21 22 23 25 26 27 28 29 30 30 28 27 26 25 24 23 23 20 23 23 24 26 25 25 24 23
16 16 17 17 17 18 19 19 19 20 19 20 20 21 21 22 21 21 21 22 23 24 25 26 26 27 29 30 28 28 27 27 25 23 23 20 18 21 21 21 26 25 25 24 23
16 16 17 17 18 19 19 20 20 20 20 21 21 21 23 21 21 22 22 22 22 23 24 25 25 27 28 28 29 29 29 26 26 25 23 23 19 17 19 20 24 25 24 24 23
16 17 17 18 19 19 20 20 20 20 21 21 21 21 24 22 22 23 23 23 23 23 23 24 24 27 28 29 29 30 25 21 25 25 24 24 22 19 19 19 21 22 24 24 24
17 17 18 18 19 20 20 20 21 21 21 22 22 22 23 24 23 23 23 23 24 24 24 25 26 29 30 30 27 26 29 28 25 26 25 24 23 22 18 18 19 20 21 24 24
17 17 18 19 19 20 20 21 20 20 21 24 25 25 25 23 23 23 23 24 24 25 27 26 28 28 30 31 29 29 29 27 24 26 26 25 25 23 19 18 19 19 20 23 23
17 18 18 19 20 20 21 23 22 22 25 24 24 25 24 24 24 24 24 26 26 27 28 28 27 30 31 31 29 29 29 28 28 27 26 25 26 25 22 22 20 18 22 21 25
18 18 19 20 20 20 20 22 21 21 25 26 25 26 25 25 26 25 24 26 27 28 27 28 29 31 30 29 29 30 29 27 27 24 27 26 26 25 24 22 20 19 20 21 22
18 18 19 20 20 21 22 21 21 21 26 27 27 26 25 26 27 25 25 26 27 28 28 29 30 29 28 28 29 29 30 28 27 27 25 28 27 26 25 23 20 18 20 22 23
18 19 19 20 20 21 21 21 21 22 25 28 28 26 26 27 26 26 25 26 28 28 28 29 28 27 28 29 30 27 28 28 29 28 29 30 28 27 26 24 22 20 22 24 24
18 19 19 20 20 20 21 21 22 25 25 28 28 28 28 28 27 26 26 26 27 28 28 28 28 29 29 30 30 30 29 29 28 29 28 30 29 22 24 26 26 23 24 25 24
18 19 19 20 21 20 21 22 26 27 28 28 28 29 29 28 28 28 27 27 28 27 27 28 28 29 29 29 30 29 28 28 27 28 28 23 29 24 22 29 28 23 25 26 25
18 19 20 20 19 20 21 26 25 28 28 29 28 28 28 28 28 28 28 28 29 28 29 28 27 28 29 29 29 28 29 28 25 23 24 23 28 21 29 29 29 27 26 26 25
19 20 19 20 20 20 22 26 28 28 29 28 28 28 28 28 28 28 28 29 29 29 27 29 28 30 30 30 30 29 28 31 28 29 27 23 25 27 29 29 28 28 28 26 26
19 21 22 20 20 21 25 24 28 28 28 28 27 28 28 28 28 28 28 29 28 29 29 29 27 29 29 29 30 29 30 29 29 24 25 22 18 22 27 27 27 28 28 27 26
19 22 22 20 20 22 25 28 28 27 27 28 28 28 28 28 28 28 28 29 28 29 28 29 29 25 29 28 21 28 28 29 29 25 22 22 20 27 25 27 28 28 27 27 26
18 24 21 21 23 25 27 29 26 28 27 28 28 28 28 28 28 28 28 28 27 28 28 29 29 26 27 26 22 19 24 26 25 26 22 20 18 26 26 26 27 27 26 25 22
19 24 21 21 24 27 28 28 27 28 28 28 28 28 29 28 26 28 28 27 27 28 27 28 28 27 27 29 25 25 24 22 16 20 23 21 22 27 26 24 24 25 25 24 21
17 24 23 22 24 27 28 27 27 27 28 28 28 28 27 27 27 27 27 28 26 27 24 25 28 27 25 22 21 25 25 21 17 17 23 26 24 19 24 23 21 21 23 24 21
18 23 23 25 25 26 27 28 27 27 27 27 27 27 27 26 27 26 27 28 27 25 25 28 26 27 27 26 26 21 20 26 28 26 24 17 18 22 22 18 18 18 21 23 20
18 20 21 23 24 25 23 26 27 28 28 27 26 27 27 26 27 26 27 27 27 27 27 28 26 26 26 28 27 27 28 28 27 27 21 16 17 23 19 17 17 17 15 17 20
15 15 16 21 24 25 26 26 26 27 27 27 28 27 27 27 27 26 26 27 27 26 26 26 26 25 25 25 23 26 28 28 28 27 27 25 23 24 22 18 16 16 15 14 14

GFSSW_850_temp_138.txt.gz
Temp
15 16 16 16 16 16 17 17 17 17 17 17 18 18 19 19 20 20 21 22 22 22 23 22 23 24 25 27 26 22 21 18 17 22 23 24 26 27 27 28 27 25 24 24 24
15 16 16 16 17 17 17 17 17 17 17 18 18 18 19 19 20 19 22 22 22 23 23 23 26 26 27 28 27 20 17 22 23 21 21 21 19 21 28 28 27 26 24 24 24
16 16 16 16 17 17 17 18 18 18 18 18 18 19 19 19 19 23 22 22 23 23 23 24 27 28 28 29 29 25 20 22 24 22 20 17 20 25 26 26 27 25 25 25 24
16 16 16 17 17 17 18 18 18 18 18 18 18 19 19 20 25 21 22 23 23 23 21 25 26 28 29 29 26 24 28 26 23 23 24 22 21 25 25 23 25 26 25 24 24
16 16 16 17 17 18 18 19 19 19 18 18 19 19 19 19 24 22 22 23 23 23 23 26 27 28 29 27 29 29 28 26 25 25 23 19 20 25 25 26 26 26 25 25 24
16 16 17 17 18 18 19 19 19 19 19 19 20 20 20 23 23 22 21 23 22 23 25 27 28 29 29 29 28 23 22 27 25 25 24 22 22 25 24 24 26 26 25 25 23
16 17 17 18 18 19 19 20 20 20 20 21 21 20 18 24 23 22 22 23 24 25 27 27 28 29 30 31 27 23 25 26 26 25 25 22 20 20 22 21 23 26 26 25 24
17 17 17 18 19 19 20 20 21 21 21 21 21 20 24 23 23 23 24 24 24 25 26 27 27 27 29 29 28 30 29 25 26 24 24 24 21 17 23 21 22 25 24 23 24
17 17 18 18 19 20 20 20 21 21 21 21 21 21 25 23 23 24 25 25 25 25 25 26 26 27 29 24 27 30 28 24 20 23 25 24 22 19 20 20 21 22 22 21 23
17 18 18 19 20 20 20 21 21 22 22 22 22 21 25 25 25 25 24 25 25 26 26 26 27 28 29 30 28 25 27 27 20 25 26 24 24 21 20 20 21 22 22 20 20
18 18 19 20 20 20 21 21 21 21 20 25 26 27 26 25 24 25 25 25 26 26 27 27 28 28 30 31 30 27 28 26 25 26 26 26 25 23 21 19 20 21 23 23 22
18 18 19 20 20 21 21 21 24 24 26 26 26 26 26 26 26 25 25 26 27 27 28 29 27 30 31 32 31 29 29 28 27 28 27 27 24 24 22 21 22 21 20 22 22
18 19 19 20 20 21 21 23 23 24 26 27 27 28 27 26 28 26 26 27 28 28 29 29 30 31 31 31 29 30 29 27 26 27 28 28 26 23 24 22 22 22 22 20 20
18 19 20 20 21 22 24 24 24 24 25 28 28 28 27 27 28 27 26 27 29 28 29 29 31 31 30 30 30 29 30 29 27 27 27 28 25 25 24 23 23 22 20 20 21
18 19 19 20 21 21 24 24 23 25 24 29 29 27 28 28 28 27 27 27 28 29 29 29 30 29 29 29 30 30 30 29 28 27 29 30 28 27 24 22 22 23 22 21 23
18 19 19 20 21 22 22 24 24 25 25 29 29 29 29 29 29 28 27 27 28 29 29 29 30 30 29 30 31 31 29 29 27 28 27 30 30 25 22 21 24 23 22 21 23
18 19 19 19 21 23 23 24 25 25 30 29 29 30 30 29 29 29 28 28 28 27 27 29 29 30 30 30 31 30 29 27 27 28 27 27 28 24 26 23 26 25 22 22 23
18 19 20 21 21 22 23 26 24 29 30 31 30 30 29 30 30 29 29 28 30 29 30 29 27 29 30 29 29 30 29 28 25 23 20 24 24 26 28 27 27 26 23 23 25
19 19 20 21 21 21 23 25 26 29 31 30 30 29 29 30 29 29 29 30 30 30 28 29 29 31 31 30 30 29 28 31 28 28 24 23 23 23 27 30 30 26 24 25 25
18 20 22 22 22 22 24 23 28 30 30 30 28 30 28 29 29 29 29 30 30 30 30 29 28 30 30 30 30 30 31 28 29 26 24 21 19 19 19 16 29 27 22 25 26
18 21 24 23 22 23 24 27 29 30 29 29 29 29 29 29 30 29 30 30 30 30 30 30 29 28 29 28 28 29 28 26 26 24 25 22 18 16 16 17 25 29 25 27 26
17 23 24 23 23 24 26 27 28 30 29 29 29 29 29 29 29 29 29 29 29 29 29 30 29 26 26 24 28 28 26 25 24 17 20 23 17 16 16 17 27 28 27 25 27
17 23 24 23 24 25 27 28 29 29 30 29 29 29 30 29 28 28 29 29 28 29 26 28 28 27 26 20 24 27 27 25 26 26 22 19 20 20 18 16 25 27 26 24 23
16 23 24 23 24 26 27 28 29 28 29 29 29 29 28 28 29 28 29 29 28 28 26 26 27 27 26 24 19 23 23 24 24 24 26 26 18 18 16 15 21 23 23 24 22
16 22 24 25 25 25 26 27 28 28 29 28 28 28 28 27 28 28 28 29 28 26 27 27 26 27 28 27 24 26 26 25 24 22 23 23 20 19 20 16 19 20 21 23 22
16 19 19 20 23 25 23 26 27 29 29 28 28 28 28 27 28 27 28 28 28 27 27 28 26 27 27 28 28 25 27 25 22 16 18 23 21 21 18 18 19 18 17 19 21
15 15 16 19 22 24 25 27 27 28 28 29 29 28 28 28 28 28 28 28 29 28 27 27 26 26 25 27 26 25 25 24 22 20 23 22 20 16 16 20 19 19 16 16 15

GFSSW_850_temp_141.txt.gz
Temp
16 16 16 16 16 17 17 17 17 17 17 18 18 18 19 19 20 20 22 22 22 23 23 23 23 24 24 25 21 17 18 17 17 17 19 18 21 25 25 25 25 25 24 24 22
16 16 16 16 17 17 17 17 18 18 18 18 18 18 18 19 20 21 23 22 22 23 23 24 24 25 25 26 20 18 18 20 19 20 19 18 18 19 25 26 24 24 24 24 22
16 16 17 17 17 17 18 18 18 18 18 18 18 18 18 19 20 22 23 23 23 23 23 23 24 26 27 26 20 18 20 21 21 19 19 17 19 20 22 23 24 24 24 24 23
16 17 17 17 17 18 18 18 18 18 18 18 18 19 19 19 21 22 22 22 23 23 23 24 24 26 26 27 25 23 23 22 23 19 17 16 17 16 23 23 22 24 24 24 23
16 17 17 17 18 18 19 19 19 19 19 19 19 19 20 19 21 23 23 23 23 23 24 23 25 27 27 28 21 20 23 23 23 22 18 18 18 24 22 24 24 24 24 24 23
17 17 17 18 18 19 19 19 20 20 19 20 20 20 20 19 23 23 23 23 23 23 24 24 26 27 28 27 21 21 19 22 24 21 20 21 21 23 22 23 24 25 24 23 22
17 17 18 18 19 19 20 20 20 20 21 21 20 20 20 22 23 23 22 24 24 24 24 26 27 27 27 28 23 22 22 21 24 22 21 21 21 21 22 23 24 25 24 24 23
17 17 18 19 19 20 20 20 21 21 21 21 21 21 21 23 23 23 23 24 24 25 25 26 27 27 27 27 25 24 23 22 18 19 22 21 21 20 21 23 22 24 24 23 22
17 18 18 19 20 20 20 21 21 21 21 21 20 20 21 24 24 24 24 25 25 25 25 26 26 26 27 25 25 26 24 22 20 19 20 22 20 20 21 20 22 22 23 23 21
17 18 19 20 20 20 20 21 22 21 21 21 21 18 23 25 25 25 25 25 25 25 26 26 26 23 23 23 22 25 24 22 20 20 19 22 22 20 22 20 21 22 22 24 22
18 18 19 20 20 21 21 22 22 22 22 22 24 25 26 26 25 25 25 25 26 26 23 26 22 21 23 25 27 28 25 24 21 21 21 23 22 20 20 19 20 21 21 22 23
18 19 19 20 21 21 21 22 23 24 24 25 25 26 26 26 26 25 25 25 26 23 25 24 22 25 27 28 28 28 26 24 20 20 20 24 23 20 20 20 20 21 21 22 22
18 18 19 20 21 22 22 23 24 24 24 25 26 27 26 26 27 26 26 26 25 24 25 23 25 28 28 28 29 28 26 24 22 23 26 25 23 21 21 21 20 21 22 21 21
18 18 19 21 21 21 23 24 24 24 21 26 27 27 27 27 27 27 26 26 27 26 26 26 28 29 28 27 28 26 29 27 27 25 22 25 20 21 20 20 20 21 21 21 21
18 18 19 20 21 21 23 24 24 24 20 28 28 27 28 28 27 27 27 27 25 26 28 25 27 27 28 28 29 28 29 28 28 25 25 25 23 21 19 19 20 21 21 21 22
18 18 19 20 21 23 23 23 24 21 22 28 28 28 27 28 28 27 27 27 27 26 28 27 29 29 29 29 28 29 28 27 26 23 21 23 22 20 20 21 21 22 22 21 21
18 18 19 19 22 22 22 23 21 21 29 28 27 28 27 27 28 27 26 25 24 24 24 26 27 29 29 27 27 27 25 20 21 20 21 21 22 20 22 23 22 22 22 21 21
18 19 20 21 21 21 22 21 21 25 27 30 29 29 28 28 27 28 26 24 26 26 24 24 24 27 28 27 27 26 24 20 22 21 21 22 22 22 19 20 23 24 23 22 21
18 19 20 22 22 21 21 19 22 26 29 30 29 27 27 29 29 28 27 26 28 28 25 24 25 28 29 29 28 25 24 25 24 23 20 20 20 23 20 19 19 19 23 22 21
18 19 22 22 21 21 20 19 23 26 27 29 26 28 28 28 27 27 26 28 29 29 29 26 25 29 29 29 29 26 26 22 20 20 21 19 19 18 17 17 17 17 16 19 22
17 18 24 23 22 21 19 22 25 26 28 28 27 27 27 28 28 28 28 29 30 28 29 27 24 27 29 23 23 22 22 22 18 17 18 18 18 17 16 16 15 15 15 17 22
17 18 24 23 22 22 21 23 25 26 28 29 28 27 26 28 28 28 28 28 29 28 26 25 24 22 21 24 24 25 24 22 19 18 17 17 18 18 16 16 15 15 15 20 21
14 16 23 24 21 21 23 24 26 26 27 28 28 28 27 27 26 27 28 28 28 27 25 25 22 20 20 21 22 22 23 24 22 17 17 17 18 18 18 17 18 14 16 18 18
13 17 23 23 24 23 22 24 25 27 28 29 28 28 27 27 26 26 28 28 28 26 26 25 23 22 20 21 21 22 24 24 22 19 18 19 18 19 18 17 15 17 20 21 21
13 17 18 18 19 19 22 23 24 25 28 29 27 27 27 25 24 25 27 27 27 26 27 24 22 24 23 24 22 23 24 24 21 20 19 18 20 18 16 17 17 19 19 20 20
13 15 14 16 19 20 21 22 24 25 26 26 26 27 26 25 25 24 26 25 25 25 25 24 21 23 23 25 23 23 22 24 22 21 20 20 19 19 19 18 18 18 18 16 17
13 13 13 16 18 19 20 21 23 25 26 27 27 26 25 26 28 28 27 27 26 26 23 24 21 21 21 24 25 22 22 22 22 19 21 19 19 17 16 19 18 18 17 16 16